[[{"header":{"parameterUnit":"m.s-1","parameterCategory":1,"la1":31.0,"la2":29.5877,"lo1":-88.7671,"lo2":-86.6584,"dy":0.0162,"dx":0.0185,"nx":115,"ny":88,"refTime":"2023-02-27T06:00:00:Z","depth":0,"parameterNumber":2,"parameterNumberName":"U-component_of_WINDS"},"data":[0.0,0.0,0.0,0.0,0.0,0.0,0.0,0.0,0.0,0.0,0.0,0.0,0.0,0.0,0.0,0.0,0.0,0.0,0.0,0.0,0.0,0.0,0.0,0.0,0.0,0.0,0.0,0.0,0.0,0.0,0.0,0.0,0.0,0.0,0.0,0.0,0.0,0.0,0.0,0.0,0.0,0.0,0.0,0.0,0.0,0.0,0.0,0.0,0.0,0.0,0.0,0.0,0.0,0.0,0.0,0.0,0.0,0.0,0.0,0.0,0.0,0.0,0.0,0.0,0.0,0.0,0.0,0.0,0.0,0.0,0.0,0.0,0.0,0.0,0.0,0.0,0.0,0.0,0.0,0.0,0.0,0.0,0.0,0.0,0.0,0.0,0.0,0.0,0.0,0.0,0.0,0.0,0.0,0.0,0.0,0.0,0.0,0.0,0.0,0.0,0.0,0.0,0.0,0.0,0.0,0.0,0.0,0.0,0.0,0.0,0.0,0.0,0.0,0.0,0.0,0.0,0.0,0.0,0.0,0.0,0.0,0.0,0.0,0.0,0.0,0.0,0.0,0.0,0.0,0.0,0.0,0.0,0.0,0.0,0.0,0.0,0.0,0.0,0.0,0.0,0.0,0.0,0.0,0.0,0.0,0.0,0.0,0.0,0.0,0.0,0.0,0.0,0.0,0.0,0.0,0.0,0.0,0.0,0.0,0.0,0.0,0.0,0.0,0.0,0.0,0.0,0.0,0.0,0.0,0.0,0.0,0.0,0.0,0.0,0.0,0.0,0.0,0.0,0.0,0.0,0.0,0.0,0.0,0.0,0.0,0.0,0.0,0.0,0.0,0.0,0.0,0.0,0.0,0.0,0.0,0.0,0.0,0.0,0.0,0.0,0.0,0.0,0.0,0.0,0.0,0.0,0.0,0.0,0.0,0.0,0.0,0.0,0.0,0.0,0.0,0.0,0.0,0.0,0.0,0.0,0.0,0.0,0.0,0.0,0.0,0.0,0.0,0.0,0.0,0.0,0.0,0.0,0.0,0.0,0.0,0.0,0.0,0.0,0.0,0.0,0.0,0.0,0.0,0.0,0.0,0.0,0.0,0.0,0.0,0.0,0.0,0.0,0.0,0.0,0.0,0.0,0.0,0.0,0.0,0.0,0.0,0.0,0.0,0.0,0.0,0.0,0.0,0.0,0.0,0.0,0.0,0.0,0.0,0.0,0.0,0.0,0.0,0.0,0.0,0.0,0.0,0.0,0.0,0.0,0.0,0.0,0.0,0.0,0.0,0.0,0.0,0.0,0.0,0.0,0.0,0.0,0.0,0.0,0.0,0.0,0.0,0.0,0.0,0.0,0.0,0.0,0.0,0.0,0.0,0.0,0.0,0.0,0.0,0.0,0.0,0.0,0.0,0.0,0.0,0.0,0.0,0.0,0.0,0.0,0.0,0.0,0.0,0.0,0.0,0.0,0.0,0.0,0.0,0.0,0.0,0.0,0.0,0.0,0.0,0.0,0.0,0.0,0.0,0.0,0.0,0.0,0.0,0.0,0.0,0.0,0.0,0.0,0.0,0.0,0.0,0.0,0.0,0.0,0.0,0.0,0.0,0.0,0.0,0.0,0.0,0.0,0.0,0.0,0.0,0.0,0.0,0.0,0.0,0.0,0.0,0.0,0.0,0.0,0.0,0.0,0.0,0.0,0.0,0.0,0.0,0.0,0.0,0.0,0.0,0.0,0.0,0.0,0.0,0.0,0.0,0.0,0.0,0.0,0.0,0.0,0.0,0.0,0.0,0.0,0.0,0.0,0.0,0.0,0.0,0.0,0.0,0.0,0.0,0.0,0.0,0.0,0.0,0.0,0.0,0.0,0.0,0.0,0.0,0.0,0.0,0.0,0.0,0.0,0.0,0.0,0.0,0.0,0.0,0.0,0.0,0.0,0.0,0.0,0.0,0.0,0.0,0.0,0.0,0.0,0.0,0.0,0.0,0.0,0.0,0.0,0.0,0.0,0.0,0.0,0.0,0.0,0.0,0.0,0.0,0.0,0.0,0.0,0.0,0.0,0.0,0.0,0.0,0.0,0.0,0.0,0.0,0.0,0.0,0.0,0.0,0.0,0.0,0.0,0.0,0.0,0.0,0.0,0.0,0.0,0.0,0.0,0.0,0.0,0.0,0.0,0.0,0.0,0.0,0.0,0.0,0.0,0.0,0.0,0.0,0.0,0.0,0.0,0.0,0.0,0.0,0.0,0.0,0.0,0.0,0.0,0.0,0.0,0.0,0.0,0.0,0.0,0.0,0.0,0.0,0.0,0.0,0.0,0.0,0.0,0.0,0.0,0.0,0.0,0.0,0.0,0.0,0.0,0.0,0.0,0.0,0.0,0.0,0.0,0.0,0.0,0.0,0.0,0.0,0.0,0.0,0.0,0.0,0.0,0.0,0.0,0.0,0.0,0.0,0.0,0.0,0.0,0.0,0.0,0.0,0.0,0.0,0.0,0.0,0.0,0.0,0.0,0.0,0.0,0.0,0.0,0.0,0.0,0.0,0.0,0.0,0.0,0.0,0.0,0.0,0.0,0.0,0.0,0.0,0.0,0.0,0.0,0.0,0.0,0.0,0.0,0.0,0.0,0.0,0.0,0.0,0.0,0.0,0.0,0.0,0.0,0.0,0.0,0.0,0.0,0.0,0.0,0.0,0.0,0.0,0.0,0.0,0.0,0.0,0.0,0.0,0.0,0.0,0.0,0.0,0.0,0.0,0.0,0.0,0.0,0.0,0.0,0.0,0.0,0.0,0.0,0.0,0.0,0.0,0.0,0.0,0.0,0.0,0.0,0.0,0.0,0.0,0.0,0.0,0.0,0.0,0.0,0.0,0.0,0.0,0.0,0.0,0.0,0.0,0.0,0.0,0.0,0.0,0.0,0.0,0.0,0.0,0.0,0.0,0.0,0.0,0.0,0.0,0.0,0.0,0.0,0.0,0.0,0.0,0.0,0.0,0.0,0.0,0.0,0.0,0.0,0.0,0.0,0.0,0.0,0.0,0.0,0.0,0.0,0.0,0.0,0.0,0.0,0.0,0.0,0.0,0.0,0.0,0.0,0.0,0.0,0.0,0.0,0.0,0.0,0.0,0.0,0.0,0.0,0.0,0.0,0.0,0.0,0.0,0.0,0.0,0.0,0.0,0.0,0.0,0.0,0.0,0.0,0.0,0.0,0.0,0.0,0.0,0.0,0.0,0.0,0.0,0.0,0.0,0.0,0.0,0.0,0.0,0.0,0.0,0.0,0.0,0.0,0.0,0.0,0.0,0.0,0.0,0.0,0.0,0.0,0.0,0.0,0.0,0.0,0.0,0.0,0.0,0.0,0.0,0.0,0.0,0.0,0.0,0.0,0.0,0.0,0.0,0.0,0.0,0.0,0.0,0.0,0.0,0.0,0.0,0.0,0.0,0.0,0.0,0.0,0.0,0.0,0.0,0.0,0.0,0.0,0.0,0.0,0.0,0.0,0.0,0.0,0.0,0.0,0.0,0.0,0.0,0.0,0.0,0.0,0.0,0.0,0.0,0.0,0.0,0.0,0.0,0.0,0.0,0.0,0.0,0.0,0.0,0.0,0.0,0.0,0.0,0.0,0.0,0.0,0.0,0.0,0.0,0.0,0.0,0.0,0.0,0.0,0.0,0.0,0.0,0.0,0.0,0.0,0.0,0.0,0.0,0.0,0.0,0.0,0.0,0.0,0.0,0.0,0.0,0.0,0.0,0.0,0.0,0.0,0.0,0.0,0.0,0.0,0.0,0.0,0.0,0.0,0.0,0.0,0.0,0.0,0.0,0.0,0.0,0.0,0.0,0.0,0.0,0.0,0.0,0.0,0.0,0.0,0.0,0.0,0.0,0.0,0.0,0.0,0.0,0.0,0.0,0.0,0.0,0.0,0.0,0.0,0.0,0.0,0.0,0.0,0.0,0.0,0.0,0.0,0.0,0.0,0.0,0.0,0.0,0.0,0.0,0.0,0.0,0.0,0.0,0.0,0.0,0.0,0.0,0.0,0.0,0.0,0.0,0.0,0.0,0.0,0.0,0.0,0.0,0.0,0.0,0.0,0.0,0.0,0.0,0.0,0.0,0.0,0.0,0.0,0.0,0.0,0.0,0.0,0.0,0.0,0.0,0.0,0.0,0.0,0.0,0.0,0.0,0.0,0.0,0.0,0.0,0.0,0.0,0.0,0.0,0.0,0.0,0.0,0.0,0.0,0.0,0.0,0.0,0.0,0.0,0.0,0.0,0.0,-5.1206,0.0,0.0,0.0,0.0,0.0,0.0,0.0,0.0,0.0,0.0,0.0,0.0,0.0,0.0,0.0,0.0,0.0,0.0,0.0,0.0,0.0,0.0,0.0,0.0,0.0,0.0,0.0,0.0,0.0,0.0,0.0,0.0,0.0,0.0,0.0,0.0,0.0,0.0,0.0,0.0,0.0,0.0,0.0,0.0,0.0,0.0,0.0,0.0,0.0,0.0,0.0,0.0,0.0,0.0,0.0,0.0,0.0,0.0,0.0,0.0,0.0,0.0,0.0,0.0,0.0,0.0,0.0,0.0,0.0,0.0,0.0,0.0,0.0,0.0,0.0,0.0,0.0,0.0,0.0,0.0,0.0,0.0,0.0,0.0,0.0,0.0,0.0,0.0,0.0,0.0,0.0,0.0,0.0,0.0,0.0,0.0,0.0,0.0,0.0,0.0,0.0,0.0,0.0,0.0,0.0,0.0,0.0,0.0,0.0,0.0,-5.2374,-5.1929,-5.1116,-5.0659,-5.0594,0.0,0.0,0.0,0.0,0.0,0.0,0.0,0.0,0.0,0.0,0.0,0.0,0.0,0.0,0.0,0.0,0.0,0.0,0.0,0.0,0.0,0.0,0.0,0.0,0.0,0.0,0.0,0.0,0.0,0.0,0.0,0.0,0.0,0.0,0.0,0.0,0.0,0.0,0.0,0.0,0.0,0.0,0.0,0.0,0.0,0.0,0.0,0.0,0.0,0.0,0.0,0.0,0.0,0.0,0.0,0.0,0.0,0.0,0.0,0.0,0.0,0.0,0.0,0.0,0.0,0.0,0.0,0.0,0.0,0.0,0.0,0.0,0.0,0.0,0.0,0.0,0.0,0.0,0.0,0.0,0.0,0.0,0.0,0.0,0.0,0.0,0.0,0.0,0.0,0.0,0.0,0.0,0.0,0.0,0.0,0.0,0.0,0.0,0.0,0.0,0.0,0.0,0.0,0.0,0.0,0.0,0.0,0.0,0.0,0.0,0.0,0.0,-5.0761,-5.0368,-5.0342,0.0,0.0,0.0,0.0,0.0,0.0,0.0,0.0,0.0,0.0,0.0,0.0,0.0,0.0,0.0,0.0,0.0,0.0,0.0,0.0,0.0,0.0,0.0,0.0,0.0,0.0,0.0,0.0,0.0,0.0,0.0,0.0,0.0,0.0,0.0,0.0,0.0,0.0,0.0,0.0,0.0,0.0,0.0,0.0,0.0,0.0,0.0,0.0,0.0,0.0,0.0,0.0,0.0,0.0,0.0,0.0,0.0,0.0,0.0,0.0,0.0,0.0,0.0,0.0,0.0,0.0,0.0,0.0,0.0,0.0,0.0,0.0,0.0,0.0,0.0,0.0,0.0,0.0,0.0,0.0,0.0,0.0,0.0,0.0,0.0,0.0,0.0,0.0,0.0,0.0,0.0,0.0,0.0,0.0,0.0,0.0,0.0,0.0,0.0,0.0,0.0,0.0,0.0,0.0,0.0,0.0,0.0,0.0,0.0,0.0,-5.1233,-5.1233,-5.1241,0.0,-5.0992,0.0,0.0,0.0,0.0,0.0,0.0,0.0,0.0,0.0,0.0,0.0,0.0,0.0,0.0,0.0,0.0,0.0,0.0,0.0,0.0,0.0,0.0,0.0,0.0,0.0,0.0,0.0,0.0,0.0,0.0,0.0,0.0,0.0,0.0,0.0,0.0,0.0,0.0,0.0,0.0,0.0,0.0,0.0,0.0,0.0,0.0,0.0,0.0,0.0,0.0,0.0,0.0,0.0,0.0,0.0,0.0,0.0,0.0,0.0,0.0,0.0,0.0,0.0,0.0,0.0,0.0,0.0,0.0,0.0,0.0,0.0,0.0,0.0,0.0,0.0,0.0,0.0,0.0,0.0,0.0,0.0,0.0,0.0,0.0,0.0,0.0,0.0,0.0,0.0,0.0,0.0,0.0,0.0,0.0,0.0,0.0,0.0,0.0,0.0,0.0,0.0,0.0,0.0,0.0,0.0,0.0,0.0,0.0,0.0,0.0,-5.137,-5.137,-5.1383,-5.1277,0.0,0.0,0.0,0.0,0.0,0.0,0.0,0.0,0.0,0.0,0.0,0.0,0.0,0.0,0.0,0.0,0.0,0.0,0.0,0.0,0.0,0.0,0.0,0.0,0.0,0.0,0.0,0.0,0.0,0.0,0.0,0.0,0.0,0.0,0.0,0.0,0.0,0.0,0.0,0.0,0.0,0.0,0.0,0.0,0.0,0.0,0.0,0.0,0.0,0.0,0.0,0.0,0.0,0.0,0.0,0.0,0.0,0.0,0.0,0.0,0.0,0.0,0.0,0.0,0.0,0.0,0.0,0.0,0.0,0.0,0.0,0.0,0.0,0.0,0.0,0.0,0.0,0.0,0.0,0.0,0.0,0.0,0.0,0.0,0.0,0.0,0.0,0.0,0.0,0.0,0.0,0.0,0.0,0.0,0.0,0.0,0.0,0.0,0.0,0.0,0.0,0.0,0.0,0.0,0.0,0.0,0.0,0.0,0.0,0.0,-5.1548,-5.1497,-5.1726,-5.1635,-5.1395,-5.0914,0.0,0.0,0.0,0.0,0.0,0.0,0.0,0.0,0.0,0.0,0.0,0.0,0.0,0.0,0.0,0.0,0.0,0.0,0.0,0.0,0.0,0.0,0.0,0.0,0.0,0.0,0.0,0.0,0.0,0.0,0.0,0.0,0.0,0.0,0.0,0.0,0.0,0.0,0.0,0.0,0.0,0.0,0.0,0.0,0.0,0.0,0.0,0.0,0.0,0.0,0.0,0.0,0.0,0.0,0.0,0.0,0.0,0.0,0.0,0.0,0.0,0.0,0.0,0.0,0.0,0.0,0.0,0.0,0.0,0.0,0.0,0.0,0.0,0.0,0.0,0.0,0.0,0.0,0.0,0.0,0.0,0.0,0.0,0.0,0.0,0.0,0.0,0.0,0.0,0.0,0.0,0.0,0.0,0.0,0.0,0.0,0.0,0.0,0.0,0.0,0.0,0.0,0.0,0.0,0.0,0.0,0.0,0.0,-5.2295,-5.1599,-5.1599,-5.2319,-5.2174,-5.1707,0.0,0.0,0.0,0.0,0.0,0.0,0.0,0.0,0.0,0.0,0.0,0.0,0.0,0.0,0.0,0.0,0.0,0.0,0.0,0.0,0.0,0.0,0.0,0.0,0.0,0.0,0.0,0.0,0.0,0.0,0.0,0.0,0.0,0.0,0.0,0.0,0.0,0.0,0.0,0.0,0.0,0.0,0.0,0.0,0.0,0.0,0.0,0.0,0.0,0.0,0.0,0.0,0.0,0.0,0.0,0.0,0.0,0.0,0.0,0.0,0.0,0.0,0.0,0.0,0.0,0.0,0.0,0.0,0.0,0.0,0.0,0.0,0.0,0.0,0.0,0.0,0.0,0.0,0.0,0.0,0.0,0.0,0.0,0.0,0.0,0.0,0.0,0.0,0.0,0.0,0.0,0.0,0.0,0.0,0.0,0.0,0.0,0.0,0.0,0.0,0.0,0.0,0.0,0.0,0.0,0.0,0.0,0.0,0.0,-5.0827,-5.1054,-5.1571,-5.2329,-5.1817,-5.1386,0.0,0.0,0.0,0.0,0.0,0.0,0.0,0.0,0.0,0.0,0.0,0.0,0.0,0.0,0.0,0.0,0.0,0.0,0.0,0.0,0.0,0.0,0.0,0.0,0.0,0.0,0.0,0.0,0.0,0.0,0.0,0.0,0.0,0.0,0.0,0.0,0.0,0.0,0.0,0.0,0.0,0.0,0.0,0.0,0.0,0.0,0.0,0.0,0.0,0.0,0.0,0.0,0.0,0.0,0.0,0.0,0.0,0.0,0.0,0.0,0.0,0.0,0.0,0.0,0.0,0.0,0.0,0.0,0.0,0.0,0.0,0.0,0.0,0.0,0.0,0.0,0.0,0.0,0.0,0.0,0.0,0.0,0.0,0.0,0.0,0.0,0.0,0.0,0.0,0.0,0.0,0.0,0.0,0.0,0.0,0.0,0.0,0.0,0.0,0.0,0.0,0.0,0.0,0.0,0.0,0.0,0.0,0.0,0.0,-5.0402,0.0,-5.1557,-5.2064,-5.1568,-5.1147,0.0,0.0,0.0,0.0,0.0,0.0,0.0,0.0,0.0,0.0,0.0,0.0,0.0,0.0,0.0,0.0,0.0,0.0,0.0,0.0,0.0,0.0,0.0,0.0,0.0,0.0,0.0,0.0,0.0,0.0,0.0,0.0,0.0,0.0,0.0,0.0,0.0,0.0,0.0,0.0,0.0,0.0,0.0,0.0,0.0,0.0,0.0,0.0,0.0,0.0,0.0,0.0,0.0,0.0,0.0,0.0,0.0,0.0,0.0,0.0,0.0,0.0,0.0,0.0,0.0,0.0,0.0,0.0,0.0,0.0,0.0,0.0,0.0,0.0,0.0,0.0,0.0,0.0,0.0,0.0,0.0,0.0,0.0,0.0,0.0,0.0,0.0,0.0,0.0,0.0,0.0,0.0,0.0,0.0,0.0,0.0,0.0,0.0,0.0,0.0,0.0,0.0,0.0,0.0,0.0,0.0,0.0,0.0,-5.0402,-5.1332,-5.1497,-5.1596,-5.1532,-5.1472,-5.0963,0.0,0.0,0.0,0.0,0.0,0.0,0.0,0.0,0.0,0.0,0.0,0.0,0.0,0.0,0.0,0.0,0.0,0.0,0.0,0.0,0.0,0.0,0.0,0.0,0.0,0.0,0.0,0.0,0.0,0.0,0.0,0.0,0.0,0.0,0.0,0.0,0.0,0.0,0.0,0.0,0.0,0.0,0.0,0.0,0.0,0.0,0.0,0.0,0.0,0.0,0.0,0.0,0.0,0.0,0.0,0.0,0.0,0.0,0.0,0.0,0.0,0.0,0.0,0.0,0.0,0.0,0.0,0.0,0.0,0.0,0.0,0.0,0.0,0.0,0.0,0.0,0.0,0.0,0.0,0.0,0.0,0.0,0.0,0.0,0.0,0.0,0.0,0.0,0.0,0.0,0.0,0.0,0.0,0.0,0.0,0.0,0.0,0.0,0.0,0.0,0.0,0.0,0.0,0.0,0.0,0.0,0.0,0.0,0.0,-5.1383,-5.2056,-5.2396,-5.2396,-5.1764,-5.1268,0.0,0.0,0.0,0.0,0.0,0.0,0.0,0.0,0.0,0.0,0.0,0.0,0.0,0.0,0.0,0.0,0.0,0.0,0.0,0.0,0.0,0.0,0.0,0.0,0.0,0.0,0.0,0.0,0.0,0.0,0.0,0.0,0.0,0.0,0.0,0.0,0.0,0.0,0.0,0.0,0.0,0.0,0.0,0.0,0.0,0.0,0.0,0.0,0.0,0.0,0.0,0.0,0.0,0.0,0.0,0.0,0.0,0.0,0.0,0.0,0.0,0.0,0.0,0.0,0.0,0.0,0.0,0.0,0.0,0.0,0.0,0.0,0.0,0.0,0.0,0.0,0.0,0.0,0.0,0.0,0.0,0.0,0.0,0.0,0.0,0.0,0.0,0.0,0.0,0.0,0.0,0.0,0.0,0.0,0.0,0.0,0.0,0.0,0.0,0.0,0.0,0.0,0.0,0.0,0.0,0.0,0.0,0.0,0.0,-5.1838,-5.2438,-5.2626,-5.2391,-5.1688,-5.1218,-5.0964,0.0,0.0,0.0,0.0,0.0,0.0,0.0,0.0,0.0,0.0,0.0,0.0,0.0,0.0,0.0,0.0,0.0,0.0,0.0,0.0,0.0,0.0,0.0,0.0,0.0,0.0,0.0,0.0,0.0,0.0,0.0,0.0,0.0,0.0,0.0,0.0,0.0,0.0,0.0,0.0,0.0,0.0,0.0,0.0,0.0,0.0,0.0,0.0,0.0,0.0,0.0,0.0,0.0,0.0,0.0,0.0,0.0,0.0,0.0,0.0,0.0,0.0,0.0,0.0,0.0,0.0,0.0,0.0,0.0,0.0,0.0,0.0,0.0,0.0,0.0,0.0,0.0,0.0,0.0,0.0,0.0,0.0,0.0,0.0,0.0,0.0,0.0,0.0,0.0,0.0,0.0,0.0,0.0,0.0,0.0,0.0,0.0,0.0,0.0,0.0,0.0,0.0,0.0,0.0,0.0,0.0,0.0,0.0,-5.262,-5.2741,-5.2589,-5.1962,-5.151,-5.0988,0.0,0.0,0.0,0.0,0.0,0.0,0.0,0.0,0.0,0.0,0.0,0.0,0.0,0.0,0.0,0.0,0.0,0.0,0.0,0.0,0.0,0.0,0.0,0.0,0.0,0.0,0.0,0.0,0.0,0.0,0.0,0.0,0.0,0.0,0.0,0.0,0.0,0.0,0.0,0.0,0.0,0.0,0.0,0.0,0.0,0.0,0.0,0.0,0.0,0.0,0.0,0.0,0.0,0.0,0.0,0.0,0.0,0.0,0.0,0.0,0.0,0.0,0.0,0.0,0.0,0.0,0.0,0.0,0.0,0.0,0.0,0.0,0.0,0.0,0.0,0.0,0.0,0.0,0.0,0.0,0.0,0.0,0.0,0.0,0.0,0.0,0.0,0.0,0.0,0.0,0.0,0.0,0.0,0.0,0.0,0.0,0.0,0.0,0.0,0.0,0.0,0.0,0.0,0.0,0.0,0.0,0.0,0.0,0.0,-5.3684,-5.4243,-5.4447,-5.4269,-5.2905,-5.2115,0.0,0.0,0.0,0.0,0.0,0.0,0.0,0.0,0.0,0.0,0.0,0.0,0.0,0.0,0.0,0.0,0.0,0.0,0.0,0.0,0.0,0.0,0.0,0.0,0.0,0.0,0.0,0.0,0.0,0.0,0.0,0.0,0.0,0.0,0.0,0.0,0.0,0.0,0.0,0.0,0.0,0.0,0.0,0.0,0.0,0.0,0.0,0.0,0.0,0.0,0.0,0.0,0.0,0.0,0.0,0.0,0.0,0.0,0.0,0.0,0.0,0.0,0.0,0.0,0.0,0.0,0.0,0.0,0.0,0.0,0.0,0.0,0.0,0.0,0.0,0.0,0.0,0.0,0.0,0.0,0.0,0.0,0.0,0.0,0.0,0.0,0.0,0.0,0.0,0.0,0.0,0.0,0.0,0.0,0.0,0.0,0.0,0.0,0.0,0.0,0.0,0.0,0.0,0.0,0.0,0.0,0.0,0.0,-5.3115,-5.3989,-5.4632,-5.5061,-5.5183,-5.4202,-5.3337,0.0,0.0,0.0,0.0,0.0,0.0,0.0,0.0,0.0,0.0,0.0,0.0,0.0,0.0,0.0,0.0,0.0,0.0,0.0,0.0,0.0,0.0,0.0,0.0,0.0,0.0,0.0,0.0,0.0,0.0,0.0,0.0,0.0,0.0,0.0,0.0,0.0,0.0,0.0,0.0,0.0,0.0,0.0,0.0,0.0,0.0,0.0,0.0,0.0,0.0,0.0,0.0,0.0,0.0,0.0,0.0,0.0,0.0,0.0,0.0,0.0,0.0,0.0,0.0,0.0,0.0,0.0,0.0,0.0,0.0,0.0,0.0,0.0,0.0,0.0,0.0,0.0,0.0,0.0,0.0,0.0,0.0,0.0,0.0,0.0,0.0,0.0,0.0,0.0,0.0,0.0,0.0,0.0,0.0,0.0,0.0,0.0,0.0,0.0,0.0,0.0,0.0,0.0,0.0,0.0,0.0,0.0,0.0,-5.3452,-5.4026,-5.4591,-5.5047,-5.5311,-5.5172,-5.4358,0.0,0.0,0.0,0.0,0.0,0.0,0.0,0.0,0.0,0.0,0.0,0.0,0.0,0.0,0.0,0.0,0.0,0.0,0.0,0.0,0.0,0.0,0.0,0.0,0.0,0.0,0.0,0.0,0.0,0.0,0.0,0.0,0.0,0.0,0.0,0.0,0.0,0.0,0.0,0.0,0.0,0.0,0.0,0.0,0.0,0.0,0.0,0.0,0.0,0.0,0.0,0.0,0.0,0.0,0.0,0.0,0.0,0.0,0.0,0.0,0.0,0.0,0.0,0.0,0.0,0.0,0.0,0.0,0.0,0.0,0.0,0.0,0.0,0.0,0.0,0.0,0.0,0.0,0.0,0.0,0.0,0.0,0.0,0.0,0.0,0.0,0.0,0.0,0.0,0.0,0.0,0.0,0.0,0.0,0.0,0.0,0.0,0.0,0.0,0.0,0.0,0.0,0.0,0.0,0.0,0.0,0.0,0.0,-5.4007,-5.4836,-5.5731,-5.6268,-5.6384,-5.4944,-5.3962,0.0,0.0,0.0,0.0,0.0,0.0,0.0,0.0,0.0,0.0,0.0,0.0,0.0,0.0,0.0,0.0,0.0,0.0,0.0,0.0,0.0,0.0,0.0,0.0,0.0,0.0,0.0,0.0,0.0,0.0,0.0,0.0,0.0,0.0,0.0,0.0,0.0,0.0,0.0,0.0,0.0,0.0,0.0,0.0,0.0,0.0,0.0,0.0,-5.0485,0.0,0.0,0.0,0.0,0.0,0.0,0.0,0.0,0.0,0.0,0.0,0.0,0.0,0.0,0.0,0.0,0.0,0.0,0.0,0.0,0.0,0.0,0.0,0.0,0.0,0.0,0.0,0.0,0.0,0.0,0.0,0.0,0.0,0.0,0.0,0.0,0.0,0.0,0.0,0.0,0.0,0.0,0.0,0.0,0.0,0.0,0.0,0.0,0.0,0.0,0.0,0.0,0.0,0.0,0.0,0.0,0.0,0.0,0.0,-5.4389,-5.5075,-5.5874,-5.6442,-5.6639,-5.5747,-5.5186,0.0,0.0,0.0,0.0,0.0,0.0,0.0,0.0,0.0,0.0,0.0,0.0,0.0,0.0,0.0,0.0,0.0,0.0,0.0,0.0,0.0,0.0,0.0,0.0,0.0,0.0,0.0,0.0,0.0,0.0,0.0,0.0,0.0,0.0,0.0,0.0,0.0,0.0,0.0,0.0,0.0,0.0,0.0,0.0,0.0,0.0,0.0,0.0,0.0,0.0,0.0,0.0,0.0,0.0,0.0,0.0,0.0,0.0,0.0,0.0,0.0,0.0,0.0,0.0,0.0,0.0,0.0,0.0,0.0,0.0,0.0,0.0,0.0,0.0,0.0,0.0,0.0,0.0,0.0,0.0,0.0,0.0,0.0,0.0,0.0,0.0,0.0,0.0,0.0,0.0,0.0,0.0,0.0,0.0,0.0,0.0,0.0,0.0,0.0,0.0,0.0,0.0,0.0,0.0,0.0,0.0,0.0,-5.3821,-5.4654,-5.5233,-5.5799,-5.6326,-5.669,-5.6727,-5.674,-5.674,0.0,0.0,0.0,0.0,0.0,0.0,0.0,0.0,0.0,0.0,0.0,0.0,0.0,0.0,0.0,0.0,0.0,0.0,0.0,0.0,0.0,0.0,0.0,0.0,0.0,0.0,0.0,0.0,0.0,0.0,0.0,0.0,0.0,0.0,0.0,0.0,0.0,0.0,-4.9898,-5.0598,0.0,0.0,0.0,0.0,0.0,0.0,0.0,0.0,-5.0989,0.0,0.0,0.0,0.0,0.0,0.0,0.0,0.0,0.0,0.0,0.0,0.0,0.0,0.0,0.0,0.0,0.0,0.0,0.0,0.0,0.0,0.0,0.0,0.0,0.0,0.0,0.0,0.0,0.0,0.0,0.0,0.0,0.0,0.0,0.0,0.0,0.0,0.0,0.0,0.0,0.0,0.0,0.0,0.0,0.0,0.0,0.0,0.0,0.0,0.0,0.0,0.0,0.0,0.0,0.0,0.0,-5.3958,-5.386,-5.4465,-5.5806,-5.6259,-5.6575,-5.6703,-5.686,-5.6978,-5.689,0.0,0.0,0.0,0.0,0.0,0.0,0.0,0.0,0.0,0.0,0.0,0.0,0.0,0.0,0.0,0.0,0.0,0.0,0.0,0.0,0.0,0.0,0.0,0.0,0.0,0.0,0.0,0.0,0.0,0.0,0.0,0.0,0.0,0.0,0.0,0.0,0.0,0.0,0.0,-5.1673,-5.2096,0.0,0.0,0.0,0.0,0.0,0.0,0.0,0.0,-5.2054,0.0,0.0,0.0,0.0,0.0,0.0,0.0,0.0,0.0,0.0,0.0,0.0,0.0,0.0,0.0,0.0,0.0,0.0,0.0,0.0,0.0,0.0,0.0,0.0,0.0,0.0,0.0,0.0,0.0,0.0,0.0,0.0,0.0,0.0,0.0,0.0,0.0,0.0,0.0,0.0,0.0,0.0,0.0,0.0,0.0,0.0,0.0,0.0,0.0,0.0,0.0,0.0,0.0,0.0,0.0,-5.3134,-5.4457,-5.5247,-5.5525,-5.6172,-5.6575,-5.6703,-5.6789,-5.6875,0.0,0.0,0.0,0.0,0.0,0.0,0.0,0.0,0.0,0.0,0.0,0.0,0.0,0.0,0.0,0.0,0.0,0.0,0.0,0.0,0.0,0.0,0.0,0.0,0.0,0.0,0.0,0.0,0.0,0.0,0.0,0.0,0.0,0.0,0.0,0.0,0.0,0.0,0.0,0.0,-5.1941,-5.2258,-5.3172,0.0,0.0,0.0,0.0,0.0,0.0,-5.2226,-5.2258,0.0,0.0,0.0,0.0,0.0,0.0,0.0,0.0,0.0,0.0,0.0,0.0,0.0,0.0,0.0,0.0,0.0,0.0,0.0,0.0,0.0,0.0,0.0,0.0,0.0,0.0,0.0,0.0,0.0,0.0,0.0,0.0,0.0,0.0,0.0,0.0,0.0,0.0,0.0,0.0,0.0,0.0,0.0,0.0,0.0,0.0,0.0,0.0,0.0,0.0,0.0,0.0,0.0,0.0,0.0,-5.2432,-5.477,-5.5822,-5.5502,-5.6001,-5.6359,-5.6496,-5.67,-5.6688,0.0,0.0,0.0,0.0,0.0,0.0,0.0,0.0,0.0,0.0,0.0,0.0,0.0,0.0,0.0,0.0,0.0,0.0,0.0,0.0,0.0,0.0,0.0,0.0,0.0,0.0,0.0,0.0,0.0,0.0,0.0,0.0,0.0,0.0,0.0,0.0,0.0,0.0,0.0,0.0,0.0,-5.2677,-5.3419,-5.3482,0.0,0.0,0.0,0.0,-5.3111,-5.3219,0.0,0.0,0.0,0.0,0.0,0.0,0.0,0.0,0.0,0.0,0.0,0.0,0.0,0.0,0.0,0.0,0.0,0.0,0.0,0.0,0.0,0.0,0.0,0.0,0.0,0.0,0.0,0.0,0.0,0.0,0.0,0.0,0.0,0.0,0.0,0.0,0.0,0.0,0.0,0.0,0.0,0.0,0.0,0.0,0.0,0.0,0.0,0.0,0.0,0.0,0.0,0.0,0.0,0.0,0.0,0.0,-5.3217,-5.4127,-5.5281,-5.6529,-5.6175,-5.5931,-5.591,-5.6669,-5.6686,0.0,0.0,0.0,0.0,0.0,0.0,0.0,0.0,0.0,0.0,0.0,0.0,0.0,0.0,0.0,0.0,0.0,0.0,0.0,0.0,0.0,0.0,0.0,0.0,0.0,0.0,0.0,0.0,0.0,0.0,0.0,0.0,0.0,0.0,0.0,0.0,0.0,0.0,0.0,0.0,0.0,-5.4213,-5.4276,-5.4259,-5.3975,0.0,0.0,-5.3883,-5.3299,-5.5483,0.0,0.0,0.0,0.0,0.0,0.0,0.0,0.0,0.0,0.0,0.0,0.0,0.0,0.0,0.0,0.0,0.0,0.0,0.0,0.0,0.0,0.0,0.0,0.0,0.0,0.0,0.0,0.0,0.0,0.0,0.0,0.0,0.0,0.0,0.0,0.0,0.0,0.0,0.0,0.0,0.0,0.0,0.0,0.0,0.0,0.0,0.0,0.0,0.0,0.0,0.0,0.0,0.0,0.0,0.0,-5.2281,-5.2938,-5.449,-5.5624,-5.6256,-5.6088,-5.5914,-5.5865,-5.6212,-5.6141,0.0,0.0,0.0,0.0,0.0,0.0,0.0,0.0,0.0,0.0,0.0,0.0,0.0,0.0,0.0,0.0,0.0,0.0,0.0,0.0,0.0,0.0,0.0,0.0,0.0,0.0,0.0,0.0,0.0,0.0,0.0,0.0,0.0,0.0,0.0,0.0,0.0,0.0,0.0,0.0,0.0,0.0,-5.4334,-5.4784,0.0,0.0,0.0,-5.4972,-5.4634,0.0,0.0,0.0,0.0,0.0,0.0,0.0,0.0,0.0,0.0,0.0,0.0,0.0,0.0,0.0,0.0,0.0,0.0,0.0,0.0,0.0,0.0,0.0,0.0,0.0,0.0,0.0,0.0,0.0,0.0,0.0,0.0,0.0,0.0,0.0,0.0,0.0,0.0,0.0,0.0,0.0,0.0,0.0,0.0,0.0,0.0,0.0,0.0,0.0,0.0,0.0,0.0,0.0,0.0,0.0,0.0,0.0,-5.2603,-5.4821,-5.598,-5.5943,-5.5971,-5.5971,-5.5924,-5.5914,0.0,0.0,0.0,0.0,0.0,0.0,0.0,0.0,0.0,0.0,0.0,0.0,0.0,0.0,0.0,0.0,0.0,0.0,0.0,0.0,0.0,0.0,0.0,0.0,0.0,0.0,0.0,-4.9736,0.0,0.0,0.0,0.0,0.0,0.0,0.0,0.0,0.0,0.0,0.0,0.0,0.0,0.0,-5.3795,-5.4351,-5.5067,-5.5293,0.0,0.0,-5.5518,-5.533,-5.5818,-5.6023,0.0,0.0,0.0,0.0,0.0,0.0,0.0,0.0,0.0,0.0,0.0,0.0,0.0,0.0,0.0,0.0,0.0,0.0,0.0,0.0,0.0,0.0,0.0,0.0,0.0,0.0,0.0,0.0,0.0,0.0,0.0,0.0,0.0,0.0,0.0,0.0,0.0,0.0,0.0,0.0,0.0,0.0,0.0,0.0,0.0,0.0,0.0,0.0,0.0,0.0,0.0,0.0,0.0,0.0,0.0,-5.2777,-5.4853,-5.6003,-5.5995,-5.6003,-5.6016,-5.6009,-5.6009,-5.5924,0.0,0.0,0.0,0.0,0.0,0.0,0.0,0.0,0.0,0.0,0.0,0.0,0.0,0.0,0.0,0.0,0.0,0.0,0.0,0.0,0.0,0.0,0.0,0.0,0.0,0.0,0.0,0.0,0.0,0.0,0.0,0.0,0.0,0.0,0.0,0.0,0.0,0.0,0.0,0.0,0.0,-5.4418,-5.4426,-5.5085,-5.5293,0.0,0.0,-5.533,-5.4597,-5.6419,-5.715,-5.4859,0.0,0.0,0.0,0.0,0.0,0.0,0.0,0.0,0.0,0.0,0.0,0.0,0.0,0.0,0.0,0.0,0.0,0.0,0.0,0.0,0.0,0.0,0.0,0.0,0.0,0.0,0.0,0.0,0.0,0.0,0.0,0.0,0.0,0.0,0.0,0.0,0.0,0.0,0.0,0.0,0.0,0.0,0.0,0.0,0.0,0.0,0.0,0.0,0.0,0.0,0.0,0.0,0.0,-5.2738,-5.2909,-5.4931,-5.6003,-5.6003,-5.6003,-5.6003,-5.5986,-5.6016,-5.595,0.0,0.0,0.0,0.0,0.0,0.0,0.0,0.0,0.0,0.0,0.0,0.0,0.0,0.0,0.0,0.0,0.0,0.0,0.0,0.0,0.0,0.0,0.0,0.0,0.0,0.0,0.0,0.0,-5.0203,-5.0453,-5.0525,0.0,0.0,0.0,0.0,0.0,0.0,0.0,0.0,0.0,0.0,-5.4493,-5.4426,-5.5085,0.0,0.0,-5.5067,-5.548,-5.518,-5.5931,-5.6231,-5.5293,-5.5272,0.0,0.0,0.0,0.0,0.0,0.0,0.0,0.0,0.0,0.0,0.0,0.0,0.0,0.0,0.0,0.0,0.0,0.0,0.0,0.0,0.0,0.0,0.0,0.0,0.0,0.0,0.0,0.0,0.0,0.0,0.0,0.0,0.0,0.0,0.0,0.0,0.0,0.0,0.0,0.0,0.0,0.0,0.0,0.0,0.0,0.0,0.0,0.0,0.0,0.0,0.0,0.0,-5.2786,-5.3015,-5.4979,-5.6003,-5.6003,-5.6003,-5.6003,-5.6003,-5.6003,-5.5986,0.0,0.0,0.0,0.0,0.0,0.0,0.0,0.0,0.0,0.0,0.0,0.0,0.0,0.0,0.0,0.0,0.0,0.0,0.0,0.0,0.0,0.0,0.0,0.0,0.0,0.0,0.0,0.0,-5.0406,-5.0604,-5.0589,0.0,0.0,0.0,0.0,0.0,0.0,0.0,0.0,0.0,0.0,-5.446,-5.4409,-5.4897,-5.5047,-5.4484,-5.4897,-5.5218,-5.5218,-5.5255,-5.5272,-5.5218,0.0,0.0,0.0,0.0,0.0,0.0,0.0,0.0,0.0,0.0,0.0,0.0,0.0,0.0,0.0,0.0,0.0,0.0,0.0,0.0,0.0,0.0,0.0,0.0,0.0,0.0,0.0,0.0,0.0,0.0,-5.2266,0.0,0.0,0.0,0.0,0.0,0.0,0.0,0.0,0.0,0.0,0.0,0.0,0.0,0.0,0.0,0.0,0.0,0.0,0.0,0.0,0.0,0.0,-5.2786,-5.3015,-5.4988,-5.6003,-5.6003,-5.6003,-5.6003,-5.6003,-5.6003,-5.5986,-5.6018,0.0,0.0,0.0,0.0,0.0,0.0,0.0,0.0,0.0,0.0,0.0,0.0,0.0,0.0,0.0,0.0,0.0,0.0,0.0,0.0,0.0,0.0,0.0,0.0,0.0,0.0,-5.1396,-5.0634,-5.01,0.0,0.0,0.0,0.0,0.0,0.0,0.0,0.0,0.0,0.0,-5.4371,-5.4409,-5.4409,-5.4409,-5.4446,-5.4409,-5.4409,-5.4446,-5.4446,-5.4446,-5.4446,0.0,0.0,0.0,0.0,0.0,0.0,0.0,0.0,0.0,0.0,0.0,0.0,0.0,0.0,0.0,0.0,0.0,0.0,0.0,0.0,0.0,0.0,0.0,0.0,0.0,0.0,0.0,-5.5758,-5.4867,0.0,0.0,0.0,0.0,0.0,0.0,0.0,0.0,0.0,0.0,0.0,-5.5186,-5.5334,0.0,0.0,0.0,0.0,0.0,0.0,0.0,0.0,0.0,0.0,0.0,0.0,-5.3009,-5.3263,-5.5044,-5.6003,-5.6003,-5.6003,-5.6003,-5.6003,-5.6003,-5.5986,-5.6018,0.0,0.0,0.0,0.0,0.0,0.0,0.0,0.0,0.0,0.0,0.0,0.0,0.0,0.0,0.0,0.0,0.0,0.0,0.0,0.0,0.0,0.0,0.0,0.0,0.0,-5.3124,0.0,0.0,0.0,0.0,0.0,0.0,0.0,0.0,0.0,0.0,0.0,-5.4409,-5.4409,-5.4409,-5.4409,-5.4409,-5.4409,-5.4409,0.0,0.0,0.0,0.0,0.0,0.0,0.0,0.0,0.0,0.0,0.0,0.0,0.0,0.0,-5.5668,-5.4562,-5.4357,-5.4357,-5.4285,0.0,0.0,0.0,0.0,0.0,0.0,0.0,0.0,0.0,0.0,0.0,0.0,0.0,0.0,0.0,0.0,-5.5822,0.0,0.0,0.0,0.0,0.0,0.0,0.0,0.0,-5.5637,-5.5668,-5.5489,-5.5679,-5.563,0.0,-5.5477,-5.5174,0.0,0.0,0.0,0.0,0.0,0.0,0.0,0.0,-5.3269,-5.3783,-5.5234,-5.6003,-5.6003,-5.6003,-5.6003,-5.6003,-5.6003,-5.5995,-5.5998,-5.5448,-5.5121,0.0,0.0,0.0,0.0,0.0,0.0,0.0,0.0,0.0,0.0,0.0,0.0,0.0,0.0,0.0,0.0,0.0,0.0,0.0,0.0,0.0,0.0,0.0,-5.3859,0.0,0.0,0.0,0.0,0.0,0.0,0.0,0.0,0.0,-5.4409,-5.4409,-5.4409,-5.4409,-5.4409,-5.4409,-5.4409,0.0,0.0,0.0,0.0,0.0,0.0,0.0,-5.4484,-5.4784,-5.5255,-5.5668,-5.6006,-5.6286,-5.6436,-5.6474,0.0,0.0,-5.5348,-5.5272,-5.5272,-5.5272,-5.4822,-5.4801,-5.5836,-5.5235,-5.4709,0.0,0.0,0.0,0.0,0.0,0.0,0.0,0.0,-5.6114,-5.6445,0.0,-5.6071,0.0,0.0,0.0,0.0,0.0,0.0,0.0,0.0,-5.5884,-5.6003,-5.6003,-5.6003,-5.6003,-5.6003,-5.5995,-5.5959,-5.5827,-5.4693,0.0,0.0,0.0,0.0,0.0,0.0,-5.3619,-5.4564,-5.5504,-5.6003,-5.6003,-5.6003,-5.6003,-5.6003,-5.6003,-5.6003,-5.6003,-5.6007,-5.598,-5.598,-5.5123,0.0,0.0,0.0,0.0,0.0,0.0,0.0,0.0,0.0,0.0,0.0,0.0,0.0,0.0,0.0,0.0,0.0,0.0,0.0,0.0,-5.3832,0.0,0.0,0.0,0.0,0.0,0.0,0.0,0.0,0.0,0.0,-5.4409,-5.4409,-5.4409,-5.4409,0.0,0.0,0.0,0.0,-5.4409,-5.4409,-5.4409,-5.4409,-5.4409,-5.4409,-5.4672,-5.5405,0.0,0.0,-5.6737,-5.6211,-5.5706,-5.563,-5.516,-5.4972,-5.6587,-5.6662,-5.6662,-5.6662,-5.6549,-5.6774,-5.6849,-5.6604,-5.6454,-5.7907,0.0,0.0,0.0,0.0,-5.6652,-5.7271,-5.7869,-5.786,-5.7939,-5.8066,-5.7168,0.0,0.0,0.0,0.0,0.0,0.0,-5.5679,-5.5884,-5.5986,-5.6003,-5.6003,-5.6003,-5.6003,-5.6003,-5.6003,-5.5995,-5.5968,-5.5634,-5.4843,-5.3622,0.0,0.0,0.0,0.0,-5.4332,-5.477,-5.5569,-5.6003,-5.6003,-5.6003,-5.6003,-5.6003,-5.6003,-5.6003,-5.6003,-5.5995,-5.5986,-5.5986,-5.5748,0.0,0.0,0.0,0.0,0.0,0.0,0.0,0.0,0.0,0.0,0.0,0.0,0.0,0.0,0.0,0.0,0.0,0.0,0.0,-5.5127,-5.5174,-5.5018,0.0,0.0,0.0,0.0,0.0,0.0,0.0,0.0,0.0,-5.4426,-5.4409,-5.4409,0.0,0.0,-5.4409,-5.4409,-5.4409,-5.4409,-5.4409,0.0,0.0,0.0,-5.4409,-5.4484,-5.4709,-5.5218,-5.5893,-5.6737,-5.6699,-5.6512,-5.6512,-5.6361,-5.6361,-5.6699,-5.5911,-5.5197,-5.5122,-5.5174,-5.5413,-5.5977,-5.611,-5.6223,-5.8758,-5.7018,-5.7018,-5.7056,-5.7095,-5.7598,-5.8139,-5.8604,-5.8604,-5.8604,-5.8526,-5.7675,-5.6907,-5.6261,-5.5864,0.0,0.0,0.0,-5.5827,-5.6003,-5.6003,-5.6003,-5.6003,-5.6003,-5.6003,-5.6003,-5.6003,-5.6003,-5.6003,-5.6003,-5.568,-5.5027,0.0,0.0,-5.3885,-5.4425,-5.4877,-5.5277,-5.5741,-5.6003,-5.6003,-5.6003,-5.6003,-5.6003,-5.6003,-5.6003,-5.6003,-5.6003,-5.6003,-5.6003,-5.6016,-5.5611,0.0,0.0,0.0,0.0,0.0,0.0,0.0,0.0,0.0,0.0,0.0,-5.2192,0.0,0.0,0.0,0.0,-5.4101,-5.51,-5.5665,-5.5638,0.0,0.0,0.0,0.0,0.0,0.0,0.0,-5.4034,-5.4481,-5.4769,-5.4554,-5.4522,-5.4489,-5.4426,-5.4409,-5.4409,-5.4409,0.0,-5.4409,-5.4409,-5.4409,-5.4409,-5.4409,-5.4409,-5.4521,-5.4859,-5.5555,-5.6249,-5.6737,-5.6624,-5.6399,-5.6361,-5.6136,-5.5911,-5.5911,-5.5085,-5.4634,-5.5272,-5.5437,-5.5734,-5.6544,-5.6694,-5.6882,-5.9532,-5.8797,-5.8797,-5.872,-5.8604,-5.869,-5.869,-5.869,-5.8729,-5.8729,-5.8642,-5.7714,-5.7241,-5.7125,-5.6309,0.0,-5.5924,-5.5924,-5.5932,-5.6003,-5.6003,-5.6003,-5.6003,-5.6003,-5.6003,-5.6003,-5.6003,-5.6003,-5.6003,-5.6003,-5.6003,-5.5965,-5.5277,-5.489,-5.489,-5.489,-5.5277,-5.6003,-5.6003,-5.6003,-5.6003,-5.6003,-5.6003,-5.6003,-5.6003,-5.6003,-5.6003,-5.6003,-5.6003,-5.6003,-5.6003,-5.5647,-5.4877,0.0,0.0,0.0,0.0,0.0,0.0,0.0,0.0,0.0,0.0,0.0,0.0,0.0,0.0,0.0,-5.5252,0.0,-5.5714,-5.557,0.0,0.0,0.0,-5.5143,-5.5168,-5.5154,-5.5102,-5.5088,0.0,0.0,-5.4738,0.0,-5.4645,-5.4443,-5.4409,-5.4409,-5.4409,-5.4409,-5.4409,-5.4409,-5.4409,-5.4409,-5.4409,-5.4409,-5.4597,-5.5255,-5.6174,-5.6549,-5.6549,-5.6061,-5.5555,-5.5518,-5.4934,-5.4446,-5.4446,-5.4446,-5.4897,-5.6286,-5.6567,-5.6867,-5.7506,-5.7769,-5.7844,-6.0692,-6.0499,-6.0499,-5.9764,-5.8651,-5.93,-5.9571,-5.9609,-5.9571,-5.9571,-5.9493,-5.7985,-5.6932,-5.6313,-5.6063,-5.5977,-5.5977,-5.5977,-5.5986,-5.6003,-5.6003,-5.6003,-5.6003,-5.6003,-5.6003,-5.6003,-5.6003,-5.6003,-5.6003,-5.6003,-5.6003,-5.5965,-5.5818,-5.5702,-5.5702,-5.5741,-5.5818,-5.6003,-5.6003,-5.6003,-5.6003,-5.6003,-5.6003,-5.6003,-5.6003,-5.6003,-5.6003,-5.6003,-5.6003,-5.6003,-5.6003,-5.5926,-5.5685,-5.5105,0.0,0.0,0.0,0.0,0.0,0.0,0.0,0.0,0.0,-5.3918,-5.334,0.0,-5.4916,0.0,-5.5265,-5.5787,-5.5855,-5.5825,0.0,0.0,-5.5724,-5.566,-5.5485,-5.5463,-5.5339,-5.5145,-5.5249,-5.517,-5.4769,-5.4874,-5.4844,-5.4476,-5.4409,-5.4409,-5.4409,-5.4409,-5.4409,-5.4409,-5.4409,-5.4409,-5.4409,-5.4409,-5.4484,-5.4672,-5.4897,-5.4972,-5.501,-5.4859,-5.4672,-5.4672,-5.4559,-5.4409,-5.4409,-5.4409,-5.4521,-5.4897,-5.5023,-5.5337,-5.6165,-5.6842,-5.7444,-6.1118,-6.1118,-6.1118,-6.0576,-5.9725,-6.0228,-6.0422,-6.0422,-6.0422,-6.0035,-5.9223,-5.7482,-5.6476,-5.6003,-5.6003,-5.6003,-5.6003,-5.6003,-5.6003,-5.6003,-5.6003,-5.6197,-5.6553,-5.6158,-5.6197,-5.6553,-5.6197,-5.6003,-5.6003,-5.6003,-5.6003,-5.6003,-5.6003,-5.6003,-5.6003,-5.6003,-5.6003,-5.6003,-5.6003,-5.6003,-5.6003,-5.6003,-5.6003,-5.6003,-5.6003,-5.6003,-5.6003,-5.6003,-5.6003,-5.6003,-5.6003,-5.6003,-5.6003,-5.5586,-5.52,0.0,0.0,0.0,0.0,0.0,0.0,0.0,0.0,0.0,0.0,0.0,-5.5594,0.0,-5.5547,-5.5827,-5.5895,-5.5895,-5.5895,-5.5895,-5.5895,-5.5865,-5.5735,-5.5703,-5.5599,-5.547,-5.5531,-5.5375,-5.4966,-5.5019,-5.4947,-5.4565,-5.4538,-5.4505,-5.4405,-5.4409,-5.4409,-5.4409,-5.4409,-5.4409,-5.4409,-5.4409,-5.4409,-5.4409,-5.4409,-5.4409,-5.4409,-5.4409,-5.4409,-5.4409,-5.4409,-5.4409,-5.4409,-5.4409,-5.4409,-5.4426,-5.4405,-5.4777,-5.5529,-5.6356,-5.7126,-6.1118,-6.1118,-6.1118,-6.1118,-6.1118,-6.1118,-6.1118,-6.1118,-6.1118,-6.0151,-5.8535,-5.7018,-5.6205,-5.6003,-5.6003,-5.6003,-5.6003,-5.6128,-5.6158,-5.6167,-5.6283,-5.6661,-5.7241,-5.6622,-5.667,-5.7241,-5.6553,-5.6158,-5.6158,-5.6051,-5.6003,-5.6003,-5.6003,-5.6003,-5.6003,-5.6003,-5.6003,-5.6003,-5.6003,-5.6003,-5.6003,-5.6003,-5.6003,-5.6003,-5.6003,-5.6003,-5.6003,-5.6003,-5.6003,-5.6003,-5.6003,-5.6003,-5.6003,-5.6003,-5.5664,0.0,-5.5625,0.0,0.0,0.0,0.0,0.0,0.0,0.0,0.0,-5.5905,-5.5905,-5.5905,-5.5905,-5.5914,-5.5914,-5.5914,-5.5914,-5.5914,-5.5914,-5.5914,-5.5914,-5.5914,-5.5905,-5.5905,-5.5865,-5.5643,-5.5212,-5.5132,-5.5047,-5.4814,-5.4754,-5.4692,-5.4538,-5.4472,-5.4476,-5.4426,-5.4409,-5.4409,-5.4409,-5.4409,-5.4409,-5.4409,-5.4409,-5.4409,-5.4409,-5.4409,-5.4409,-5.4409,-5.4409,-5.4409,-5.4409,-5.4409,-5.4409,-5.4409,-5.4409,-5.4672,-5.5423,-5.6136,-5.6737,-6.1118,-6.1118,-6.1118,-6.1118,-6.1118,-6.1118,-6.1118,-6.1118,-6.1118,-6.0151,-5.8604,-5.8264,-5.7327,-5.6051,-5.6003,-5.6003,-5.6051,-5.6738,-5.7048,-5.7095,-5.7791,-5.7791,-5.7357,-5.7869,-5.783,-5.7318,-5.7134,-5.7048,-5.7048,-5.6351,-5.6003,-5.6003,-5.6003,-5.6003,-5.6003,0.0,0.0,0.0,-5.6003,-5.6003,-5.6003,-5.6003,-5.6003,-5.6003,-5.6003,0.0,-5.6003,-5.6003,-5.6003,-5.6003,-5.6003,0.0,0.0,0.0,0.0,0.0,0.0,0.0,0.0,0.0,0.0,0.0,-5.5909,-5.5959,-5.5961,-5.5961,-5.5961,-5.6,-5.5961,-5.598,-5.5977,-5.5986,-5.5977,-5.5986,-5.5977,-5.5977,-5.5977,-5.5989,-5.6,-5.6,-5.5914,-5.5756,-5.5485,-5.5413,-5.5314,-5.5061,-5.5019,-5.5004,-5.4985,-5.4769,-5.4565,-5.4422,-5.4409,-5.4409,-5.4409,-5.4409,-5.4409,-5.4409,-5.4409,-5.4409,-5.4409,-5.4409,-5.4409,-5.4409,-5.4409,-5.4409,-5.4409,-5.4409,-5.4409,-5.4409,-5.4409,-5.4634,-5.5443,-5.5706,-5.6061,-6.1118,0.0,-6.1118,-6.1118,0.0,-6.1118,-6.1118,-6.1118,-6.1118,-6.0422,-5.9232,-5.8797,-5.8101,-5.7288,-5.7288,-5.7288,-5.7288,-5.7753,-5.7946,-5.7985,-5.841,-5.8565,-5.8565,-5.8604,-5.8604,-5.8565,-5.7705,-5.7318,-5.7241,-5.6437,-5.6003,-5.6003,-5.6003,-5.6003,-5.6003,-5.6003,-5.6003,-5.6003,-5.6003,-5.6003,-5.6003,-5.6003,-5.6003,-5.6003,0.0,0.0,0.0,0.0,0.0,0.0,0.0,0.0,0.0,0.0,0.0,-5.6003,-5.6003,-5.6003,-5.6003,-5.6003,-5.6003,-5.6003,-5.6003,-5.5995,-5.6016,-5.6007,-5.6016,-5.6007,-5.6016,-5.5986,-5.6003,-5.6003,-5.6003,-5.6003,-5.6003,-5.6003,-5.6003,-5.5986,-5.6007,-5.6007,-5.5971,-5.5865,-5.5561,-5.552,-5.5437,-5.5314,-5.5249,-5.5236,-5.5197,-5.4933,-5.4629,-5.4422,-5.4409,-5.4409,-5.4409,-5.4409,-5.4409,-5.4409,-5.4409,-5.4409,-5.4409,-5.4409,-5.4409,-5.4409,-5.4409,-5.4409,-5.4409,-5.4409,-5.4409,-5.4409,-5.4409,-5.4521,-5.4972,-5.5293,-5.5593,-6.1118,-6.1118,-6.1118,-6.1118,-6.1118,-6.1118,-6.1118,-6.1118,0.0,0.0,0.0,-5.9145,-5.8729,-5.8604,-5.8604,-5.8604,-5.8604,-5.8767,-5.8845,-5.8845,-5.8999,-5.9339,-5.9841,-5.93,-5.9339,-5.9803,-5.8449,-5.7744,-5.7705,-5.6902,-5.6476,-5.6437,-5.6313,-5.6158,-5.6003,-5.6003,-5.6003,-5.6003,-5.6003,-5.6003,-5.6003,-5.6003,-5.6003,-5.6003,-5.6003,-5.6003,-5.6003,-5.6003,-5.6003,-5.6003,-5.6003,-5.6003,-5.6003,-5.6003,-5.6003,-5.6003,-5.6003,-5.6003,-5.6003,-5.6003,-5.6003,-5.6003,-5.6003,-5.6003,-5.6003,-5.6003,-5.6003,-5.6003,-5.6003,-5.6003,-5.6003,-5.6003,-5.6003,-5.6003,-5.6003,-5.6003,-5.6003,-5.6003,-5.6003,-5.6003,-5.6007,-5.5943,-5.5728,-5.5632,-5.5593,-5.5531,-5.5485,-5.5401,-5.5301,-5.4976,-5.4629,-5.446,-5.4409,-5.4409,-5.4409,-5.4409,-5.4409,-5.4409,-5.4409,-5.4409,-5.4409,-5.4409,-5.4409,-5.4409,-5.4409,-5.4409,-5.4409,-5.4409,-5.4409,-5.4409,-5.4409,-5.4446,-5.4634,-5.516,-5.533,-6.1118,-6.1118,-6.1118,-6.1118,-6.1118,-6.1118,-6.1118,-6.1118,-6.1118,-6.0654,-5.988,-5.9764,-5.9309,-5.8604,-5.8604,-5.8604,-5.8651,-5.9377,-5.9725,0.0,-6.0422,-6.046,-5.9919,-6.0499,-6.046,-5.9919,-5.9648,-5.9532,-5.9455,-5.8604,-5.8264,-5.8139,-5.7482,-5.6738,-5.6051,-5.6003,-5.6003,-5.6003,-5.6003,-5.6003,-5.6003,-5.6003,-5.6003,-5.6003,-5.6003,-5.6003,-5.6003,-5.6003,-5.6003,-5.6003,-5.6003,-5.6003,-5.6003,-5.6003,-5.6003,-5.6003,-5.6003,-5.6003,-5.6003,-5.6003,-5.6003,-5.6003,-5.6003,-5.6003,-5.6003,-5.6003,-5.6003,-5.6003,-5.6003,-5.6003,-5.6003,-5.6003,-5.6003,-5.6003,-5.6003,-5.6003,-5.6003,-5.6003,-5.6003,-5.6003,-5.6003,-5.6016,-5.5952,-5.5924,-5.5865,-5.5776,-5.5714,-5.5615,-5.5223,-5.4903,-5.4629,-5.4439,-5.4409,-5.4409,-5.4476,-5.4409,-5.446,-5.4409,-5.4426,-5.4443,-5.4443,-5.4501,-5.4484,-5.4446,-5.4559,-5.4559,-5.4521,-5.4409,-5.4559,-5.4597,-5.4597,-5.4747,-5.5293,-5.5593,-5.5423,-6.1118,-6.1118,-6.1118,-6.1118,-6.1118,-6.1118,-6.1118,-6.1118,-6.1118,-6.0886,-6.0576,-6.0576,-6.0344,-5.9957,-5.9957,-5.9957,-5.9957,-6.0383,-6.0538,-6.0576,-6.0925,-6.0886,-6.0615,-6.0925,-6.0925,-6.0538,-6.0074,-5.9919,-5.9803,-5.9038,-5.8604,-5.8565,-5.8178,-5.7791,-5.7443,-5.7404,-5.7404,-5.7366,-5.6476,-5.6003,-5.6003,-5.6003,-5.6003,-5.6003,-5.6003,-5.6003,-5.6003,-5.6003,-5.6003,-5.6003,-5.6003,-5.6003,-5.6003,-5.6003,-5.6003,-5.6003,-5.6003,-5.6003,-5.6003,-5.6003,-5.6003,-5.6003,-5.6003,-5.6003,-5.6003,-5.6003,-5.6003,-5.6003,-5.6003,-5.6003,-5.6003,-5.6003,-5.6003,-5.6003,-5.6003,-5.6003,-5.6003,-5.6003,-5.6003,-5.6003,-5.6003,-5.5995,-5.6016,-5.5989,-5.5952,-5.5875,-5.5787,-5.5638,-5.5339,-5.517,-5.4962,-5.4645,-5.4661,-5.4791,-5.4791,-5.4791,-5.4791,-5.4791,-5.4667,-5.4565,-5.4608,-5.479,-5.501,-5.5122,-5.5385,-5.5723,-5.5723,-5.5761,-5.5761,-5.5761,-5.5761,-5.5948,-5.6249,-5.6324,-5.6174,-6.1118,-6.1118,-6.1118,-6.1118,-6.1118,-6.1118,-6.1118,-6.1118,-6.1118,-6.1118,-6.1118,-6.1118,-6.1118,-6.1118,-6.1118,-6.1079,-6.1118,-6.1118,-6.1079,-6.1118,-6.1118,-6.1118,-6.1118,-6.1118,-6.1118,-6.1041,-6.046,-6.0151,-6.0074,-5.9493,-5.9068,-5.8913,-5.8874,-5.8806,-5.8604,-5.8604,-5.8604,-5.8488,-5.7288,-5.6476,-5.6283,-5.6321,-5.6197,-5.6003,-5.6003,-5.6003,-5.6003,-5.6003,-5.6003,-5.6003,-5.6003,-5.6003,-5.6003,-5.6003,-5.6003,-5.6003,-5.6003,-5.6003,-5.6003,-5.6003,-5.6003,-5.6003,-5.6003,-5.6003,-5.6003,-5.6003,-5.6003,-5.6003,-5.6003,-5.6003,-5.6003,-5.6003,-5.6003,-5.6003,-5.6003,-5.6003,-5.6003,-5.6003,-5.6003,-5.6003,-5.6158,-5.6321,-5.6313,-5.6441,-5.6636,-5.658,-5.6385,-5.622,-5.6036,-5.6012,-5.5862,-5.5555,-5.5423,-5.5503,-5.5583,-5.5708,-5.5746,-5.5646,-5.535,-5.5178,-5.5123,-5.5287,-5.5437,-5.5515,-5.6061,-5.6474,-5.6774,-5.6812,-5.6774,-5.6699,-5.6662,-5.6849,-5.7112,-5.7375,-5.7225,-6.1118,-6.1118,-6.1118,-6.1118,-6.1118,-6.1118,-6.1118,-6.1118,-6.1118,-6.1118,-6.1118,-6.1118,-6.1118,-6.1118,-6.1118,-6.1118,-6.1118,-6.1118,-6.1118,-6.1118,-6.1118,-6.1118,-6.1118,-6.1118,-6.1118,-6.1079,-6.1002,-6.0925,-6.0925,-6.0847,-6.046,-5.9841,-5.9764,-5.9377,-5.872,-5.8642,-5.8604,-5.8604,-5.8458,-5.7985,-5.725,-5.7164,-5.6777,-5.6003,-5.6003,-5.6003,-5.6003,-5.6003,-5.6003,-5.6003,-5.6003,-5.6003,-5.6003,-5.6003,-5.6003,-5.6003,-5.6003,-5.6003,-5.6003,-5.6003,-5.6003,-5.6003,-5.6051,-5.6042,-5.6051,-5.6051,-5.6003,-5.6081,-5.6042,-5.6003,-5.6003,-5.6051,-5.6128,-5.6235,-5.6167,-5.6003,-5.6128,-5.6003,-5.6003,-5.6003,-5.6786,-5.7164,-5.7241,-5.7705,-5.819,-5.7989,-5.7882,-5.7741,-5.7562,-5.7609,-5.7735,-5.7417,-5.6878,-5.6615,-5.7073,-5.7349,-5.7215,-5.7187,-5.6649,-5.6221,-5.5921,-5.5495,-5.4991,-5.6127,-5.5893,-5.6324,-5.6849,-5.6887,-5.6962,-5.7225,-5.7225,-5.7187,-5.7863,-5.8464,-5.8389,-6.1118,-6.1118,-6.1118,-6.1118,-6.1118,-6.1118,-6.1118,-6.1118,-6.1118,-6.1118,-6.1118,-6.1118,-6.1118,-6.1118,-6.1118,-6.1118,-6.1118,-6.1118,-6.1118,-6.1118,-6.1118,-6.1118,-6.1118,-6.1118,-6.1118,-6.1118,-6.1118,-6.1118,-6.1118,-6.1118,-6.0925,-6.0654,-6.0615,-6.0422,-6.0112,-6.0074,-6.0074,-6.0074,-6.0074,-5.9687,-5.8874,-5.8333,-5.7675,-5.6893,-5.6786,-5.6506,-5.6051,-5.6003,-5.6003,-5.6003,-5.6003,-5.6003,-5.6003,-5.6003,-5.6003,-5.6003,-5.6003,-5.6003,-5.6003,-5.6003,-5.6003,-5.6003,-5.6476,-5.6777,-5.6777,-5.725,-5.7521,-5.7404,-5.6592,-5.6158,-5.667,-5.6777,-5.6979,-5.7404,-5.7521,-5.7521,-5.7521,-5.7521,-5.7521,-5.7559,-5.783,-5.8062,-5.8101,-5.8353,-5.8519,-5.8491,-5.8452,-5.841,-5.8215,-5.8259,-5.8468,-5.87,-5.845,-5.8144,-5.8119,-5.8017,-5.8042,-5.7953,-5.7608,-5.7208,-5.7087,-5.7149,-5.7057,-5.7205,-5.7013,-5.73,-5.8276,-5.7901,-5.7713,-5.7938,-5.8314,-5.8464,-5.8764,-5.9065,-5.8877,-6.1118,-6.1118,-6.1118,-6.1118,-6.1118,-6.1118,-6.1118,-6.1118,-6.1118,-6.1118,-6.1118,-6.1118,-6.1118,-6.1118,-6.1118,-6.1118,-6.1118,-6.1118,-6.1118,-6.1118,-6.1118,-6.1118,-6.1118,-6.1118,-6.1118,-6.1118,-6.1118,-6.1118,-6.1118,-6.1118,-6.1118,-6.1118,-6.1118,-6.1118,-6.1118,-6.1118,-6.1118,-6.1079,-6.1118,-6.0809,-6.0228,-5.9609,-5.8758,-5.7753,-5.7434,-5.697,-5.639,-5.6351,-5.6351,-5.6351,-5.6592,-5.6708,-5.6708,-5.6708,-5.6708,-5.6708,-5.6708,-5.6708,-5.6708,-5.6708,-5.6708,-5.6747,-5.7327,-5.7675,-5.7753,-5.8217,-5.8565,-5.8497,-5.7443,-5.7056,-5.7521,-5.7666,-5.7946,-5.8526,-5.8604,-5.8604,-5.8565,-5.8604,-5.8526,-5.8604,-5.8758,-5.9068,-5.9223,-5.9311,-5.9331,-5.9321,-5.9264,-5.9099,-5.9048,-5.9114,-5.9325,-5.9799,-5.9892,-5.9638,-5.9088,-5.9054,-5.8973,-5.885,-5.8692,-5.8233,-5.8117,-5.8243,-5.8287,-5.7589,-5.7973,-5.837,-5.8802,-5.8652,-5.8464,-5.9027,-5.9271,-5.9234,-5.9178,-5.929,-5.929,-6.1118,-6.1118,-6.1118,-6.1118,-6.1118,-6.1118,-6.1118,-6.1118,-6.1118,-6.1118,-6.1118,-6.1118,-6.1118,-6.1118,-6.1118,-6.1118,-6.1118,-6.1118,-6.1118,-6.1118,-6.1118,-6.1118,-6.1118,-6.1118,-6.1118,-6.1118,-6.1118,-6.1118,-6.1118,-6.1118,-6.1118,-6.1118,-6.1118,-6.1118,-6.1118,-6.1118,-6.1118,-6.1118,-6.1118,-6.1079,-6.1002,-6.0963,-6.0112,-5.872,-5.7791,-5.7396,-5.7241,-5.7241,-5.7241,-5.7241,-5.7946,-5.841,-5.841,-5.841,-5.8372,-5.8372,-5.841,-5.8419,-5.8372,-5.8333,-5.8333,-5.841,-5.8449,-5.8526,-5.8526,-5.872,-5.8836,-5.869,-5.8642,-5.8526,-5.8604,-5.8565,-5.8604,-5.8767,-5.869,-5.872,-5.869,-5.8874,-5.8642,-5.8836,-5.9416,-5.9996,-6.077,-6.1002,-6.0799,-6.0799,-6.0877,-6.0809,-6.0606,-6.0722,-6.073,-6.0745,-6.0768,-6.0773,-6.0677,-6.0281,-6.0396,-6.0258,-5.9573,-5.91,-5.8559,-5.8151,-5.8077,-5.8006,-5.8068,-5.8427,-5.9027,-5.9253,-5.914,-5.9309,-5.9345,-5.9345,-5.94,-5.9327,-5.9382,-6.1118,-6.1118,-6.1118,-6.1118,-6.1118,-6.1118,-6.1118,-6.1118,-6.1118,-6.1118,-6.1118,-6.1118,-6.1118,-6.1118,-6.1118,-6.1118,-6.1118,-6.1118,-6.1118,-6.1118,-6.1118,-6.1118,-6.1118,-6.1118,-6.1118,-6.1118,-6.1118,-6.1118,-6.1118,-6.1118,-6.1118,-6.1118,-6.1118,-6.1118,-6.1118,-6.1118,-6.1118,-6.1118,-6.1118,-6.1118,-6.1118,-6.1118,-6.077,-6.019,-5.9416,-5.8681,-5.8139,-5.8139,-5.8139,-5.8139,-5.8458,-5.8604,-5.8604,-5.8604,-5.8604,-5.8604,-5.8604,-5.8604,-5.8604,-5.8604,-5.8604,-5.8642,-5.9145,-5.9416,-5.9493,-5.988,-6.019,-6.0151,-6.019,-6.019,-6.0074,-5.9764,-5.9648,-6.0074,-6.019,-6.0112,-6.019,-6.019,-6.0228,-6.0267,-6.0499,-6.0809,-6.0963,-6.1118,-6.1118,-6.1118,-6.1118,-6.1051,-6.1022,-6.1002,-6.1021,-6.0965,-6.0922,-6.085,-6.0793,-6.0781,-6.0742,-6.0692,-6.039,-6.0086,-5.9671,-5.9299,-5.9235,-5.882,-5.8664,-5.861,-5.9248,-5.9418,-5.94,-5.94,-5.9436,-5.956,-5.9578,-5.9613,-5.9732,-6.1118,-6.1118,-6.1118,-6.1118,-6.1118,-6.1118,-6.1118,-6.1118,-6.1118,-6.1118,-6.1118,-6.1118,-6.1118,-6.1118,-6.1118,-6.1118,-6.1118,-6.1118,-6.1118,-6.1118,-6.1118,-6.1118,-6.1118,-6.1118,-6.1118,-6.1118,-6.1118,-6.1118,-6.1118,-6.1118,-6.1118,-6.1118,-6.1118,-6.1118,-6.1118,-6.1118,-6.1118,-6.1118,-6.1118,-6.1118,-6.1118,-6.1118,-6.1118,-6.1002,-6.0576,-5.988,-5.9077,-5.9029,-5.899,-5.9068,-5.9261,-5.9416,-5.9416,-5.9377,-5.9416,-5.9416,-5.9416,-5.9416,-5.9416,-5.9416,-5.9416,-5.9416,-5.9919,-6.0306,-6.0344,-6.0809,-6.1041,-6.1118,-6.1118,-6.1118,-6.1002,-6.0576,-6.0499,-6.1002,-6.1118,-6.1118,-6.1118,-6.1079,-6.1041,-6.1002,-6.1002,-6.1079,-6.1118,-6.1118,-6.1118,-6.1118,-6.1118,-6.106,-6.1041,-6.1022,-6.1012,-6.0969,-6.0948,-6.0927,-6.0883,-6.0861,-6.0804,-6.0754,-6.0621,-6.0572,-6.0494,-6.0261,-6.0015,-5.9663,-5.9437,-5.9256,-5.9296,-5.9485,-5.956,-5.956,-5.9681,-5.9847,-5.9896,-5.996,-6.0022,-6.1118,-6.1118,-6.1118,-6.1118,-6.1118,-6.1118,-6.1118,-6.1118,-6.1118,-6.1118,-6.1118,-6.1118,-6.1118,-6.1118,-6.1118,-6.1118,-6.1118,-6.1118,-6.1118,-6.1118,-6.1118,-6.1118,-6.1118,-6.1118,-6.1118,-6.1118,-6.1118,-6.1118,-6.1118,-6.1118,-6.1118,-6.1118,-6.1118,-6.1118,-6.1118,-6.1118,-6.1118,-6.1118,-6.1118,-6.1118,-6.1118,-6.1118,-6.1118,-6.1118,-6.1041,-6.0654,-5.9919,-5.988,-5.988,-5.9957,-6.0576,-6.1041,-6.0886,-6.0886,-6.1002,-6.0886,-6.1002,-6.1041,-6.1002,-6.0925,-6.0809,-6.0847,-6.1002,-6.0963,-6.0963,-6.1041,-6.1118,-6.1118,-6.1118,-6.1118,-6.1118,-6.1002,-6.1002,-6.1118,-6.1118,-6.1118,-6.1118,-6.1118,-6.1118,-6.1118,-6.1118,-6.1118,-6.1118,-6.1118,-6.1118,-6.1118,-6.1118,-6.1118,-6.107,-6.106,-6.1109,-6.1051,-6.1041,-6.0951,-6.0931,-6.0948,-6.0872,-6.0793,-6.0622,-6.0482,-6.0443,-6.0279,-6.0135,-5.9861,-5.9846,-5.9706,-5.9674,-5.9864,-5.9896,-5.9928,-6.0038,-6.0084,-6.0144,-6.0188,-6.0203,-6.1118,-6.1118,-6.1118,-6.1118,-6.1118,-6.1118,-6.1118,-6.1118,-6.1118,-6.1118,-6.1118,-6.1118,-6.1118,-6.1118,-6.1118,-6.1118,-6.1118,-6.1118,-6.1118,-6.1118,-6.1118,-6.1118,-6.1118,-6.1118,-6.1118,-6.1118,-6.1118,-6.1118,-6.1157,-6.1157,-6.1118,-6.1118,-6.1118,-6.1118,-6.1118,-6.1118,-6.1118,-6.1118,-6.1118,-6.1118,-6.1118,-6.1118,-6.1118,-6.1118,-6.1118,-6.0963,-6.0731,-6.0731,-6.0731,-6.0692,-6.0963,-6.1118,-6.1118,-6.1118,-6.1118,-6.1118,-6.1118,-6.1118,-6.1118,-6.1118,-6.1118,-6.1118,-6.1118,-6.1118,-6.1118,-6.1118,-6.1118,-6.1118,-6.1118,-6.1118,-6.1118,-6.1118,-6.1118,-6.1118,-6.1118,-6.1118,-6.1118,-6.1118,-6.1118,-6.1118,-6.1118,-6.1118,-6.1118,-6.1118,-6.1118,-6.1118,-6.1118,-6.1118,-6.1118,-6.1118,-6.106,-6.1032,-6.1012,-6.1002,-6.101,-6.098,-6.0938,-6.0872,-6.0719,-6.0622,-6.0546,-6.0443,-6.0293,-6.017,-6.0194,-6.0165,-6.0159,-6.0159,-6.0188,-6.0203,-6.0246,-6.0289,-6.0307,-6.0387,-6.0414,-6.1118,-6.1118,-6.1118,-6.1118,-6.1118,-6.1118,-6.1118,-6.1118,-6.1118,-6.1118,-6.1118,-6.1118,-6.1118,-6.1118,-6.1118,-6.1118,-6.1118,-6.1118,-6.1118,-6.1118,-6.1118,-6.1118,-6.1118,-6.1118,-6.1311,-6.1543,-6.1582,-6.1776,-6.2046,-6.2046,-6.2085,-6.2046,-6.1737,-6.1582,-6.1543,-6.1273,-6.1118,-6.1118,-6.1118,-6.1118,-6.1118,-6.1118,-6.1118,-6.1118,-6.1118,-6.1118,-6.1118,-6.1118,-6.1118,-6.1118,-6.1118,-6.1118,-6.1118,-6.1118,-6.1118,-6.1118,-6.1118,-6.1118,-6.1118,-6.1118,-6.1118,-6.1118,-6.1118,-6.1118,-6.1118,-6.1118,-6.1118,-6.1118,-6.1118,-6.1118,-6.1118,-6.1118,-6.1118,-6.1118,-6.1118,-6.1118,-6.1118,-6.1118,-6.1118,-6.1118,-6.1118,-6.1118,-6.1118,-6.1118,-6.1118,-6.1118,-6.1118,-6.1118,-6.1118,-6.1118,-6.1051,-6.1041,-6.1041,-6.106,-6.1031,-6.101,-6.099,-6.0938,-6.0883,-6.0816,-6.0719,-6.0683,-6.0597,-6.0508,-6.0482,-6.0456,-6.0455,-6.0441,-6.0455,-6.0455,-6.0441,-6.0507,-6.0572,-6.0648,-6.0685,-6.1118,-6.1118,-6.1118,-6.1118,-6.1118,-6.1118,-6.1118,-6.1118,-6.1118,-6.1118,-6.1118,-6.1234,-6.1234,-6.1234,-6.1466,-6.1505,-6.1311,-6.1466,-6.1505,-6.1466,-6.1466,-6.1466,-6.135,-6.135,-6.1737,-6.2394,-6.2472,-6.2859,-6.3362,-6.341,-6.3681,-6.34,-6.2781,-6.2394,-6.2201,-6.1543,-6.1234,-6.1118,-6.1118,-6.1118,-6.1118,-6.1118,-6.1118,-6.1118,-6.1118,-6.1118,-6.1118,-6.1118,-6.1118,-6.1118,-6.1118,-6.1118,-6.1118,-6.1118,-6.1118,-6.1118,-6.1118,-6.1118,-6.1118,-6.1118,-6.1118,-6.1118,-6.1118,-6.1118,-6.1118,-6.1118,-6.1118,-6.1118,-6.1118,-6.1118,-6.1118,-6.1118,-6.1118,-6.1118,-6.1118,-6.1118,-6.1118,-6.1118,-6.1118,-6.1118,-6.1118,-6.1118,-6.1118,-6.1118,-6.1118,-6.1118,-6.1118,-6.1118,-6.1118,-6.1118,-6.1118,-6.107,-6.106,-6.1051,-6.106,-6.106,-6.1041,-6.1021,-6.0969,-6.0927,-6.0916,-6.0883,-6.0834,-6.08,-6.0754,-6.0731,-6.0695,-6.0697,-6.0685,-6.0673,-6.071,-6.0769,-6.0781,-6.0819,-6.0858,-6.1118,-6.1118,-6.1118,-6.1118,-6.1118,-6.1118,-6.1118,-6.1118,-6.1118,-6.1234,-6.1273,-6.1814,-6.2046,-6.2124,-6.2704,-6.3023,-6.2907,-6.2936,-6.3023,-6.3013,-6.3023,-6.2588,-6.2162,-6.2085,-6.2511,-6.3245,-6.3362,-6.3487,-6.3681,-6.3835,-6.3797,-6.3681,-6.3555,-6.3013,-6.2433,-6.2201,-6.1698,-6.1195,-6.1118,-6.1157,-6.1195,-6.1195,-6.1118,-6.1118,-6.1118,-6.1118,-6.1118,-6.1118,-6.1118,-6.1118,-6.1118,-6.1118,-6.1118,-6.1118,-6.1118,-6.1118,-6.1118,-6.1118,-6.1118,-6.1118,-6.1118,-6.1118,-6.1118,-6.1118,-6.1118,-6.1118,-6.1118,-6.1118,-6.1118,-6.1118,-6.1118,-6.1118,-6.1118,-6.1118,-6.1118,-6.1118,-6.1118,-6.1118,-6.1118,-6.1118,-6.1118,-6.1118,-6.1118,-6.1118,-6.1118,-6.1118,-6.1118,-6.1118,-6.1118,-6.1118,-6.1118,-6.1118,-6.107,-6.1109,-6.1109,-6.106,-6.1051,-6.1051,-6.1012,-6.0972,-6.0972,-6.1021,-6.0972,-6.0962,-6.091,-6.0877,-6.0861,-6.0866,-6.0827,-6.0816,-6.0793,-6.0804,-6.0831,-6.0819,-6.0896,-6.1118,-6.1118,-6.1118,-6.1118,-6.1157,-6.1505,-6.166,-6.1737,-6.2046,-6.2201,-6.2317,-6.2704,-6.2936,-6.3013,-6.3449,-6.3681,-6.3681,-6.3681,-6.3681,-6.3681,-6.3642,-6.3362,-6.3013,-6.2936,-6.34,-6.4174,-6.4261,-6.4454,-6.4715,-6.4754,-6.4754,-6.4715,-6.4416,-6.3797,-6.3013,-6.2936,-6.2511,-6.1892,-6.1969,-6.2201,-6.2201,-6.2201,-6.2201,-6.2085,-6.1892,-6.1543,-6.1195,-6.1118,-6.1118,-6.1118,-6.1118,-6.1118,-6.1118,-6.1118,-6.1118,-6.1118,-6.1118,-6.1118,-6.1118,-6.1118,-6.1118,-6.1118,-6.1118,-6.1118,-6.1118,-6.1118,-6.1118,-6.1118,-6.1118,-6.1118,-6.1118,-6.1118,-6.1118,-6.1118,-6.1118,-6.1118,-6.1118,-6.1118,-6.1118,-6.1118,-6.1118,-6.1118,-6.1118,-6.1118,-6.1118,-6.1118,-6.1118,-6.1118,-6.1118,-6.1118,-6.1157,-6.1234,-6.1234,-6.1234,-6.1273,-6.1263,-6.1379,-6.1341,-6.1254,-6.1186,-6.1148,-6.1167,-6.1051,-6.1032,-6.1022,-6.0992,-6.0969,-6.0955,-6.0933,-6.0911,-6.0839,-6.0866,-6.0904,-6.1343,-6.1331,-6.1157,-6.1234,-6.1234,-6.1234,-6.1427,-6.2162,-6.2549,-6.2665,-6.3207,-6.3526,-6.3603,-6.3758,-6.3835,-6.3835,-6.4145,-6.4019,-6.4058,-6.4222,-6.4145,-6.4174,-6.4174,-6.4106,-6.4097,-6.3913,-6.4329,-6.4986,-6.5112,-6.545,-6.576,-6.6031,-6.6108,-6.5837,-6.5334,-6.4687,-6.399,-6.3835,-6.3362,-6.282,-6.3091,-6.3371,-6.3362,-6.3362,-6.3333,-6.3255,-6.282,-6.224,-6.1737,-6.1505,-6.1505,-6.1427,-6.1195,-6.1118,-6.1118,-6.1118,-6.1118,-6.1118,-6.1118,-6.1118,-6.1118,-6.1118,-6.1118,-6.1118,-6.1118,-6.1118,-6.1118,-6.1118,-6.1118,-6.1118,-6.1118,-6.1118,-6.1118,-6.1118,-6.1234,-6.1311,-6.1311,-6.1273,-6.1234,-6.1157,-6.1118,-6.1118,-6.1118,-6.1118,-6.1118,-6.1118,-6.1118,-6.1118,-6.1118,-6.1118,-6.1234,-6.1427,-6.1466,-6.1505,-6.1466,-6.1389,-6.1427,-6.1466,-6.1621,-6.1698,-6.1611,-6.1524,-6.1389,-6.136,-6.1186,-6.107,-6.1051,-6.1022,-6.0992,-6.099,-6.1008,-6.1092,-6.1125,-6.1114,-6.1192,-6.1917,-6.2252,-6.1505,-6.2124,-6.2124,-6.2124,-6.224,-6.3052,-6.3439,-6.3439,-6.3642,-6.3835,-6.3874,-6.4406,-6.4677,-6.4754,-6.5257,-6.5644,-6.5528,-6.5489,-6.5644,-6.5644,-6.5644,-6.5644,-6.545,-6.5035,-6.518,-6.5721,-6.5915,-6.6031,-6.6185,-6.6185,-6.6185,-6.6147,-6.5953,-6.5528,-6.4793,-6.4638,-6.43,-6.3642,-6.3681,-6.3835,-6.3874,-6.3874,-6.3835,-6.3758,-6.3526,-6.3362,-6.3216,-6.3139,-6.3129,-6.282,-6.1969,-6.1311,-6.1311,-6.1273,-6.1234,-6.1195,-6.1157,-6.1157,-6.1118,-6.1118,-6.1118,-6.1118,-6.1118,-6.1118,-6.1118,-6.1118,-6.1118,-6.1118,-6.1118,-6.1195,-6.1311,-6.1157,-6.1505,-6.1969,-6.2124,-6.2124,-6.2046,-6.1543,-6.1311,-6.1157,-6.1157,-6.1118,-6.1118,-6.1118,-6.1118,-6.1118,-6.1157,-6.1118,-6.1389,-6.1776,-6.1969,-6.2124,-6.2124,-6.2201,-6.2356,-6.2317,-6.2317,-6.2356,-6.224,-6.1892,-6.1795,-6.1553,-6.1379,-6.1234,-6.1109,-6.1051,-6.1022,-6.1167,-6.1252,-6.1327,-6.1537,-6.1797,-6.2122,-6.2744,-6.3161,-6.2641,-6.305,-6.304,-6.3061,-6.3139,-6.3913,-6.43,-6.4416,-6.4715,-6.487,-6.4948,-6.5373,-6.5528,-6.5566,-6.5992,-6.6185,-6.6185,-6.6185,-6.6185,-6.6147,-6.6147,-6.6185,-6.6147,-6.5837,-6.5837,-6.6185,-6.6185,-6.6185,-6.6185,-6.6185,-6.6185,-6.6185,-6.6185,-6.5682,-6.5218,-6.5334,-6.5102,-6.4599,-6.4725,-6.487,-6.487,-6.487,-6.4609,-6.4416,-6.43,-6.4184,-6.3681,-6.3681,-6.3681,-6.3487,-6.283,-6.2317,-6.2317,-6.2278,-6.2124,-6.1776,-6.1698,-6.1466,-6.1273,-6.1118,-6.1118,-6.1118,-6.1118,-6.1118,-6.1118,-6.1118,-6.135,-6.1582,-6.1776,-6.1853,-6.224,-6.2356,-6.2627,-6.282,-6.3013,-6.3013,-6.2936,-6.2588,-6.2085,-6.1853,-6.1776,-6.1776,-6.1698,-6.1543,-6.1234,-6.1273,-6.1853,-6.1853,-6.2085,-6.2433,-6.2859,-6.3013,-6.3013,-6.3091,-6.3333,-6.3333,-6.3178,-6.3168,-6.3091,-6.2627,-6.2269,-6.1959,-6.1611,-6.1389,-6.1157,-6.1109,-6.109,-6.1273,-6.165,-6.1901,-6.2228,-6.2632,-6.3074,-6.361,-6.3912,-6.3859,-6.3826,-6.3934,-6.3959,-6.4048,-6.4803,-6.518,-6.5296,-6.5915,-6.5992,-6.6185,-6.6185,-6.6069,-6.6185,-6.6147,-6.6185,-6.6185,-6.6185,-6.6185,-6.6185,-6.6185,-6.6185,-6.6147,-6.6147,-6.6108,-6.6185,-6.6185,-6.6185,-6.6185,-6.6185,-6.6185,-6.6185,-6.6185,-6.5876,-6.5528,-6.576,-6.5799,-6.5296,-6.5644,-6.5953,-6.5992,-6.5992,-6.5682,-6.5296,-6.518,-6.4909,-6.4445,-6.429,-6.4174,-6.4058,-6.4068,-6.4068,-6.4029,-6.3719,-6.3449,-6.2627,-6.2588,-6.2356,-6.193,-6.1698,-6.166,-6.1466,-6.1543,-6.1582,-6.1621,-6.1737,-6.2046,-6.2356,-6.2627,-6.2859,-6.3565,-6.3449,-6.3603,-6.3835,-6.3913,-6.3913,-6.3913,-6.3952,-6.3671,-6.2781,-6.2588,-6.2588,-6.2433,-6.224,-6.1814,-6.1582,-6.2201,-6.2627,-6.2859,-6.3207,-6.3671,-6.3864,-6.3903,-6.3903,-6.4106,-6.4184,-6.4029,-6.4145,-6.4068,-6.3555,-6.3091,-6.3091,-6.2781,-6.1543,-6.1195,-6.1302,-6.165,-6.2114,-6.2453,-6.2656,-6.31,-6.366,-6.4131,-6.4524,-6.4712,-6.3851,-6.3945,-6.4575,-6.4802,-6.4899,-6.5625,-6.5953,-6.6031,-6.6108,-6.6185,-6.6185,-6.6185,-6.6185,-6.6185,-6.6185,-6.6185,-6.6185,-6.6185,-6.6185,-6.6185,-6.6185,-6.6185,-6.6185,-6.6185,-6.6185,-6.6185,-6.6185,-6.6185,-6.6185,-6.6185,-6.6185,-6.6185,-6.6185,-6.6031,-6.5992,-6.6147,-6.6147,-6.5876,-6.6069,-6.6185,-6.6185,-6.6185,-6.6147,-6.5876,-6.5876,-6.576,-6.576,-6.5721,-6.5799,-6.576,-6.576,-6.5721,-6.5412,-6.4483,-6.3826,-6.3565,-6.3478,-6.3323,-6.3013,-6.3091,-6.3207,-6.3294,-6.31,-6.3139,-6.3129,-6.3178,-6.3129,-6.3371,-6.3526,-6.3603,-6.3681,-6.3952,-6.4135,-6.4532,-6.4803,-6.4764,-6.488,-6.5064,-6.4986,-6.3903,-6.3632,-6.3478,-6.3284,-6.3091,-6.2781,-6.2704,-6.3129,-6.3439,-6.3594,-6.4097,-6.4677,-6.4754,-6.4793,-6.4793,-6.4841,-6.488,-6.4919,-6.518,-6.5102,-6.4687,-6.4406,-6.4561,-6.4019,-6.2549,-6.1969,-6.2162,-6.2549,-6.2975,-6.3284,-6.3516,-6.4125,-6.4744,-6.4984,-6.5185,-6.5511,-6.5235,-6.5266,-6.5597,-6.569,-6.5722,-6.6012,-6.6185,-6.6185,-6.6185,-6.6185,-6.6185,-6.6185,-6.6185,-6.6185,-6.6185,-6.6185,-6.6185,-6.6185,-6.6185,-6.6185,-6.6185,-6.6185,-6.6185,-6.6185,-6.6185,-6.6185,-6.6185,-6.6185,-6.6185,-6.6185,-6.6185,-6.6185,-6.6185,-6.6185,-6.6185,-6.6185,-6.6185,-6.6185,-6.6185,-6.6185,-6.6185,-6.6185,-6.6185,-6.6185,-6.6185,-6.6185,-6.6185,-6.6185,-6.6185,-6.6147,-6.6185,-6.6185,-6.5953,-6.5528,-6.4754,-6.4454,-6.4377,-6.4145,-6.3835,-6.3681,-6.3642,-6.3681,-6.3719,-6.3681,-6.3681,-6.3681,-6.3942,-6.4329,-6.487,-6.4996,-6.5073,-6.4948,-6.5218,-6.545,-6.5605,-6.5566,-6.5682,-6.5992,-6.5566,-6.4909,-6.4638,-6.4406,-6.4251,-6.4019,-6.3758,-6.3874,-6.4145,-6.4261,-6.4338,-6.4831,-6.545,-6.545,-6.545,-6.545,-6.5412,-6.545,-6.5489,-6.5799,-6.5915,-6.5489,-6.5218,-6.5141,-6.4367,-6.3178,-6.2975,-6.3207,-6.3362,-6.3748,-6.4068,-6.4454,-6.4986,-6.5479,-6.5634,-6.5856,-6.6018,-6.6468,-6.6244,-6.6345,-6.6364,-6.6292,-6.6225,-6.6205,-6.6244,-6.6185,-6.6185,-6.6185,-6.6185,-6.6185,-6.6185,-6.6185,-6.6185,-6.6185,-6.6185,-6.6185,-6.6185,-6.6185,-6.6185,-6.6185,-6.6185,-6.6185,-6.6185,-6.6185,-6.6185,-6.6185,-6.6185,-6.6185,-6.6185,-6.6185,-6.6185,-6.6185,-6.6185,-6.6185,-6.6185,-6.6185,-6.6185,-6.6185,-6.6185,-6.6185,-6.6185,-6.6185,-6.6185,-6.6185,-6.6185,-6.6185,-6.6185,-6.6185,-6.6185,-6.6185,-6.6185,-6.5876,-6.5373,-6.5257,-6.4841,-6.4483,-6.429,-6.4483,-6.4483,-6.429,-6.4251,-6.429,-6.4522,-6.4599,-6.5218,-6.5682,-6.6031,-6.5915,-6.6108,-6.6108,-6.6108,-6.6108,-6.6185,-6.6108,-6.6147,-6.6147,-6.5721,-6.5489,-6.5296,-6.5102,-6.5064,-6.4831,-6.4793,-6.5064,-6.5141,-6.5257,-6.5528,-6.5953,-6.6031,-6.6031,-6.6031,-6.5992,-6.5953,-6.5953,-6.5992,-6.6069,-6.5837,-6.5566,-6.5373,-6.4599,-6.4135,-6.429,-6.4483,-6.4522,-6.4561,-6.4986,-6.5412,-6.5876,-6.6069,-6.5992,-6.602,-6.6126,-6.6104,-6.5503,-6.6128,-6.6398,-6.6373,-6.6292,-6.6293,-6.6254,-6.6215,-6.6185,-6.6195,-6.6185,-6.6185,-6.6185,-6.6185,-6.6185,-6.6185,-6.6185,-6.6185,-6.6185,-6.6301,-6.634,-6.6263,-6.6185,-6.6495,-6.6572,-6.6456,-6.6185,-6.6379,-6.6379,-6.6263,-6.6301,-6.634,-6.6263,-6.6572,-6.6611,-6.6185,-6.6224,-6.6224,-6.6185,-6.6185,-6.6185,-6.6185,-6.6185,-6.6185,-6.6185,-6.6185,-6.6185,-6.6185,-6.6185,-6.6185,-6.6185,-6.6185,-6.6185,-6.6185,-6.6069,-6.6031,-6.5992,-6.576,-6.5605,-6.5605,-6.5566,-6.5644,-6.5837,-6.5644,-6.5605,-6.5682,-6.5992,-6.6185,-6.6185,-6.6185,-6.6185,-6.6185,-6.6185,-6.6185,-6.6185,-6.6185,-6.6185,-6.6185,-6.6185,-6.5837,-6.5915,-6.5876,-6.5915,-6.5953,-6.5953,-6.5953,-6.5953,-6.5992,-6.6147,-6.6185,-6.6185,-6.6185,-6.6185,-6.6185,-6.6185,-6.6185,-6.6185,-6.6147,-6.6108,-6.5915,-6.576,-6.5915,-6.5566,-6.5644,-6.5412,-6.518,-6.5334,-6.5876,-6.6069,-6.6108,-6.6147,-6.6185,-6.6185,-6.6185,-6.6283,-6.6018,-6.6275,-6.6406,-6.6398,-6.6376,-6.6349,-6.6349,-6.6331,-6.6303,-6.6274,-6.6235,-6.6254,-6.6234,-6.6185,-6.6185,-6.6185,-6.6263,-6.6185,-6.6456,-6.6688,-6.692,-6.7114,-6.7423,-6.7655,-6.7539,-6.7694,-6.781,-6.7462,-6.6727,-6.6379,-6.692,-6.6998,-6.7307,-6.7423,-6.7655,-6.7384,-6.6998,-6.6495,-6.6224,-6.6185,-6.6185,-6.6185,-6.6185,-6.6185,-6.6185,-6.6185,-6.6185,-6.6185,-6.6185,-6.6185,-6.6185,-6.6185,-6.6185,-6.6185,-6.6185,-6.6185,-6.6185,-6.6147,-6.6185,-6.6185,-6.6185,-6.6185,-6.6108,-6.6185,-6.6185,-6.6185,-6.6185,-6.6185,-6.6185,-6.6185,-6.6185,-6.6185,-6.6185,-6.6185,-6.6185,-6.6185,-6.6185,-6.6185,-6.6185,-6.6185,-6.6185,-6.6185,-6.6147,-6.6108,-6.6069,-6.6069,-6.6069,-6.6108,-6.6147,-6.6185,-6.6185,-6.6185,-6.6185,-6.6185,-6.6185,-6.6185,-6.6185,-6.6185,-6.6147,-6.6185,-6.6147,-6.6185,-6.6185,-6.5992,-6.5799,-6.5682,-6.5799,-6.6069,-6.6147,-6.6185,-6.6185,-6.6185,-6.6185,-6.6185,-6.65,-6.6501,-6.6431,-6.6422,-6.6414,-6.6411,-6.6394,-6.6394,-6.6385,-6.6349,-6.6312,-6.6293,-6.6341,-6.6505,-6.6611,-6.6766,-6.692,-6.6843,-6.6843,-6.7114,-6.7423,-6.7771,-6.7965,-6.8468,-6.865,-6.8816,-6.8545,-6.8584,-6.8274,-6.7771,-6.7346,-6.781,-6.7849,-6.8119,-6.8545,-6.8622,-6.8313,-6.7849,-6.7307,-6.692,-6.665,-6.6572,-6.6417,-6.6301,-6.6185,-6.6185,-6.6185,-6.6185,-6.6185,-6.6185,-6.6185,-6.6185,-6.6185,-6.6185,-6.6185,-6.6185,-6.6185,-6.6185,-6.6185,-6.6185,-6.6185,-6.6185,-6.6185,-6.6185,-6.6185,-6.6185,-6.6185,-6.6185,-6.6185,-6.6185,-6.6185,-6.6185,-6.6185,-6.6185,-6.6185,-6.6185,-6.6185,-6.6185,-6.6185,-6.6185,-6.6185,-6.6185,-6.6185,-6.6185,-6.6185,-6.6185,-6.6185,-6.6185,-6.6185,-6.6185,-6.6185,-6.6185,-6.6185,-6.6185,-6.6185,-6.6185,-6.6185,-6.6185,-6.6185,-6.6185,-6.6185,-6.6185,-6.6185,-6.6185,-6.6185,-6.6108,-6.5915,-6.6069,-6.6185,-6.6185,-6.6185,-6.6185,-6.6185,-6.6185,-6.6185,-6.6569,-6.6508,-6.6508,-6.6501,-6.6501,-6.6453,-6.6398,-6.6398,-6.6403,-6.6367,-6.6312,-6.6264,-6.6631,-6.7114,-6.7191,-6.7578,-6.8468,-6.8584,-6.8352,-6.839,-6.8661,-6.87,-6.8816,-6.8932,-6.9009,-6.9009,-6.9164,-6.9125,-6.8893,-6.897,-6.8661,-6.8738,-6.8738,-6.8777,-6.8932,-6.9087,-6.897,-6.8661,-6.8352,-6.7965,-6.7539,-6.7268,-6.6998,-6.6417,-6.6224,-6.6185,-6.6185,-6.6185,-6.6185,-6.6185,-6.6185,-6.6185,-6.6185,-6.6185,-6.6185,-6.6185,-6.6185,-6.6185,-6.6185,-6.6185,-6.6185,-6.6185,-6.6185,-6.6185,-6.6185,-6.6185,-6.6185,-6.6185,-6.6185,-6.6185,-6.6185,-6.6185,-6.6185,-6.6185,-6.6185,-6.6185,-6.6185,-6.6185,-6.6185,-6.6185,-6.6185,-6.6185,-6.6185,-6.6185,-6.6185,-6.6185,-6.6185,-6.6185,-6.6185,-6.6185,-6.6185,-6.6185,-6.6185,-6.6185,-6.6185,-6.6185,-6.6185,-6.6185,-6.6185,-6.6185,-6.6185,-6.6185,-6.6185,-6.6185,-6.6185,-6.6185,-6.6185,-6.6185,-6.6185,-6.6185,-6.6185,-6.6185,-6.6185,-6.6185,-6.6185,-6.6624,-6.6575,-6.6575,-6.6535,-6.6508,-6.6493,-6.6446,-6.6477,-6.6469,-6.642,-6.6349,-6.6303,-6.6409,-6.6698,-6.6766,-6.7191,-6.7926,-6.7965,-6.839,-6.8893,-6.9203,-6.9473,-6.9667,-7.0015,-7.0363,-7.0247,-7.0286,-7.0363,-7.0402,-7.017,-7.0324,-7.0247,-6.9783,-7.0015,-7.0054,-6.9783,-6.9589,-6.9396,-6.9087,-6.8584,-6.8352,-6.7733,-6.7346,-6.7075,-6.634,-6.6224,-6.6185,-6.6185,-6.6185,-6.6185,-6.6185,-6.6185,-6.6185,-6.6185,-6.6185,-6.6185,-6.6185,-6.6185,-6.6185,-6.6185,-6.6185,-6.6185,-6.6185,-6.6185,-6.6185,-6.6185,-6.6185,-6.6185,-6.6185,-6.6185,-6.6185,-6.6185,-6.6185,-6.6185,-6.6185,-6.6185,-6.6185,-6.6185,-6.6185,-6.6185,-6.6185,-6.6185,-6.6185,-6.6185,-6.6185,-6.6185,-6.6185,-6.6185,-6.6185,-6.6185,-6.6185,-6.6185,-6.6185,-6.6185,-6.6185,-6.6185,-6.6185,-6.6185,-6.6185,-6.6185,-6.6185,-6.6185,-6.6185,-6.6185,-6.6185,-6.6185,-6.6185,-6.6185,-6.6185,-6.6185,-6.6185,-6.6185,-6.6185,-6.6224,-6.634,-6.6697,-6.6634,-6.6608,-6.6575,-6.6516,-6.6508,-6.6508,-6.6508,-6.6508,-6.6461,-6.6415,-6.6563,-6.6816,-6.6969,-6.7346,-6.7965,-6.8777,-6.897,-6.9164,-6.9628,-7.017,-7.0363,-7.0595,-7.0827,-7.1059,-7.1291,-7.1291,-7.1214,-7.1137,-7.1253,-7.1137,-7.0943,-7.075,-7.0866,-7.0905,-7.075,-7.0363,-7.0208,-6.9938,-6.9319,-6.9164,-6.8661,-6.8081,-6.7849,-6.7114,-6.6727,-6.6572,-6.6456,-6.6185,-6.6185,-6.6185,-6.6185,-6.6185,-6.6185,-6.6185,-6.6185,-6.6185,-6.6185,-6.6185,-6.6185,-6.6185,-6.6185,-6.6185,-6.6185,-6.6185,-6.6185,-6.6185,-6.6185,-6.6185,-6.6185,-6.6185,-6.6185,-6.6185,-6.6185,-6.6185,-6.6185,-6.6185,-6.6185,-6.6185,-6.6185,-6.6185,-6.6185,-6.6185,-6.6185,-6.6185,-6.6185,-6.6185,-6.6185,-6.6185,-6.6185,-6.6185,-6.6185,-6.6185,-6.6185,-6.6185,-6.6185,-6.6185,-6.6185,-6.6185,-6.6185,-6.6185,-6.6185,-6.6185,-6.6185,-6.6185,-6.6185,-6.6224,-6.6263,-6.6224,-6.6185,-6.6263,-6.6379,-6.6379,-6.6456,-6.6727,-6.6753,-6.6697,-6.6634,-6.6549,-6.6538,-6.6508,-6.6508,-6.6508,-6.6586,-6.6578,-6.6657,-6.7222,-6.7938,-6.8517,-6.8893,-6.9512,-7.0247,-7.0595,-7.0789,-7.0866,-7.0905,-7.1137,-7.1175,-7.1253,-7.1291,-7.1291,-7.1291,-7.1291,-7.1291,-7.1291,-7.1291,-7.1302,-7.1148,-7.1148,-7.1291,-7.1291,-7.1253,-7.1214,-7.1098,-7.0595,-7.0092,-6.9744,-6.9241,-6.87,-6.7926,-6.7501,-6.7114,-6.6727,-6.6456,-6.6224,-6.6185,-6.6185,-6.6185,-6.6185,-6.6185,-6.6185,-6.6185,-6.6185,-6.6185,-6.6185,-6.6185,-6.6185,-6.6185,-6.6185,-6.6185,-6.6185,-6.6185,-6.6185,-6.6185,-6.6185,-6.6185,-6.6185,-6.6185,-6.6185,-6.6185,-6.6185,-6.6185,-6.6185,-6.6185,-6.6185,-6.6185,-6.6185,-6.6185,-6.6185,-6.6185,-6.6185,-6.6185,-6.6185,-6.6185,-6.6185,-6.6185,-6.6185,-6.6185,-6.6185,-6.6185,-6.6185,-6.6185,-6.6185,-6.6185,-6.6185,-6.6185,-6.6185,-6.6185,-6.6224,-6.6417,-6.6611,-6.6456,-6.6301,-6.665,-6.7036,-6.6688,-6.665,-6.6611,-6.6804,-6.7268,-6.6824,-6.6756,-6.6742,-6.6701,-6.6624,-6.6528,-6.6508,-6.6625,-6.7045,-6.7315,-6.7393,-6.8055,-6.8549,-6.8914,-6.9203,-6.9821,-7.0402,-7.0479,-7.0567,-7.1291,-7.1291,-7.1291,-7.1291,-7.1291,-7.1291,-7.1291,-7.1291,-7.1291,-7.1291,-7.1369,-7.133,-7.1302,-7.1451,-7.1363,-7.1302,-7.1291,-7.1291,-7.1291,-7.1253,-7.1098,-7.0789,-7.0324,-6.991,-6.9551,-6.8777,-6.8158,-6.7694,-6.723,-6.6766,-6.634,-6.6301,-6.6185,-6.6185,-6.6185,-6.6185,-6.6185,-6.6185,-6.6185,-6.6185,-6.6185,-6.6185,-6.6185,-6.6185,-6.6185,-6.6185,-6.6185,-6.6185,-6.6185,-6.6185,-6.6185,-6.6185,-6.6185,-6.6185,-6.6185,-6.6185,-6.6185,-6.6185,-6.6185,-6.6185,-6.6185,-6.6185,-6.6185,-6.6185,-6.6185,-6.6185,-6.6185,-6.6185,-6.6185,-6.6185,-6.6185,-6.6185,-6.6185,-6.6185,-6.6185,-6.6185,-6.6185,-6.6185,-6.6185,-6.6185,-6.6185,-6.6185,-6.6263,-6.634,-6.6417,-6.6766,-6.7075,-6.7152,-6.7307,-6.7771,-6.7965,-6.7849,-6.7694,-6.7694,-6.7926,-6.8236,-6.6873,-6.6826,-6.6818,-6.6959,-6.7074,-6.673,-6.6724,-6.7111,-6.7867,-6.8194,-6.8282,-6.8992,-6.9372,-6.9371,-6.96,-6.986,-7.044,-7.0479,-7.0606,-7.1291,-7.1291,-7.1291,-7.1291,-7.1291,-7.1291,-7.1291,-7.1302,-7.1302,-7.1363,-7.165,-7.202,-7.2218,-7.1696,-7.1716,-7.1657,-7.1657,-7.1345,-7.1345,-7.1345,-7.1334,-7.113,-7.0849,-7.0539,-7.0258,-6.9667,-6.897,-6.839,-6.7849,-6.7268,-6.6766,-6.6417,-6.6224,-6.6185,-6.6185,-6.6185,-6.6185,-6.6185,-6.6185,-6.6185,-6.6185,-6.6185,-6.6185,-6.6185,-6.6185,-6.6185,-6.6185,-6.6185,-6.6185,-6.6185,-6.6185,-6.6185,-6.6185,-6.6185,-6.6185,-6.6185,-6.6185,-6.6185,-6.6185,-6.6185,-6.6185,-6.6185,-6.6185,-6.6224,-6.6185,-6.6185,-6.6185,-6.6185,-6.6263,-6.634,-6.6301,-6.634,-6.634,-6.634,-6.634,-6.6301,-6.6185,-6.6185,-6.6185,-6.6301,-6.6456,-6.6417,-6.6495,-6.6533,-6.6766,-6.7423,-6.7926,-6.8119,-6.8429,-6.8854,-6.9241,-6.9473,-6.9241,-6.8932,-6.9009,-6.9203,-6.6914,-6.6914,-6.6865,-6.7363,-6.7904,-6.739,-6.7404,-6.8026,-6.8779,-6.9104,-6.9093,-6.9938,-7.0281,-7.0302,-7.0859,-7.1109,-7.1137,-7.1175,-7.1225,-7.1264,-7.1313,-7.1313,-7.1313,-7.1363,-7.1334,-7.1313,-7.1363,-7.1472,-7.1531,-7.2073,-7.2869,-7.3103,-7.2076,-7.1979,-7.194,-7.1823,-7.1465,-7.1406,-7.1445,-7.1415,-7.1268,-7.1268,-7.1141,-7.0849,-7.0402,-6.9938,-6.9319,-6.8622,-6.7887,-6.7268,-6.6766,-6.6417,-6.6224,-6.6185,-6.6185,-6.6185,-6.6185,-6.6185,-6.6185,-6.6185,-6.6185,-6.6185,-6.6185,-6.6185,-6.6185,-6.6185,-6.6185,-6.6185,-6.6185,-6.6185,-6.6185,-6.6185,-6.6185,-6.6185,-6.6185,-6.6185,-6.6185,-6.6185,-6.6185,-6.6185,-6.6185,-6.6224,-6.6263,-6.6263,-6.665,-6.6688,-6.6804,-6.6998,-6.6998,-6.6611,-6.665,-6.6611,-6.6611,-6.6572,-6.6533,-6.6804,-6.692,-6.7191,-6.692,-6.6998,-6.6882,-6.6998,-6.7307,-6.7771,-6.8352,-6.8854,-6.9241,-6.9589,-6.9899,-7.0247,-7.044,-7.0286,-6.9821,-6.9899,-7.0092,-6.7265,-6.7812,-6.7811,-6.8279,-6.902,-6.9351,-6.9249,-6.8978,-6.9706,-7.0006,-6.9989,-7.0843,-7.1064,-7.1126,-7.1299,-7.1334,-7.1313,-7.1302,-7.1324,-7.1334,-7.1355,-7.1376,-7.1435,-7.1435,-7.1445,-7.1445,-7.1484,-7.1698,-7.2221,-7.2706,-7.2754,-7.2831,-7.2132,-7.1947,-7.1887,-7.1702,-7.158,-7.1465,-7.1504,-7.1455,-7.1415,-7.1415,-7.1394,-7.1169,-7.1031,-7.0606,-6.9948,-6.9561,-6.8738,-6.7655,-6.7346,-6.6959,-6.6185,-6.6185,-6.6185,-6.6185,-6.6185,-6.6185,-6.6185,-6.6185,-6.6185,-6.6185,-6.6185,-6.6185,-6.6185,-6.6185,-6.6185,-6.6185,-6.6185,-6.6185,-6.6185,-6.6185,-6.6185,-6.6185,-6.6185,-6.6185,-6.6185,-6.6185,-6.6185,-6.6224,-6.6224,-6.6456,-6.6456,-6.6959,-6.7307,-6.7346,-6.7462,-6.7694,-6.7694,-6.7346,-6.7152,-6.7191,-6.7346,-6.7423,-6.7771,-6.8081,-6.8119,-6.8119,-6.781,-6.7694,-6.7926,-6.8119,-6.8313,-6.8738,-6.9319,-6.9938,-7.0595,-7.075,-7.0634,-7.0827,-7.1021,-7.0866,-7.0789,-7.0711,-7.0711,-6.7734,-6.8203,-6.8594,-6.918,-6.9961,-7.0776,-7.0774,-7.0367,-7.0819,-7.0946,-7.093,-7.1389,-7.162,-7.1472,-7.1446,-7.1435,-7.1405,-7.1405,-7.1425,-7.1435,-7.1445,-7.1455,-7.1485,-7.1494,-7.1485,-7.1494,-7.1542,-7.1698,-7.2305,-7.2449,-7.2457,-7.335,-7.2293,-7.1952,-7.1969,-7.19,-7.1603,-7.1538,-7.1511,-7.1474,-7.1475,-7.1465,-7.1445,-7.1355,-7.1345,-7.0976,-7.055,-7.0307,-6.9407,-6.8506,-6.8352,-6.7617,-6.6804,-6.6456,-6.6224,-6.6185,-6.6185,-6.6185,-6.6185,-6.6185,-6.6185,-6.6185,-6.6185,-6.6185,-6.6185,-6.6185,-6.6185,-6.6185,-6.6185,-6.6185,-6.6185,-6.6185,-6.6185,-6.6185,-6.6185,-6.6185,-6.6185,-6.6185,-6.6224,-6.6263,-6.6456,-6.6688,-6.7075,-6.7617,-6.8003,-6.8081,-6.8197,-6.8313,-6.8352,-6.8197,-6.8042,-6.8042,-6.8274,-6.8506,-6.8854,-6.9009,-6.8854,-6.87,-6.8506,-6.8506,-6.8854,-6.9164,-6.9357,-6.9744,-7.0208,-7.0711,-7.1059,-7.1175,-7.1137,-7.1291,-7.1291,-7.1137,-7.1059,-7.1098,-7.1098,-6.8125,-6.8281,-6.9219,-7.0039,-7.0859,-7.1601,-7.1822,-7.1827,-7.172,-7.1761,-7.1644,-7.1661,-7.1669,-7.1573,-7.1541,-7.1494,-7.1475,-7.1465,-7.1475,-7.1494,-7.1494,-7.1504,-7.1523,-7.1513,-7.1532,-7.1513,-7.16,-7.1753,-7.178,-7.2125,-7.281,-7.3937,-7.2413,-7.1955,-7.257,-7.1925,-7.1714,-7.1947,-7.1728,-7.1547,-7.1532,-7.1532,-7.1541,-7.1485,-7.1445,-7.1309,-7.1133,-7.0687,-7.0064,-6.9755,-6.928,-6.8468,-6.7462,-6.6843,-6.6495,-6.6185,-6.6185,-6.6185,-6.6185,-6.6185,-6.6185,-6.6185,-6.6185,-6.6185,-6.6185,-6.6185,-6.6185,-6.6185,-6.6185,-6.6185,-6.6185,-6.6185,-6.6185,-6.6185,-6.6185,-6.6185,-6.6185,-6.6379,-6.6688,-6.6843,-6.723,-6.7501,-6.7771,-6.8313,-6.8854,-6.8893,-6.9164,-6.928,-6.9241,-6.9164,-6.897,-6.897,-6.9319,-6.9551,-6.9551,-6.9628,-6.9396,-6.9203,-6.9164,-6.9319,-6.9744,-7.0054,-7.0363,-7.0595,-7.0789,-7.0982,-7.1253,-7.1291,-7.1291,-7.1291,-7.1291,-7.1291,-7.1291,-7.1291,-7.1291,-6.7617,-6.832,-6.9805,-7.0898,-7.168,-7.1914,-7.1948,-7.1875,-7.1884,-7.1799,-7.169,-7.1699,-7.1684,-7.1606,-7.1586,-7.1532,-7.1504,-7.1513,-7.1523,-7.1541,-7.155,-7.1568,-7.1556,-7.1547,-7.1556,-7.1564,-7.165,-7.1892,-7.2391,-7.2648,-7.2734,-7.3161,-7.2252,-7.2337,-7.2866,-7.2127,-7.1964,-7.2213,-7.1878,-7.1611,-7.1568,-7.1589,-7.158,-7.1513,-7.1475,-7.1475,-7.1339,-7.1231,-7.063,-7.0155,-6.992,-6.8942,-6.7617,-6.7346,-6.6843,-6.6379,-6.6301,-6.6301,-6.6185,-6.6185,-6.6185,-6.6185,-6.6185,-6.6185,-6.6185,-6.6185,-6.6185,-6.6185,-6.6185,-6.6185,-6.6185,-6.6185,-6.6185,-6.6185,-6.6224,-6.6224,-6.6224,-6.6688,-6.7114,-6.7578,-6.8042,-6.839,-6.8622,-6.9048,-6.9512,-7.0015,-7.0518,-7.0711,-7.0595,-7.0479,-6.9976,-7.0015,-7.0479,-7.0672,-7.0479,-7.0324,-7.0131,-7.0286,-7.0363,-7.0518,-7.0595,-7.0711,-7.0827,-7.1021,-7.1253,-7.1291,-7.1291,-7.1291,-7.1291,-7.1291,-7.1291,-7.1291,-7.1291,-7.1291,-7.1291,-6.7773,-6.8398,-7.0,-7.0976,-7.1445,-7.1836,-7.1949,-7.1926,-7.1891,-7.1819,-7.1738,-7.1729,-7.1661,-7.1638,-7.1628,-7.1586,-7.1559,-7.1559,-7.1577,-7.1594,-7.1594,-7.1611,-7.1589,-7.1598,-7.1589,-7.1598,-7.1684,-7.2041,-7.278,-7.3029,-7.2983,-7.3309,-7.2905,-7.278,-7.306,-7.2493,-7.2213,-7.2291,-7.1886,-7.1667,-7.1633,-7.1633,-7.1586,-7.1559,-7.1541,-7.1532,-7.1504,-7.1475,-7.1174,-7.0602,-7.024,-6.9755,-6.8777,-6.8352,-6.7655,-6.7075,-6.6804,-6.6611,-6.6379,-6.6263,-6.6301,-6.6301,-6.6263,-6.6263,-6.6185,-6.6185,-6.6185,-6.6185,-6.6185,-6.6185,-6.6185,-6.6185,-6.6185,-6.6185,-6.6301,-6.634,-6.6882,-6.7578,-6.7887,-6.8197,-6.87,-6.9241,-6.9551,-7.0054,-7.0479,-7.0595,-7.1175,-7.1253,-7.1291,-7.1291,-7.0943,-7.0789,-7.1098,-7.1214,-7.1021,-7.0943,-7.0982,-7.1175,-7.1291,-7.1137,-7.0943,-7.1098,-7.1291,-7.1291,-7.1291,-7.1291,-7.1291,-7.1291,-7.1291,-7.1291,-7.1291,-7.1291,-7.1291,-7.1291,-7.1291,-6.8125,-6.8555,-6.9922,-7.0703,-7.0976,-7.168,-7.195,-7.1893,-7.1852,-7.185,-7.1804,-7.1745,-7.1711,-7.1675,-7.1645,-7.1622,-7.1598,-7.1573,-7.1589,-7.1598,-7.1598,-7.1598,-7.1598,-7.1598,-7.1598,-7.1598,-7.1636,-7.2049,-7.2617,-7.2866,-7.3309,-7.4,-7.4116,-7.3953,-7.3418,-7.2975,-7.2726,-7.2407,-7.2041,-7.18,-7.1722,-7.1645,-7.1598,-7.1581,-7.1603,-7.1577,-7.1559,-7.1523,-7.1475,-7.1203,-7.0659,-7.0152,-6.9716,-6.9164,-6.8506,-6.7926,-6.7655,-6.723,-6.6766,-6.6766,-6.665,-6.6495,-6.6456,-6.6495,-6.6495,-6.6417,-6.6417,-6.6263,-6.6263,-6.6263,-6.6263,-6.6224,-6.6224,-6.6533,-6.665,-6.6843,-6.7655,-6.8429,-6.87,-6.897,-6.9473,-7.0015,-7.044,-7.0943,-7.1137,-7.1253,-7.1291,-7.1291,-7.1291,-7.1291,-7.1137,-7.1059,-7.1175,-7.1291,-7.1291,-7.1291,-7.1291,-7.1291,-7.1291,-7.1291,-7.1291,-7.1291,-7.1291,-7.1291,-7.1291,-7.1291,-7.1291,-7.1291,-7.1291,-7.1291,-7.1291,-7.1291,-7.1291,-7.1291,-7.1291,-6.7969,-6.918,-6.9531,-7.043,-7.164,-7.1953,-7.1992,-7.1953,-7.1893,-7.1919,-7.194,-7.1814,-7.1758,-7.1675,-7.1661,-7.1638,-7.1598,-7.1598,-7.1598,-7.1598,-7.1598,-7.1598,-7.1598,-7.1598,-7.1598,-7.1598,-7.1598,-7.1761,-7.2454,-7.2819,-7.3053,-7.3356,-7.4087,-7.432,-7.474,-7.4063,-7.3115,-7.2843,-7.2446,-7.2135,-7.2415,-7.2213,-7.1645,-7.1598,-7.1589,-7.1589,-7.1573,-7.1616,-7.1589,-7.1474,-7.1223,-7.0736,-7.0318,-6.991,-6.9368,-6.8777,-6.8545,-6.8042,-6.7655,-6.7694,-6.7655,-6.7346,-6.7423,-6.7694,-6.7578,-6.7268,-6.7075,-6.6572,-6.6495,-6.6456,-6.6417,-6.6379,-6.6417,-6.7268,-6.7694,-6.8042,-6.8622,-6.9241,-6.9705,-7.0015,-7.0363,-7.0711,-7.0943,-7.1214,-7.1214,-7.1291,-7.1291,-7.1291,-7.1291,-7.1291,-7.1291,-7.1291,-7.1291,-7.1291,-7.1291,-7.1291,-7.1291,-7.1291,-7.1291,-7.1291,-7.1291,-7.1291,-7.1291,-7.1291,-7.1291,-7.1291,-7.1291,-7.1291,-7.1291,-7.1291,-7.1291,-7.1291,-7.1291,-7.1291,-7.1291]},{"header":{"parameterUnit":"m.s-1","parameterCategory":1,"la1":31.0,"la2":29.5877,"lo1":-88.7671,"lo2":-86.6584,"dy":0.0162,"dx":0.0185,"nx":115,"ny":88,"refTime":"2023-02-27T06:00:00:Z","depth":0,"parameterNumber":3,"parameterNumberName":"V-component_of_WINDS"},"data":[0.0,0.0,0.0,0.0,0.0,0.0,0.0,0.0,0.0,0.0,0.0,0.0,0.0,0.0,0.0,0.0,0.0,0.0,0.0,0.0,0.0,0.0,0.0,0.0,0.0,0.0,0.0,0.0,0.0,0.0,0.0,0.0,0.0,0.0,0.0,0.0,0.0,0.0,0.0,0.0,0.0,0.0,0.0,0.0,0.0,0.0,0.0,0.0,0.0,0.0,0.0,0.0,0.0,0.0,0.0,0.0,0.0,0.0,0.0,0.0,0.0,0.0,0.0,0.0,0.0,0.0,0.0,0.0,0.0,0.0,0.0,0.0,0.0,0.0,0.0,0.0,0.0,0.0,0.0,0.0,0.0,0.0,0.0,0.0,0.0,0.0,0.0,0.0,0.0,0.0,0.0,0.0,0.0,0.0,0.0,0.0,0.0,0.0,0.0,0.0,0.0,0.0,0.0,0.0,0.0,0.0,0.0,0.0,0.0,0.0,0.0,0.0,0.0,0.0,0.0,0.0,0.0,0.0,0.0,0.0,0.0,0.0,0.0,0.0,0.0,0.0,0.0,0.0,0.0,0.0,0.0,0.0,0.0,0.0,0.0,0.0,0.0,0.0,0.0,0.0,0.0,0.0,0.0,0.0,0.0,0.0,0.0,0.0,0.0,0.0,0.0,0.0,0.0,0.0,0.0,0.0,0.0,0.0,0.0,0.0,0.0,0.0,0.0,0.0,0.0,0.0,0.0,0.0,0.0,0.0,0.0,0.0,0.0,0.0,0.0,0.0,0.0,0.0,0.0,0.0,0.0,0.0,0.0,0.0,0.0,0.0,0.0,0.0,0.0,0.0,0.0,0.0,0.0,0.0,0.0,0.0,0.0,0.0,0.0,0.0,0.0,0.0,0.0,0.0,0.0,0.0,0.0,0.0,0.0,0.0,0.0,0.0,0.0,0.0,0.0,0.0,0.0,0.0,0.0,0.0,0.0,0.0,0.0,0.0,0.0,0.0,0.0,0.0,0.0,0.0,0.0,0.0,0.0,0.0,0.0,0.0,0.0,0.0,0.0,0.0,0.0,0.0,0.0,0.0,0.0,0.0,0.0,0.0,0.0,0.0,0.0,0.0,0.0,0.0,0.0,0.0,0.0,0.0,0.0,0.0,0.0,0.0,0.0,0.0,0.0,0.0,0.0,0.0,0.0,0.0,0.0,0.0,0.0,0.0,0.0,0.0,0.0,0.0,0.0,0.0,0.0,0.0,0.0,0.0,0.0,0.0,0.0,0.0,0.0,0.0,0.0,0.0,0.0,0.0,0.0,0.0,0.0,0.0,0.0,0.0,0.0,0.0,0.0,0.0,0.0,0.0,0.0,0.0,0.0,0.0,0.0,0.0,0.0,0.0,0.0,0.0,0.0,0.0,0.0,0.0,0.0,0.0,0.0,0.0,0.0,0.0,0.0,0.0,0.0,0.0,0.0,0.0,0.0,0.0,0.0,0.0,0.0,0.0,0.0,0.0,0.0,0.0,0.0,0.0,0.0,0.0,0.0,0.0,0.0,0.0,0.0,0.0,0.0,0.0,0.0,0.0,0.0,0.0,0.0,0.0,0.0,0.0,0.0,0.0,0.0,0.0,0.0,0.0,0.0,0.0,0.0,0.0,0.0,0.0,0.0,0.0,0.0,0.0,0.0,0.0,0.0,0.0,0.0,0.0,0.0,0.0,0.0,0.0,0.0,0.0,0.0,0.0,0.0,0.0,0.0,0.0,0.0,0.0,0.0,0.0,0.0,0.0,0.0,0.0,0.0,0.0,0.0,0.0,0.0,0.0,0.0,0.0,0.0,0.0,0.0,0.0,0.0,0.0,0.0,0.0,0.0,0.0,0.0,0.0,0.0,0.0,0.0,0.0,0.0,0.0,0.0,0.0,0.0,0.0,0.0,0.0,0.0,0.0,0.0,0.0,0.0,0.0,0.0,0.0,0.0,0.0,0.0,0.0,0.0,0.0,0.0,0.0,0.0,0.0,0.0,0.0,0.0,0.0,0.0,0.0,0.0,0.0,0.0,0.0,0.0,0.0,0.0,0.0,0.0,0.0,0.0,0.0,0.0,0.0,0.0,0.0,0.0,0.0,0.0,0.0,0.0,0.0,0.0,0.0,0.0,0.0,0.0,0.0,0.0,0.0,0.0,0.0,0.0,0.0,0.0,0.0,0.0,0.0,0.0,0.0,0.0,0.0,0.0,0.0,0.0,0.0,0.0,0.0,0.0,0.0,0.0,0.0,0.0,0.0,0.0,0.0,0.0,0.0,0.0,0.0,0.0,0.0,0.0,0.0,0.0,0.0,0.0,0.0,0.0,0.0,0.0,0.0,0.0,0.0,0.0,0.0,0.0,0.0,0.0,0.0,0.0,0.0,0.0,0.0,0.0,0.0,0.0,0.0,0.0,0.0,0.0,0.0,0.0,0.0,0.0,0.0,0.0,0.0,0.0,0.0,0.0,0.0,0.0,0.0,0.0,0.0,0.0,0.0,0.0,0.0,0.0,0.0,0.0,0.0,0.0,0.0,0.0,0.0,0.0,0.0,0.0,0.0,0.0,0.0,0.0,0.0,0.0,0.0,0.0,0.0,0.0,0.0,0.0,0.0,0.0,0.0,0.0,0.0,0.0,0.0,0.0,0.0,0.0,0.0,0.0,0.0,0.0,0.0,0.0,0.0,0.0,0.0,0.0,0.0,0.0,0.0,0.0,0.0,0.0,0.0,0.0,0.0,0.0,0.0,0.0,0.0,0.0,0.0,0.0,0.0,0.0,0.0,0.0,0.0,0.0,0.0,0.0,0.0,0.0,0.0,0.0,0.0,0.0,0.0,0.0,0.0,0.0,0.0,0.0,0.0,0.0,0.0,0.0,0.0,0.0,0.0,0.0,0.0,0.0,0.0,0.0,0.0,0.0,0.0,0.0,0.0,0.0,0.0,0.0,0.0,0.0,0.0,0.0,0.0,0.0,0.0,0.0,0.0,0.0,0.0,0.0,0.0,0.0,0.0,0.0,0.0,0.0,0.0,0.0,0.0,0.0,0.0,0.0,0.0,0.0,0.0,0.0,0.0,0.0,0.0,0.0,0.0,0.0,0.0,0.0,0.0,0.0,0.0,0.0,0.0,0.0,0.0,0.0,0.0,0.0,0.0,0.0,0.0,0.0,0.0,0.0,0.0,0.0,0.0,0.0,0.0,0.0,0.0,0.0,0.0,0.0,0.0,0.0,0.0,0.0,0.0,0.0,0.0,0.0,0.0,0.0,0.0,0.0,0.0,0.0,0.0,0.0,0.0,0.0,0.0,0.0,0.0,0.0,0.0,0.0,0.0,0.0,0.0,0.0,0.0,0.0,0.0,0.0,0.0,0.0,0.0,0.0,0.0,0.0,0.0,0.0,0.0,0.0,0.0,0.0,0.0,0.0,0.0,0.0,0.0,0.0,0.0,0.0,0.0,0.0,0.0,0.0,0.0,0.0,0.0,0.0,0.0,0.0,0.0,0.0,0.0,0.0,0.0,0.0,0.0,0.0,0.0,0.0,0.0,0.0,0.0,0.0,0.0,0.0,0.0,0.0,0.0,0.0,0.0,0.0,0.0,0.0,0.0,0.0,0.0,0.0,0.0,0.0,0.0,0.0,0.0,0.0,0.0,0.0,0.0,0.0,0.0,0.0,0.0,0.0,0.0,0.0,0.0,0.0,0.0,0.0,0.0,0.0,0.0,0.0,0.0,0.0,0.0,0.0,0.0,0.0,0.0,0.0,0.0,0.0,0.0,0.0,0.0,0.0,0.0,0.0,0.0,0.0,0.0,0.0,0.0,0.0,0.0,0.0,0.0,0.0,0.0,0.0,0.0,0.0,0.0,0.0,0.0,0.0,0.0,0.0,0.0,0.0,0.0,0.0,0.0,0.0,0.0,0.0,0.0,0.0,0.0,0.0,0.0,0.0,0.0,0.0,0.0,0.0,0.0,0.0,0.0,0.0,0.0,0.0,0.0,0.0,0.0,0.0,0.0,0.0,0.0,0.0,0.0,0.0,0.0,0.0,0.0,0.0,0.0,0.0,0.0,0.0,0.0,0.0,0.0,0.0,0.0,0.0,0.0,0.0,0.0,0.0,0.0,0.0,0.0,0.0,0.0,0.0,0.0,0.0,0.0,0.0,0.0,0.0,0.0,0.0,0.0,0.0,0.0,0.0,0.0,0.0,0.0,0.0,0.0,0.0,0.0,0.0,0.0,0.0,0.0,0.0,0.0,0.0,0.0,-1.2767,0.0,0.0,0.0,0.0,0.0,0.0,0.0,0.0,0.0,0.0,0.0,0.0,0.0,0.0,0.0,0.0,0.0,0.0,0.0,0.0,0.0,0.0,0.0,0.0,0.0,0.0,0.0,0.0,0.0,0.0,0.0,0.0,0.0,0.0,0.0,0.0,0.0,0.0,0.0,0.0,0.0,0.0,0.0,0.0,0.0,0.0,0.0,0.0,0.0,0.0,0.0,0.0,0.0,0.0,0.0,0.0,0.0,0.0,0.0,0.0,0.0,0.0,0.0,0.0,0.0,0.0,0.0,0.0,0.0,0.0,0.0,0.0,0.0,0.0,0.0,0.0,0.0,0.0,0.0,0.0,0.0,0.0,0.0,0.0,0.0,0.0,0.0,0.0,0.0,0.0,0.0,0.0,0.0,0.0,0.0,0.0,0.0,0.0,0.0,0.0,0.0,0.0,0.0,0.0,0.0,0.0,0.0,0.0,0.0,0.0,-1.1731,-1.1929,-1.1801,-1.187,-1.2146,0.0,0.0,0.0,0.0,0.0,0.0,0.0,0.0,0.0,0.0,0.0,0.0,0.0,0.0,0.0,0.0,0.0,0.0,0.0,0.0,0.0,0.0,0.0,0.0,0.0,0.0,0.0,0.0,0.0,0.0,0.0,0.0,0.0,0.0,0.0,0.0,0.0,0.0,0.0,0.0,0.0,0.0,0.0,0.0,0.0,0.0,0.0,0.0,0.0,0.0,0.0,0.0,0.0,0.0,0.0,0.0,0.0,0.0,0.0,0.0,0.0,0.0,0.0,0.0,0.0,0.0,0.0,0.0,0.0,0.0,0.0,0.0,0.0,0.0,0.0,0.0,0.0,0.0,0.0,0.0,0.0,0.0,0.0,0.0,0.0,0.0,0.0,0.0,0.0,0.0,0.0,0.0,0.0,0.0,0.0,0.0,0.0,0.0,0.0,0.0,0.0,0.0,0.0,0.0,0.0,0.0,0.0,0.0,0.0,0.0,0.0,0.0,-1.1603,-1.1744,-1.1854,0.0,0.0,0.0,0.0,0.0,0.0,0.0,0.0,0.0,0.0,0.0,0.0,0.0,0.0,0.0,0.0,0.0,0.0,0.0,0.0,0.0,0.0,0.0,0.0,0.0,0.0,0.0,0.0,0.0,0.0,0.0,0.0,0.0,0.0,0.0,0.0,0.0,0.0,0.0,0.0,0.0,0.0,0.0,0.0,0.0,0.0,0.0,0.0,0.0,0.0,0.0,0.0,0.0,0.0,0.0,0.0,0.0,0.0,0.0,0.0,0.0,0.0,0.0,0.0,0.0,0.0,0.0,0.0,0.0,0.0,0.0,0.0,0.0,0.0,0.0,0.0,0.0,0.0,0.0,0.0,0.0,0.0,0.0,0.0,0.0,0.0,0.0,0.0,0.0,0.0,0.0,0.0,0.0,0.0,0.0,0.0,0.0,0.0,0.0,0.0,0.0,0.0,0.0,0.0,0.0,0.0,0.0,0.0,0.0,0.0,-1.2655,-1.2655,-1.2125,0.0,-1.2655,0.0,0.0,0.0,0.0,0.0,0.0,0.0,0.0,0.0,0.0,0.0,0.0,0.0,0.0,0.0,0.0,0.0,0.0,0.0,0.0,0.0,0.0,0.0,0.0,0.0,0.0,0.0,0.0,0.0,0.0,0.0,0.0,0.0,0.0,0.0,0.0,0.0,0.0,0.0,0.0,0.0,0.0,0.0,0.0,0.0,0.0,0.0,0.0,0.0,0.0,0.0,0.0,0.0,0.0,0.0,0.0,0.0,0.0,0.0,0.0,0.0,0.0,0.0,0.0,0.0,0.0,0.0,0.0,0.0,0.0,0.0,0.0,0.0,0.0,0.0,0.0,0.0,0.0,0.0,0.0,0.0,0.0,0.0,0.0,0.0,0.0,0.0,0.0,0.0,0.0,0.0,0.0,0.0,0.0,0.0,0.0,0.0,0.0,0.0,0.0,0.0,0.0,0.0,0.0,0.0,0.0,0.0,0.0,0.0,0.0,-1.1742,-1.1742,-1.1863,-1.2311,0.0,0.0,0.0,0.0,0.0,0.0,0.0,0.0,0.0,0.0,0.0,0.0,0.0,0.0,0.0,0.0,0.0,0.0,0.0,0.0,0.0,0.0,0.0,0.0,0.0,0.0,0.0,0.0,0.0,0.0,0.0,0.0,0.0,0.0,0.0,0.0,0.0,0.0,0.0,0.0,0.0,0.0,0.0,0.0,0.0,0.0,0.0,0.0,0.0,0.0,0.0,0.0,0.0,0.0,0.0,0.0,0.0,0.0,0.0,0.0,0.0,0.0,0.0,0.0,0.0,0.0,0.0,0.0,0.0,0.0,0.0,0.0,0.0,0.0,0.0,0.0,0.0,0.0,0.0,0.0,0.0,0.0,0.0,0.0,0.0,0.0,0.0,0.0,0.0,0.0,0.0,0.0,0.0,0.0,0.0,0.0,0.0,0.0,0.0,0.0,0.0,0.0,0.0,0.0,0.0,0.0,0.0,0.0,0.0,0.0,-1.1487,-1.1535,-1.1586,-1.2158,-1.2814,-1.3583,0.0,0.0,0.0,0.0,0.0,0.0,0.0,0.0,0.0,0.0,0.0,0.0,0.0,0.0,0.0,0.0,0.0,0.0,0.0,0.0,0.0,0.0,0.0,0.0,0.0,0.0,0.0,0.0,0.0,0.0,0.0,0.0,0.0,0.0,0.0,0.0,0.0,0.0,0.0,0.0,0.0,0.0,0.0,0.0,0.0,0.0,0.0,0.0,0.0,0.0,0.0,0.0,0.0,0.0,0.0,0.0,0.0,0.0,0.0,0.0,0.0,0.0,0.0,0.0,0.0,0.0,0.0,0.0,0.0,0.0,0.0,0.0,0.0,0.0,0.0,0.0,0.0,0.0,0.0,0.0,0.0,0.0,0.0,0.0,0.0,0.0,0.0,0.0,0.0,0.0,0.0,0.0,0.0,0.0,0.0,0.0,0.0,0.0,0.0,0.0,0.0,0.0,0.0,0.0,0.0,0.0,0.0,0.0,-1.2918,-1.2805,-1.2805,-1.2984,-1.3554,-1.3794,0.0,0.0,0.0,0.0,0.0,0.0,0.0,0.0,0.0,0.0,0.0,0.0,0.0,0.0,0.0,0.0,0.0,0.0,0.0,0.0,0.0,0.0,0.0,0.0,0.0,0.0,0.0,0.0,0.0,0.0,0.0,0.0,0.0,0.0,0.0,0.0,0.0,0.0,0.0,0.0,0.0,0.0,0.0,0.0,0.0,0.0,0.0,0.0,0.0,0.0,0.0,0.0,0.0,0.0,0.0,0.0,0.0,0.0,0.0,0.0,0.0,0.0,0.0,0.0,0.0,0.0,0.0,0.0,0.0,0.0,0.0,0.0,0.0,0.0,0.0,0.0,0.0,0.0,0.0,0.0,0.0,0.0,0.0,0.0,0.0,0.0,0.0,0.0,0.0,0.0,0.0,0.0,0.0,0.0,0.0,0.0,0.0,0.0,0.0,0.0,0.0,0.0,0.0,0.0,0.0,0.0,0.0,0.0,0.0,-1.2673,-1.2729,-1.2918,-1.3108,-1.322,-1.317,0.0,0.0,0.0,0.0,0.0,0.0,0.0,0.0,0.0,0.0,0.0,0.0,0.0,0.0,0.0,0.0,0.0,0.0,0.0,0.0,0.0,0.0,0.0,0.0,0.0,0.0,0.0,0.0,0.0,0.0,0.0,0.0,0.0,0.0,0.0,0.0,0.0,0.0,0.0,0.0,0.0,0.0,0.0,0.0,0.0,0.0,0.0,0.0,0.0,0.0,0.0,0.0,0.0,0.0,0.0,0.0,0.0,0.0,0.0,0.0,0.0,0.0,0.0,0.0,0.0,0.0,0.0,0.0,0.0,0.0,0.0,0.0,0.0,0.0,0.0,0.0,0.0,0.0,0.0,0.0,0.0,0.0,0.0,0.0,0.0,0.0,0.0,0.0,0.0,0.0,0.0,0.0,0.0,0.0,0.0,0.0,0.0,0.0,0.0,0.0,0.0,0.0,0.0,0.0,0.0,0.0,0.0,0.0,0.0,-1.2275,0.0,-1.2318,-1.2379,-1.244,-1.2516,0.0,0.0,0.0,0.0,0.0,0.0,0.0,0.0,0.0,0.0,0.0,0.0,0.0,0.0,0.0,0.0,0.0,0.0,0.0,0.0,0.0,0.0,0.0,0.0,0.0,0.0,0.0,0.0,0.0,0.0,0.0,0.0,0.0,0.0,0.0,0.0,0.0,0.0,0.0,0.0,0.0,0.0,0.0,0.0,0.0,0.0,0.0,0.0,0.0,0.0,0.0,0.0,0.0,0.0,0.0,0.0,0.0,0.0,0.0,0.0,0.0,0.0,0.0,0.0,0.0,0.0,0.0,0.0,0.0,0.0,0.0,0.0,0.0,0.0,0.0,0.0,0.0,0.0,0.0,0.0,0.0,0.0,0.0,0.0,0.0,0.0,0.0,0.0,0.0,0.0,0.0,0.0,0.0,0.0,0.0,0.0,0.0,0.0,0.0,0.0,0.0,0.0,0.0,0.0,0.0,0.0,0.0,0.0,-1.2275,-1.191,-1.1358,-1.1085,-1.1012,-1.1647,-1.1942,0.0,0.0,0.0,0.0,0.0,0.0,0.0,0.0,0.0,0.0,0.0,0.0,0.0,0.0,0.0,0.0,0.0,0.0,0.0,0.0,0.0,0.0,0.0,0.0,0.0,0.0,0.0,0.0,0.0,0.0,0.0,0.0,0.0,0.0,0.0,0.0,0.0,0.0,0.0,0.0,0.0,0.0,0.0,0.0,0.0,0.0,0.0,0.0,0.0,0.0,0.0,0.0,0.0,0.0,0.0,0.0,0.0,0.0,0.0,0.0,0.0,0.0,0.0,0.0,0.0,0.0,0.0,0.0,0.0,0.0,0.0,0.0,0.0,0.0,0.0,0.0,0.0,0.0,0.0,0.0,0.0,0.0,0.0,0.0,0.0,0.0,0.0,0.0,0.0,0.0,0.0,0.0,0.0,0.0,0.0,0.0,0.0,0.0,0.0,0.0,0.0,0.0,0.0,0.0,0.0,0.0,0.0,0.0,0.0,-1.1863,-1.1362,-1.1077,-1.1077,-1.1594,-1.1836,0.0,0.0,0.0,0.0,0.0,0.0,0.0,0.0,0.0,0.0,0.0,0.0,0.0,0.0,0.0,0.0,0.0,0.0,0.0,0.0,0.0,0.0,0.0,0.0,0.0,0.0,0.0,0.0,0.0,0.0,0.0,0.0,0.0,0.0,0.0,0.0,0.0,0.0,0.0,0.0,0.0,0.0,0.0,0.0,0.0,0.0,0.0,0.0,0.0,0.0,0.0,0.0,0.0,0.0,0.0,0.0,0.0,0.0,0.0,0.0,0.0,0.0,0.0,0.0,0.0,0.0,0.0,0.0,0.0,0.0,0.0,0.0,0.0,0.0,0.0,0.0,0.0,0.0,0.0,0.0,0.0,0.0,0.0,0.0,0.0,0.0,0.0,0.0,0.0,0.0,0.0,0.0,0.0,0.0,0.0,0.0,0.0,0.0,0.0,0.0,0.0,0.0,0.0,0.0,0.0,0.0,0.0,0.0,0.0,-1.2147,-1.1625,-1.1126,-1.0719,-1.1577,-1.1883,-1.159,0.0,0.0,0.0,0.0,0.0,0.0,0.0,0.0,0.0,0.0,0.0,0.0,0.0,0.0,0.0,0.0,0.0,0.0,0.0,0.0,0.0,0.0,0.0,0.0,0.0,0.0,0.0,0.0,0.0,0.0,0.0,0.0,0.0,0.0,0.0,0.0,0.0,0.0,0.0,0.0,0.0,0.0,0.0,0.0,0.0,0.0,0.0,0.0,0.0,0.0,0.0,0.0,0.0,0.0,0.0,0.0,0.0,0.0,0.0,0.0,0.0,0.0,0.0,0.0,0.0,0.0,0.0,0.0,0.0,0.0,0.0,0.0,0.0,0.0,0.0,0.0,0.0,0.0,0.0,0.0,0.0,0.0,0.0,0.0,0.0,0.0,0.0,0.0,0.0,0.0,0.0,0.0,0.0,0.0,0.0,0.0,0.0,0.0,0.0,0.0,0.0,0.0,0.0,0.0,0.0,0.0,0.0,0.0,-1.2572,-1.2055,-1.1298,-1.0277,-1.1656,-1.2006,0.0,0.0,0.0,0.0,0.0,0.0,0.0,0.0,0.0,0.0,0.0,0.0,0.0,0.0,0.0,0.0,0.0,0.0,0.0,0.0,0.0,0.0,0.0,0.0,0.0,0.0,0.0,0.0,0.0,0.0,0.0,0.0,0.0,0.0,0.0,0.0,0.0,0.0,0.0,0.0,0.0,0.0,0.0,0.0,0.0,0.0,0.0,0.0,0.0,0.0,0.0,0.0,0.0,0.0,0.0,0.0,0.0,0.0,0.0,0.0,0.0,0.0,0.0,0.0,0.0,0.0,0.0,0.0,0.0,0.0,0.0,0.0,0.0,0.0,0.0,0.0,0.0,0.0,0.0,0.0,0.0,0.0,0.0,0.0,0.0,0.0,0.0,0.0,0.0,0.0,0.0,0.0,0.0,0.0,0.0,0.0,0.0,0.0,0.0,0.0,0.0,0.0,0.0,0.0,0.0,0.0,0.0,0.0,0.0,-1.1779,-1.1963,-1.1946,-1.1659,-1.2214,-1.2332,0.0,0.0,0.0,0.0,0.0,0.0,0.0,0.0,0.0,0.0,0.0,0.0,0.0,0.0,0.0,0.0,0.0,0.0,0.0,0.0,0.0,0.0,0.0,0.0,0.0,0.0,0.0,0.0,0.0,0.0,0.0,0.0,0.0,0.0,0.0,0.0,0.0,0.0,0.0,0.0,0.0,0.0,0.0,0.0,0.0,0.0,0.0,0.0,0.0,0.0,0.0,0.0,0.0,0.0,0.0,0.0,0.0,0.0,0.0,0.0,0.0,0.0,0.0,0.0,0.0,0.0,0.0,0.0,0.0,0.0,0.0,0.0,0.0,0.0,0.0,0.0,0.0,0.0,0.0,0.0,0.0,0.0,0.0,0.0,0.0,0.0,0.0,0.0,0.0,0.0,0.0,0.0,0.0,0.0,0.0,0.0,0.0,0.0,0.0,0.0,0.0,0.0,0.0,0.0,0.0,0.0,0.0,0.0,-1.3182,-1.1661,-1.255,-1.2775,-1.2234,-1.2327,-1.2253,0.0,0.0,0.0,0.0,0.0,0.0,0.0,0.0,0.0,0.0,0.0,0.0,0.0,0.0,0.0,0.0,0.0,0.0,0.0,0.0,0.0,0.0,0.0,0.0,0.0,0.0,0.0,0.0,0.0,0.0,0.0,0.0,0.0,0.0,0.0,0.0,0.0,0.0,0.0,0.0,0.0,0.0,0.0,0.0,0.0,0.0,0.0,0.0,0.0,0.0,0.0,0.0,0.0,0.0,0.0,0.0,0.0,0.0,0.0,0.0,0.0,0.0,0.0,0.0,0.0,0.0,0.0,0.0,0.0,0.0,0.0,0.0,0.0,0.0,0.0,0.0,0.0,0.0,0.0,0.0,0.0,0.0,0.0,0.0,0.0,0.0,0.0,0.0,0.0,0.0,0.0,0.0,0.0,0.0,0.0,0.0,0.0,0.0,0.0,0.0,0.0,0.0,0.0,0.0,0.0,0.0,0.0,0.0,-1.4073,-1.2039,-1.3232,-1.3343,-1.2199,-1.2105,-1.1989,0.0,0.0,0.0,0.0,0.0,0.0,0.0,0.0,0.0,0.0,0.0,0.0,0.0,0.0,0.0,0.0,0.0,0.0,0.0,0.0,0.0,0.0,0.0,0.0,0.0,0.0,0.0,0.0,0.0,0.0,0.0,0.0,0.0,0.0,0.0,0.0,0.0,0.0,0.0,0.0,0.0,0.0,0.0,0.0,0.0,0.0,0.0,0.0,0.0,0.0,0.0,0.0,0.0,0.0,0.0,0.0,0.0,0.0,0.0,0.0,0.0,0.0,0.0,0.0,0.0,0.0,0.0,0.0,0.0,0.0,0.0,0.0,0.0,0.0,0.0,0.0,0.0,0.0,0.0,0.0,0.0,0.0,0.0,0.0,0.0,0.0,0.0,0.0,0.0,0.0,0.0,0.0,0.0,0.0,0.0,0.0,0.0,0.0,0.0,0.0,0.0,0.0,0.0,0.0,0.0,0.0,0.0,0.0,-1.3153,-1.2534,-1.2291,-1.2024,-1.1664,-1.1867,-1.2148,0.0,0.0,0.0,0.0,0.0,0.0,0.0,0.0,0.0,0.0,0.0,0.0,0.0,0.0,0.0,0.0,0.0,0.0,0.0,0.0,0.0,0.0,0.0,0.0,0.0,0.0,0.0,0.0,0.0,0.0,0.0,0.0,0.0,0.0,0.0,0.0,0.0,0.0,0.0,0.0,0.0,0.0,0.0,0.0,0.0,0.0,0.0,0.0,-1.3823,0.0,0.0,0.0,0.0,0.0,0.0,0.0,0.0,0.0,0.0,0.0,0.0,0.0,0.0,0.0,0.0,0.0,0.0,0.0,0.0,0.0,0.0,0.0,0.0,0.0,0.0,0.0,0.0,0.0,0.0,0.0,0.0,0.0,0.0,0.0,0.0,0.0,0.0,0.0,0.0,0.0,0.0,0.0,0.0,0.0,0.0,0.0,0.0,0.0,0.0,0.0,0.0,0.0,0.0,0.0,0.0,0.0,0.0,0.0,-1.3561,-1.2715,-1.29,-1.2513,-1.1588,-1.1659,-1.1856,0.0,0.0,0.0,0.0,0.0,0.0,0.0,0.0,0.0,0.0,0.0,0.0,0.0,0.0,0.0,0.0,0.0,0.0,0.0,0.0,0.0,0.0,0.0,0.0,0.0,0.0,0.0,0.0,0.0,0.0,0.0,0.0,0.0,0.0,0.0,0.0,0.0,0.0,0.0,0.0,0.0,0.0,0.0,0.0,0.0,0.0,0.0,0.0,0.0,0.0,0.0,0.0,0.0,0.0,0.0,0.0,0.0,0.0,0.0,0.0,0.0,0.0,0.0,0.0,0.0,0.0,0.0,0.0,0.0,0.0,0.0,0.0,0.0,0.0,0.0,0.0,0.0,0.0,0.0,0.0,0.0,0.0,0.0,0.0,0.0,0.0,0.0,0.0,0.0,0.0,0.0,0.0,0.0,0.0,0.0,0.0,0.0,0.0,0.0,0.0,0.0,0.0,0.0,0.0,0.0,0.0,0.0,-1.4358,-1.4262,-1.3069,-1.3718,-1.3198,-1.1534,-1.1348,-1.1286,-1.1286,0.0,0.0,0.0,0.0,0.0,0.0,0.0,0.0,0.0,0.0,0.0,0.0,0.0,0.0,0.0,0.0,0.0,0.0,0.0,0.0,0.0,0.0,0.0,0.0,0.0,0.0,0.0,0.0,0.0,0.0,0.0,0.0,0.0,0.0,0.0,0.0,0.0,0.0,-1.3897,-1.3854,0.0,0.0,0.0,0.0,0.0,0.0,0.0,0.0,-1.42,0.0,0.0,0.0,0.0,0.0,0.0,0.0,0.0,0.0,0.0,0.0,0.0,0.0,0.0,0.0,0.0,0.0,0.0,0.0,0.0,0.0,0.0,0.0,0.0,0.0,0.0,0.0,0.0,0.0,0.0,0.0,0.0,0.0,0.0,0.0,0.0,0.0,0.0,0.0,0.0,0.0,0.0,0.0,0.0,0.0,0.0,0.0,0.0,0.0,0.0,0.0,0.0,0.0,0.0,0.0,0.0,-1.5472,-1.4055,-1.358,-1.4173,-1.2795,-1.1896,-1.1472,-1.0667,-1.0239,-1.0287,0.0,0.0,0.0,0.0,0.0,0.0,0.0,0.0,0.0,0.0,0.0,0.0,0.0,0.0,0.0,0.0,0.0,0.0,0.0,0.0,0.0,0.0,0.0,0.0,0.0,0.0,0.0,0.0,0.0,0.0,0.0,0.0,0.0,0.0,0.0,0.0,0.0,0.0,0.0,-1.4512,-1.4448,0.0,0.0,0.0,0.0,0.0,0.0,0.0,0.0,-1.4742,0.0,0.0,0.0,0.0,0.0,0.0,0.0,0.0,0.0,0.0,0.0,0.0,0.0,0.0,0.0,0.0,0.0,0.0,0.0,0.0,0.0,0.0,0.0,0.0,0.0,0.0,0.0,0.0,0.0,0.0,0.0,0.0,0.0,0.0,0.0,0.0,0.0,0.0,0.0,0.0,0.0,0.0,0.0,0.0,0.0,0.0,0.0,0.0,0.0,0.0,0.0,0.0,0.0,0.0,0.0,-1.4798,-1.3452,-1.3009,-1.3523,-1.2646,-1.1896,-1.1472,-1.1039,-1.0798,0.0,0.0,0.0,0.0,0.0,0.0,0.0,0.0,0.0,0.0,0.0,0.0,0.0,0.0,0.0,0.0,0.0,0.0,0.0,0.0,0.0,0.0,0.0,0.0,0.0,0.0,0.0,0.0,0.0,0.0,0.0,0.0,0.0,0.0,0.0,0.0,0.0,0.0,0.0,0.0,-1.471,-1.4738,-1.4808,0.0,0.0,0.0,0.0,0.0,0.0,-1.4852,-1.4738,0.0,0.0,0.0,0.0,0.0,0.0,0.0,0.0,0.0,0.0,0.0,0.0,0.0,0.0,0.0,0.0,0.0,0.0,0.0,0.0,0.0,0.0,0.0,0.0,0.0,0.0,0.0,0.0,0.0,0.0,0.0,0.0,0.0,0.0,0.0,0.0,0.0,0.0,0.0,0.0,0.0,0.0,0.0,0.0,0.0,0.0,0.0,0.0,0.0,0.0,0.0,0.0,0.0,0.0,0.0,-1.3804,-1.2645,-1.2056,-1.2241,-1.1967,-1.1594,-1.111,-1.1086,-1.1147,0.0,0.0,0.0,0.0,0.0,0.0,0.0,0.0,0.0,0.0,0.0,0.0,0.0,0.0,0.0,0.0,0.0,0.0,0.0,0.0,0.0,0.0,0.0,0.0,0.0,0.0,0.0,0.0,0.0,0.0,0.0,0.0,0.0,0.0,0.0,0.0,0.0,0.0,0.0,0.0,0.0,-1.4981,-1.494,-1.5147,0.0,0.0,0.0,0.0,-1.5167,-1.5072,0.0,0.0,0.0,0.0,0.0,0.0,0.0,0.0,0.0,0.0,0.0,0.0,0.0,0.0,0.0,0.0,0.0,0.0,0.0,0.0,0.0,0.0,0.0,0.0,0.0,0.0,0.0,0.0,0.0,0.0,0.0,0.0,0.0,0.0,0.0,0.0,0.0,0.0,0.0,0.0,0.0,0.0,0.0,0.0,0.0,0.0,0.0,0.0,0.0,0.0,0.0,0.0,0.0,0.0,0.0,0.0,-1.3577,-1.1197,-1.0183,-1.0732,-0.9842,-0.9422,-0.9544,-0.9738,-0.9868,0.0,0.0,0.0,0.0,0.0,0.0,0.0,0.0,0.0,0.0,0.0,0.0,0.0,0.0,0.0,0.0,0.0,0.0,0.0,0.0,0.0,0.0,0.0,0.0,0.0,0.0,0.0,0.0,0.0,0.0,0.0,0.0,0.0,0.0,0.0,0.0,0.0,0.0,0.0,0.0,0.0,-1.529,-1.5499,-1.5558,-1.5413,0.0,0.0,-1.5451,-1.522,-1.6106,0.0,0.0,0.0,0.0,0.0,0.0,0.0,0.0,0.0,0.0,0.0,0.0,0.0,0.0,0.0,0.0,0.0,0.0,0.0,0.0,0.0,0.0,0.0,0.0,0.0,0.0,0.0,0.0,0.0,0.0,0.0,0.0,0.0,0.0,0.0,0.0,0.0,0.0,0.0,0.0,0.0,0.0,0.0,0.0,0.0,0.0,0.0,0.0,0.0,0.0,0.0,0.0,0.0,0.0,0.0,-1.2311,-1.2587,-1.0161,-0.9121,-0.9603,-0.8946,-0.8793,-0.9098,-0.9155,-0.9584,0.0,0.0,0.0,0.0,0.0,0.0,0.0,0.0,0.0,0.0,0.0,0.0,0.0,0.0,0.0,0.0,0.0,0.0,0.0,0.0,0.0,0.0,0.0,0.0,0.0,0.0,0.0,0.0,0.0,0.0,0.0,0.0,0.0,0.0,0.0,0.0,0.0,0.0,0.0,0.0,0.0,0.0,-1.558,-1.5709,0.0,0.0,0.0,-1.5763,-1.5666,0.0,0.0,0.0,0.0,0.0,0.0,0.0,0.0,0.0,0.0,0.0,0.0,0.0,0.0,0.0,0.0,0.0,0.0,0.0,0.0,0.0,0.0,0.0,0.0,0.0,0.0,0.0,0.0,0.0,0.0,0.0,0.0,0.0,0.0,0.0,0.0,0.0,0.0,0.0,0.0,0.0,0.0,0.0,0.0,0.0,0.0,0.0,0.0,0.0,0.0,0.0,0.0,0.0,0.0,0.0,0.0,0.0,-1.1602,-0.942,-0.8366,-0.861,-0.8427,-0.8427,-0.8732,-0.8793,0.0,0.0,0.0,0.0,0.0,0.0,0.0,0.0,0.0,0.0,0.0,0.0,0.0,0.0,0.0,0.0,0.0,0.0,0.0,0.0,0.0,0.0,0.0,0.0,0.0,0.0,0.0,-1.3152,0.0,0.0,0.0,0.0,0.0,0.0,0.0,0.0,0.0,0.0,0.0,0.0,0.0,0.0,-1.5045,-1.5521,-1.5855,-1.592,0.0,0.0,-1.5985,-1.5931,-1.6072,-1.6064,0.0,0.0,0.0,0.0,0.0,0.0,0.0,0.0,0.0,0.0,0.0,0.0,0.0,0.0,0.0,0.0,0.0,0.0,0.0,0.0,0.0,0.0,0.0,0.0,0.0,0.0,0.0,0.0,0.0,0.0,0.0,0.0,0.0,0.0,0.0,0.0,0.0,0.0,0.0,0.0,0.0,0.0,0.0,0.0,0.0,0.0,0.0,0.0,0.0,0.0,0.0,0.0,0.0,0.0,0.0,-1.0978,-0.8995,-0.7933,-0.7994,-0.7933,-0.8122,-0.8433,-0.8433,-0.8732,0.0,0.0,0.0,0.0,0.0,0.0,0.0,0.0,0.0,0.0,0.0,0.0,0.0,0.0,0.0,0.0,0.0,0.0,0.0,0.0,0.0,0.0,0.0,0.0,0.0,0.0,0.0,0.0,0.0,0.0,0.0,0.0,0.0,0.0,0.0,0.0,0.0,0.0,0.0,0.0,0.0,-1.5283,-1.5542,-1.5795,-1.592,0.0,0.0,-1.5931,-1.5655,-1.6244,-1.6387,-1.5731,0.0,0.0,0.0,0.0,0.0,0.0,0.0,0.0,0.0,0.0,0.0,0.0,0.0,0.0,0.0,0.0,0.0,0.0,0.0,0.0,0.0,0.0,0.0,0.0,0.0,0.0,0.0,0.0,0.0,0.0,0.0,0.0,0.0,0.0,0.0,0.0,0.0,0.0,0.0,0.0,0.0,0.0,0.0,0.0,0.0,0.0,0.0,0.0,0.0,0.0,0.0,0.0,0.0,-1.097,-1.0524,-0.8762,-0.7933,-0.7933,-0.7933,-0.7933,-0.8055,-0.8122,-0.8299,0.0,0.0,0.0,0.0,0.0,0.0,0.0,0.0,0.0,0.0,0.0,0.0,0.0,0.0,0.0,0.0,0.0,0.0,0.0,0.0,0.0,0.0,0.0,0.0,0.0,0.0,0.0,0.0,-1.3217,-1.3342,-1.3067,0.0,0.0,0.0,0.0,0.0,0.0,0.0,0.0,0.0,0.0,-1.5304,-1.5542,-1.5795,0.0,0.0,-1.5855,-1.5974,-1.5888,-1.6104,-1.619,-1.592,-1.5849,0.0,0.0,0.0,0.0,0.0,0.0,0.0,0.0,0.0,0.0,0.0,0.0,0.0,0.0,0.0,0.0,0.0,0.0,0.0,0.0,0.0,0.0,0.0,0.0,0.0,0.0,0.0,0.0,0.0,0.0,0.0,0.0,0.0,0.0,0.0,0.0,0.0,0.0,0.0,0.0,0.0,0.0,0.0,0.0,0.0,0.0,0.0,0.0,0.0,0.0,0.0,0.0,-1.0739,-1.0185,-0.8708,-0.7933,-0.7933,-0.7933,-0.7933,-0.7933,-0.7933,-0.8055,0.0,0.0,0.0,0.0,0.0,0.0,0.0,0.0,0.0,0.0,0.0,0.0,0.0,0.0,0.0,0.0,0.0,0.0,0.0,0.0,0.0,0.0,0.0,0.0,0.0,0.0,0.0,0.0,-1.3212,-1.3382,-1.3437,0.0,0.0,0.0,0.0,0.0,0.0,0.0,0.0,0.0,0.0,-1.5423,-1.5601,-1.5741,-1.5785,-1.5623,-1.5741,-1.5899,-1.5899,-1.5909,-1.5849,-1.5899,0.0,0.0,0.0,0.0,0.0,0.0,0.0,0.0,0.0,0.0,0.0,0.0,0.0,0.0,0.0,0.0,0.0,0.0,0.0,0.0,0.0,0.0,0.0,0.0,0.0,0.0,0.0,0.0,0.0,0.0,-1.3821,0.0,0.0,0.0,0.0,0.0,0.0,0.0,0.0,0.0,0.0,0.0,0.0,0.0,0.0,0.0,0.0,0.0,0.0,0.0,0.0,0.0,0.0,-1.0739,-1.0185,-0.8648,-0.7933,-0.7933,-0.7933,-0.7933,-0.7933,-0.7933,-0.8055,-0.8372,0.0,0.0,0.0,0.0,0.0,0.0,0.0,0.0,0.0,0.0,0.0,0.0,0.0,0.0,0.0,0.0,0.0,0.0,0.0,0.0,0.0,0.0,0.0,0.0,0.0,0.0,-1.163,-1.1632,-1.2028,0.0,0.0,0.0,0.0,0.0,0.0,0.0,0.0,0.0,0.0,-1.5591,-1.5601,-1.5601,-1.5601,-1.5612,-1.5601,-1.5601,-1.5612,-1.5612,-1.5612,-1.5612,0.0,0.0,0.0,0.0,0.0,0.0,0.0,0.0,0.0,0.0,0.0,0.0,0.0,0.0,0.0,0.0,0.0,0.0,0.0,0.0,0.0,0.0,0.0,0.0,0.0,0.0,0.0,-0.9268,-0.9613,0.0,0.0,0.0,0.0,0.0,0.0,0.0,0.0,0.0,0.0,0.0,-1.1667,-1.0944,0.0,0.0,0.0,0.0,0.0,0.0,0.0,0.0,0.0,0.0,0.0,0.0,-1.0004,-0.9033,-0.8288,-0.7933,-0.7933,-0.7933,-0.7933,-0.7933,-0.7933,-0.8055,-0.8372,0.0,0.0,0.0,0.0,0.0,0.0,0.0,0.0,0.0,0.0,0.0,0.0,0.0,0.0,0.0,0.0,0.0,0.0,0.0,0.0,0.0,0.0,0.0,0.0,0.0,-1.1595,0.0,0.0,0.0,0.0,0.0,0.0,0.0,0.0,0.0,0.0,0.0,-1.5601,-1.5601,-1.5601,-1.5601,-1.5601,-1.5601,-1.5601,0.0,0.0,0.0,0.0,0.0,0.0,0.0,0.0,0.0,0.0,0.0,0.0,0.0,0.0,-1.6028,-1.5774,-1.5779,-1.5779,-1.5887,0.0,0.0,0.0,0.0,0.0,0.0,0.0,0.0,0.0,0.0,0.0,0.0,0.0,0.0,0.0,0.0,-0.9592,0.0,0.0,0.0,0.0,0.0,0.0,0.0,0.0,-0.9748,-0.9566,-1.0347,-0.9505,-0.9559,0.0,-1.0407,-1.0538,0.0,0.0,0.0,0.0,0.0,0.0,0.0,0.0,-0.9453,-0.8518,-0.807,-0.7933,-0.7933,-0.7933,-0.7933,-0.7933,-0.7933,-0.7994,-0.8244,-0.8225,-0.8299,0.0,0.0,0.0,0.0,0.0,0.0,0.0,0.0,0.0,0.0,0.0,0.0,0.0,0.0,0.0,0.0,0.0,0.0,0.0,0.0,0.0,0.0,0.0,-1.2249,0.0,0.0,0.0,0.0,0.0,0.0,0.0,0.0,0.0,-1.5601,-1.5601,-1.5601,-1.5601,-1.5601,-1.5601,-1.5601,0.0,0.0,0.0,0.0,0.0,0.0,0.0,-1.5623,-1.5709,-1.5909,-1.6028,-1.6126,-1.614,-1.6183,-1.6194,0.0,0.0,-1.5871,-1.5849,-1.5849,-1.5849,-1.572,-1.5649,-1.6011,-1.5838,-1.5688,0.0,0.0,0.0,0.0,0.0,0.0,0.0,0.0,-0.8261,-0.894,0.0,-0.9761,0.0,0.0,0.0,0.0,0.0,0.0,0.0,0.0,-0.8477,-0.7933,-0.7933,-0.7933,-0.7933,-0.7933,-0.7994,-0.8238,-0.8842,-1.0137,0.0,0.0,0.0,0.0,0.0,0.0,-0.9033,-0.8581,-0.811,-0.7933,-0.7933,-0.7933,-0.7933,-0.7933,-0.7933,-0.7933,-0.7933,-0.8183,-0.8366,-0.8366,-0.8546,0.0,0.0,0.0,0.0,0.0,0.0,0.0,0.0,0.0,0.0,0.0,0.0,0.0,0.0,0.0,0.0,0.0,0.0,0.0,0.0,-1.2366,0.0,0.0,0.0,0.0,0.0,0.0,0.0,0.0,0.0,0.0,-1.5601,-1.5601,-1.5601,-1.5601,0.0,0.0,0.0,0.0,-1.5601,-1.5601,-1.5601,-1.5601,-1.5601,-1.5601,-1.5677,-1.5953,0.0,0.0,-1.6269,-1.6118,-1.6039,-1.6017,-1.5817,-1.5763,-1.6226,-1.6247,-1.6247,-1.6247,-1.6215,-1.628,-1.6301,-1.6164,-1.6121,-0.8138,0.0,0.0,0.0,0.0,-0.8088,-0.8176,-0.8133,-0.8196,-0.8465,-0.8678,-0.8608,0.0,0.0,0.0,0.0,0.0,0.0,-0.9505,-0.8477,-0.8055,-0.7933,-0.7933,-0.7933,-0.7933,-0.7933,-0.7933,-0.7994,-0.8177,-0.8563,-0.9055,-0.9697,0.0,0.0,0.0,0.0,-0.8545,-0.8002,-0.7933,-0.7933,-0.7933,-0.7933,-0.7933,-0.7933,-0.7933,-0.7933,-0.7933,-0.7994,-0.8055,-0.8055,-0.8332,0.0,0.0,0.0,0.0,0.0,0.0,0.0,0.0,0.0,0.0,0.0,0.0,0.0,0.0,0.0,0.0,0.0,0.0,0.0,-1.0155,-1.0538,-1.1131,0.0,0.0,0.0,0.0,0.0,0.0,0.0,0.0,0.0,-1.5542,-1.5601,-1.5601,0.0,0.0,-1.5601,-1.5601,-1.5601,-1.5601,-1.5601,0.0,0.0,0.0,-1.5601,-1.5623,-1.5688,-1.5899,-1.6093,-1.6269,-1.6258,-1.6204,-1.6204,-1.6161,-1.6161,-1.6258,-1.6032,-1.5828,-1.5806,-1.5626,-1.5498,-1.5655,-1.5759,-1.579,-0.8258,-0.8013,-0.8013,-0.8019,-0.8024,-0.8095,-0.8171,-0.8236,-0.8236,-0.8236,-0.8225,-0.8106,-0.8505,-0.91,-0.9348,0.0,0.0,0.0,-0.8842,-0.7933,-0.7933,-0.7933,-0.7933,-0.7933,-0.7933,-0.7933,-0.7933,-0.7933,-0.7933,-0.7933,-0.8259,-0.89,0.0,0.0,-0.8113,-0.8195,-0.8079,-0.7769,-0.7834,-0.7933,-0.7933,-0.7933,-0.7933,-0.7933,-0.7933,-0.7933,-0.7933,-0.7933,-0.7933,-0.7933,-0.8122,-0.8187,0.0,0.0,0.0,0.0,0.0,0.0,0.0,0.0,0.0,0.0,0.0,-0.9262,0.0,0.0,0.0,0.0,-0.9905,-1.0088,-0.9815,-1.0186,0.0,0.0,0.0,0.0,0.0,0.0,0.0,-1.4163,-1.3836,-1.3973,-1.4937,-1.5056,-1.5175,-1.5542,-1.5601,-1.5601,-1.5601,0.0,-1.5601,-1.5601,-1.5601,-1.5601,-1.5601,-1.5601,-1.5634,-1.5731,-1.5996,-1.6129,-1.6269,-1.6237,-1.6172,-1.6161,-1.6097,-1.6032,-1.6032,-1.5795,-1.5666,-1.5849,-1.57,-1.5653,-1.5947,-1.599,-1.6043,-0.8367,-0.8263,-0.8263,-0.8253,-0.8236,-0.8183,-0.8183,-0.8183,-0.8188,-0.8188,-0.8242,-0.8111,-0.8108,-0.8092,-0.8541,0.0,-0.8732,-0.8732,-0.8421,-0.7933,-0.7933,-0.7933,-0.7933,-0.7933,-0.7933,-0.7933,-0.7933,-0.7933,-0.7933,-0.7933,-0.7933,-0.7928,-0.7769,-0.7714,-0.7714,-0.7714,-0.7769,-0.7933,-0.7933,-0.7933,-0.7933,-0.7933,-0.7933,-0.7933,-0.7933,-0.7933,-0.7933,-0.7933,-0.7933,-0.7933,-0.7933,-0.7944,-0.8079,0.0,0.0,0.0,0.0,0.0,0.0,0.0,0.0,0.0,0.0,0.0,0.0,0.0,0.0,0.0,-0.968,0.0,-0.9761,-1.055,0.0,0.0,0.0,-1.2414,-1.2483,-1.2543,-1.2595,-1.2655,0.0,0.0,-1.4093,0.0,-1.4451,-1.5483,-1.5601,-1.5601,-1.5601,-1.5601,-1.5601,-1.5601,-1.5601,-1.5601,-1.5601,-1.5601,-1.5655,-1.5909,-1.6108,-1.6215,-1.6215,-1.6075,-1.5996,-1.5985,-1.5752,-1.5612,-1.5612,-1.5612,-1.5741,-1.614,-1.6153,-1.6239,-1.6422,-1.6497,-1.6518,-0.853,-0.8503,-0.8503,-0.8399,-0.8178,-0.8334,-0.8372,-0.8378,-0.8372,-0.8372,-0.8361,-0.8149,-0.8065,-0.7977,-0.8066,-0.8116,-0.8116,-0.8116,-0.8055,-0.7933,-0.7933,-0.7933,-0.7933,-0.7933,-0.7933,-0.7933,-0.7933,-0.7933,-0.7933,-0.7933,-0.7933,-0.7928,-0.7845,-0.7828,-0.7828,-0.7834,-0.7845,-0.7933,-0.7933,-0.7933,-0.7933,-0.7933,-0.7933,-0.7933,-0.7933,-0.7933,-0.7933,-0.7933,-0.7933,-0.7933,-0.7933,-0.7922,-0.795,-0.7867,0.0,0.0,0.0,0.0,0.0,0.0,0.0,0.0,0.0,-0.9144,-0.9046,0.0,-0.956,0.0,-0.9372,-0.9335,-0.9159,-0.9342,0.0,0.0,-0.97,-1.0065,-1.0785,-1.1095,-1.1511,-1.2225,-1.1933,-1.2294,-1.3973,-1.3555,-1.3674,-1.5364,-1.5601,-1.5601,-1.5601,-1.5601,-1.5601,-1.5601,-1.5601,-1.5601,-1.5601,-1.5601,-1.5623,-1.5677,-1.5741,-1.5763,-1.5774,-1.5731,-1.5677,-1.5677,-1.5645,-1.5601,-1.5601,-1.5601,-1.5634,-1.5741,-1.5583,-1.5476,-1.5708,-1.5897,-1.6066,-0.859,-0.859,-0.859,-0.8513,-0.8394,-0.8465,-0.8492,-0.8492,-0.8492,-0.8437,-0.8323,-0.8079,-0.7937,-0.7933,-0.7933,-0.7933,-0.7933,-0.7933,-0.7933,-0.7933,-0.7933,-0.796,-0.7948,-0.7955,-0.796,-0.7948,-0.796,-0.7933,-0.7933,-0.7933,-0.7933,-0.7933,-0.7933,-0.7933,-0.7933,-0.7933,-0.7933,-0.7933,-0.7933,-0.7933,-0.7933,-0.7933,-0.7933,-0.7933,-0.7933,-0.7933,-0.7933,-0.7933,-0.7933,-0.7933,-0.7933,-0.7933,-0.7933,-0.7812,-0.7758,0.0,0.0,0.0,0.0,0.0,0.0,0.0,0.0,0.0,0.0,0.0,-0.9303,0.0,-0.9109,-0.9092,-0.8915,-0.8915,-0.8915,-0.8915,-0.8915,-0.9098,-0.964,-0.9822,-1.0179,-1.0657,-1.0543,-1.114,-1.3006,-1.2955,-1.3255,-1.4748,-1.4997,-1.5116,-1.5472,-1.5601,-1.5601,-1.5601,-1.5601,-1.5601,-1.5601,-1.5601,-1.5601,-1.5601,-1.5601,-1.5601,-1.5601,-1.5601,-1.5601,-1.5601,-1.5601,-1.5601,-1.5601,-1.5601,-1.5601,-1.5542,-1.5472,-1.5449,-1.5661,-1.5894,-1.6044,-0.859,-0.859,-0.859,-0.859,-0.859,-0.859,-0.859,-0.859,-0.859,-0.8454,-0.8161,-0.8013,-0.7899,-0.7933,-0.7933,-0.7933,-0.7933,-0.7888,-0.7955,-0.7894,-0.791,-0.8026,-0.8108,-0.8021,-0.7964,-0.8108,-0.7948,-0.7955,-0.7955,-0.7877,-0.7933,-0.7933,-0.7933,-0.7933,-0.7933,-0.7933,-0.7933,-0.7933,-0.7933,-0.7933,-0.7933,-0.7933,-0.7933,-0.7933,-0.7933,-0.7933,-0.7933,-0.7933,-0.7933,-0.7933,-0.7933,-0.7933,-0.7933,-0.7933,-0.7823,0.0,-0.7818,0.0,0.0,0.0,0.0,0.0,0.0,0.0,0.0,-0.8854,-0.8854,-0.8854,-0.8854,-0.8793,-0.8793,-0.8793,-0.8793,-0.8793,-0.8793,-0.8793,-0.8793,-0.8793,-0.8854,-0.8854,-0.9098,-0.9937,-1.1736,-1.2286,-1.2835,-1.3794,-1.4033,-1.4272,-1.4997,-1.5235,-1.5364,-1.5542,-1.5601,-1.5601,-1.5601,-1.5601,-1.5601,-1.5601,-1.5601,-1.5601,-1.5601,-1.5601,-1.5601,-1.5601,-1.5601,-1.5601,-1.5601,-1.5601,-1.5601,-1.5601,-1.5601,-1.5677,-1.5892,-1.6097,-1.6269,-0.859,-0.859,-0.859,-0.859,-0.859,-0.859,-0.859,-0.859,-0.859,-0.8454,-0.8236,-0.8124,-0.8057,-0.7877,-0.7933,-0.7933,-0.7877,-0.8037,-0.8081,-0.8024,-0.8122,-0.8122,-0.8125,-0.8133,-0.8127,-0.8119,-0.803,-0.8081,-0.8081,-0.7982,-0.7933,-0.7933,-0.7933,-0.7933,-0.7933,0.0,0.0,0.0,-0.7933,-0.7933,-0.7933,-0.7933,-0.7933,-0.7933,-0.7933,0.0,-0.7933,-0.7933,-0.7933,-0.7933,-0.7933,0.0,0.0,0.0,0.0,0.0,0.0,0.0,0.0,0.0,0.0,0.0,-0.8044,-0.8238,-0.8488,-0.8488,-0.8488,-0.8494,-0.8488,-0.8366,-0.8116,-0.8055,-0.8116,-0.8055,-0.8116,-0.8116,-0.8116,-0.8305,-0.8494,-0.8494,-0.8793,-0.9518,-1.0785,-1.1148,-1.1631,-1.2775,-1.2955,-1.3015,-1.3264,-1.3973,-1.4748,-1.5413,-1.5601,-1.5601,-1.5601,-1.5601,-1.5601,-1.5601,-1.5601,-1.5601,-1.5601,-1.5601,-1.5601,-1.5601,-1.5601,-1.5601,-1.5601,-1.5601,-1.5601,-1.5601,-1.5601,-1.5666,-1.5963,-1.6039,-1.6075,-0.859,0.0,-0.859,-0.859,0.0,-0.859,-0.859,-0.859,-0.859,-0.8492,-0.8259,-0.8263,-0.8166,-0.8051,-0.8051,-0.8051,-0.8051,-0.8117,-0.8144,-0.8149,-0.8209,-0.8231,-0.8231,-0.8236,-0.8236,-0.8231,-0.8174,-0.8119,-0.8108,-0.7932,-0.7933,-0.7933,-0.7933,-0.7933,-0.7933,-0.7933,-0.7933,-0.7933,-0.7933,-0.7933,-0.7933,-0.7933,-0.7933,-0.7933,0.0,0.0,0.0,0.0,0.0,0.0,0.0,0.0,0.0,0.0,0.0,-0.7933,-0.7933,-0.7933,-0.7933,-0.7933,-0.7933,-0.7933,-0.7933,-0.7994,-0.8122,-0.8183,-0.8122,-0.8183,-0.8122,-0.8055,-0.7933,-0.7933,-0.7933,-0.7933,-0.7933,-0.7933,-0.7933,-0.8055,-0.8183,-0.8183,-0.8427,-0.9098,-1.0172,-1.0604,-1.1027,-1.1631,-1.1933,-1.1993,-1.2174,-1.3315,-1.451,-1.5413,-1.5601,-1.5601,-1.5601,-1.5601,-1.5601,-1.5601,-1.5601,-1.5601,-1.5601,-1.5601,-1.5601,-1.5601,-1.5601,-1.5601,-1.5601,-1.5601,-1.5601,-1.5601,-1.5601,-1.5634,-1.5763,-1.592,-1.6007,-0.859,-0.859,-0.859,-0.859,-0.859,-0.859,-0.859,-0.859,0.0,0.0,0.0,-0.8312,-0.8188,-0.8236,-0.8236,-0.8236,-0.8236,-0.8194,-0.8205,-0.8205,-0.8226,-0.8339,-0.841,-0.8334,-0.8339,-0.8405,-0.8214,-0.818,-0.8174,-0.7997,-0.7937,-0.7932,-0.7977,-0.7955,-0.7933,-0.7933,-0.7933,-0.7933,-0.7933,-0.7933,-0.7933,-0.7933,-0.7933,-0.7933,-0.7933,-0.7933,-0.7933,-0.7933,-0.7933,-0.7933,-0.7933,-0.7933,-0.7933,-0.7933,-0.7933,-0.7933,-0.7933,-0.7933,-0.7933,-0.7933,-0.7933,-0.7933,-0.7933,-0.7933,-0.7933,-0.7933,-0.7933,-0.7933,-0.7933,-0.7933,-0.7933,-0.7933,-0.7933,-0.7933,-0.7933,-0.7933,-0.7933,-0.7933,-0.7933,-0.7933,-0.8183,-0.861,-0.9451,-0.9997,-1.0429,-1.0543,-1.0785,-1.1209,-1.1692,-1.3135,-1.451,-1.5423,-1.5601,-1.5601,-1.5601,-1.5601,-1.5601,-1.5601,-1.5601,-1.5601,-1.5601,-1.5601,-1.5601,-1.5601,-1.5601,-1.5601,-1.5601,-1.5601,-1.5601,-1.5601,-1.5601,-1.5612,-1.5666,-1.5817,-1.5931,-0.859,-0.859,-0.859,-0.859,-0.859,-0.859,-0.859,-0.859,-0.859,-0.8524,-0.8416,-0.8399,-0.8269,-0.8236,-0.8236,-0.8236,-0.8178,-0.8345,-0.8394,0.0,-0.8492,-0.8497,-0.8421,-0.8503,-0.8497,-0.8421,-0.8383,-0.8367,-0.8356,-0.8236,-0.8124,-0.8171,-0.8079,-0.8037,-0.7877,-0.7933,-0.7933,-0.7933,-0.7933,-0.7933,-0.7933,-0.7933,-0.7933,-0.7933,-0.7933,-0.7933,-0.7933,-0.7933,-0.7933,-0.7933,-0.7933,-0.7933,-0.7933,-0.7933,-0.7933,-0.7933,-0.7933,-0.7933,-0.7933,-0.7933,-0.7933,-0.7933,-0.7933,-0.7933,-0.7933,-0.7933,-0.7933,-0.7933,-0.7933,-0.7933,-0.7933,-0.7933,-0.7933,-0.7933,-0.7933,-0.7933,-0.7933,-0.7933,-0.7933,-0.7933,-0.7933,-0.8122,-0.8549,-0.8732,-0.9098,-0.9396,-0.9761,-1.0308,-1.2053,-1.3435,-1.451,-1.5353,-1.5601,-1.5601,-1.5364,-1.5601,-1.5423,-1.5601,-1.5542,-1.5483,-1.5483,-1.5564,-1.5623,-1.5612,-1.5645,-1.5645,-1.5634,-1.5601,-1.5645,-1.5655,-1.5655,-1.5698,-1.592,-1.6007,-1.5892,-0.859,-0.859,-0.859,-0.859,-0.859,-0.859,-0.859,-0.859,-0.859,-0.8557,-0.8513,-0.8513,-0.8481,-0.8426,-0.8426,-0.8426,-0.8426,-0.8486,-0.8508,-0.8513,-0.8562,-0.8557,-0.8519,-0.8562,-0.8562,-0.8508,-0.8443,-0.8421,-0.8405,-0.8232,-0.8236,-0.8231,-0.8176,-0.8122,-0.8073,-0.8068,-0.8068,-0.8062,-0.7937,-0.7933,-0.7933,-0.7933,-0.7933,-0.7933,-0.7933,-0.7933,-0.7933,-0.7933,-0.7933,-0.7933,-0.7933,-0.7933,-0.7933,-0.7933,-0.7933,-0.7933,-0.7933,-0.7933,-0.7933,-0.7933,-0.7933,-0.7933,-0.7933,-0.7933,-0.7933,-0.7933,-0.7933,-0.7933,-0.7933,-0.7933,-0.7933,-0.7933,-0.7933,-0.7933,-0.7933,-0.7933,-0.7933,-0.7933,-0.7933,-0.7933,-0.7933,-0.7994,-0.8122,-0.8305,-0.8549,-0.9037,-0.9335,-1.0186,-1.17,-1.2294,-1.3195,-1.4451,-1.4391,-1.4043,-1.4043,-1.4043,-1.4043,-1.4043,-1.452,-1.4748,-1.4888,-1.5259,-1.5774,-1.5806,-1.5881,-1.5978,-1.5978,-1.5989,-1.5989,-1.5989,-1.5989,-1.6043,-1.6129,-1.6151,-1.6108,-0.859,-0.859,-0.859,-0.859,-0.859,-0.859,-0.859,-0.859,-0.859,-0.859,-0.859,-0.859,-0.859,-0.859,-0.859,-0.8584,-0.859,-0.859,-0.8584,-0.859,-0.859,-0.859,-0.859,-0.859,-0.859,-0.8579,-0.8497,-0.8454,-0.8443,-0.8361,-0.8301,-0.828,-0.8274,-0.8199,-0.8236,-0.8236,-0.8236,-0.822,-0.8051,-0.7937,-0.791,-0.7915,-0.796,-0.7933,-0.7933,-0.7933,-0.7933,-0.7933,-0.7933,-0.7933,-0.7933,-0.7933,-0.7933,-0.7933,-0.7933,-0.7933,-0.7933,-0.7933,-0.7933,-0.7933,-0.7933,-0.7933,-0.7933,-0.7933,-0.7933,-0.7933,-0.7933,-0.7933,-0.7933,-0.7933,-0.7933,-0.7933,-0.7933,-0.7933,-0.7933,-0.7933,-0.7933,-0.7933,-0.7933,-0.7933,-0.7955,-0.7915,-0.7977,-0.8184,-0.8464,-0.8835,-0.9309,-1.004,-1.1019,-1.1141,-1.1683,-1.289,-1.3114,-1.2942,-1.2769,-1.2925,-1.2934,-1.2847,-1.3416,-1.3949,-1.432,-1.5073,-1.57,-1.5853,-1.6075,-1.6194,-1.628,-1.6291,-1.628,-1.6258,-1.6247,-1.6301,-1.6377,-1.6452,-1.6409,-0.859,-0.859,-0.859,-0.859,-0.859,-0.859,-0.859,-0.859,-0.859,-0.859,-0.859,-0.859,-0.859,-0.859,-0.859,-0.859,-0.859,-0.859,-0.859,-0.859,-0.859,-0.859,-0.859,-0.859,-0.859,-0.8584,-0.8573,-0.8562,-0.8562,-0.8552,-0.8497,-0.841,-0.8399,-0.8345,-0.8253,-0.8242,-0.8236,-0.8236,-0.8151,-0.8149,-0.8046,-0.8097,-0.8043,-0.7933,-0.7933,-0.7933,-0.7933,-0.7933,-0.7933,-0.7933,-0.7933,-0.7933,-0.7933,-0.7933,-0.7933,-0.7933,-0.7933,-0.7933,-0.7933,-0.7933,-0.7933,-0.7933,-0.7877,-0.7939,-0.7877,-0.7877,-0.7933,-0.7944,-0.7939,-0.7933,-0.7933,-0.7877,-0.7888,-0.7966,-0.7894,-0.7933,-0.7888,-0.7933,-0.7933,-0.7933,-0.7981,-0.8097,-0.8108,-0.8174,-0.8372,-0.8666,-0.9103,-0.9727,-1.0734,-1.0482,-1.044,-1.1682,-1.2349,-1.2811,-1.2914,-1.3108,-1.2815,-1.294,-1.3013,-1.3303,-1.3878,-1.4287,-1.467,-1.5697,-1.6093,-1.6151,-1.6301,-1.6312,-1.6334,-1.6409,-1.6409,-1.6398,-1.6592,-1.6764,-1.6743,-0.859,-0.859,-0.859,-0.859,-0.859,-0.859,-0.859,-0.859,-0.859,-0.859,-0.859,-0.859,-0.859,-0.859,-0.859,-0.859,-0.859,-0.859,-0.859,-0.859,-0.859,-0.859,-0.859,-0.859,-0.859,-0.859,-0.859,-0.859,-0.859,-0.859,-0.8562,-0.8524,-0.8519,-0.8492,-0.8448,-0.8443,-0.8443,-0.8443,-0.8443,-0.8388,-0.8274,-0.8198,-0.8106,-0.8059,-0.7981,-0.8004,-0.7877,-0.7933,-0.7933,-0.7933,-0.7933,-0.7933,-0.7933,-0.7933,-0.7933,-0.7933,-0.7933,-0.7933,-0.7933,-0.7933,-0.7933,-0.7933,-0.7937,-0.8043,-0.8043,-0.8046,-0.8084,-0.8068,-0.7954,-0.7955,-0.7964,-0.8043,-0.8008,-0.8068,-0.8084,-0.8084,-0.8084,-0.8084,-0.8084,-0.8089,-0.8127,-0.816,-0.8166,-0.8331,-0.855,-0.8742,-0.8997,-0.9513,-1.0199,-0.9945,-1.0112,-1.0813,-1.1295,-1.1434,-1.1561,-1.1474,-1.1545,-1.1593,-1.1917,-1.2486,-1.2852,-1.4117,-1.4955,-1.5462,-1.6012,-1.6431,-1.671,-1.6603,-1.6549,-1.6614,-1.6721,-1.6764,-1.685,-1.6937,-1.6883,-0.859,-0.859,-0.859,-0.859,-0.859,-0.859,-0.859,-0.859,-0.859,-0.859,-0.859,-0.859,-0.859,-0.859,-0.859,-0.859,-0.859,-0.859,-0.859,-0.859,-0.859,-0.859,-0.859,-0.859,-0.859,-0.859,-0.859,-0.859,-0.859,-0.859,-0.859,-0.859,-0.859,-0.859,-0.859,-0.859,-0.859,-0.8584,-0.859,-0.8546,-0.8465,-0.8378,-0.8258,-0.8117,-0.8136,-0.807,-0.7988,-0.7982,-0.7982,-0.7982,-0.7954,-0.797,-0.797,-0.797,-0.797,-0.797,-0.797,-0.797,-0.797,-0.797,-0.797,-0.7975,-0.8057,-0.8106,-0.8117,-0.8182,-0.8231,-0.8156,-0.8073,-0.8019,-0.8084,-0.8169,-0.8144,-0.8225,-0.8236,-0.8236,-0.8231,-0.8236,-0.8225,-0.8236,-0.8258,-0.8301,-0.8323,-0.8534,-0.8669,-0.8733,-0.8857,-0.9162,-0.9484,-0.9561,-0.9728,-1.0208,-1.0359,-1.0449,-1.0419,-1.0612,-1.0399,-1.0642,-1.1276,-1.198,-1.2155,-1.3916,-1.5346,-1.5836,-1.635,-1.6668,-1.6861,-1.6818,-1.6764,-1.6926,-1.6926,-1.6915,-1.6969,-1.7001,-1.7001,-0.859,-0.859,-0.859,-0.859,-0.859,-0.859,-0.859,-0.859,-0.859,-0.859,-0.859,-0.859,-0.859,-0.859,-0.859,-0.859,-0.859,-0.859,-0.859,-0.859,-0.859,-0.859,-0.859,-0.859,-0.859,-0.859,-0.859,-0.859,-0.859,-0.859,-0.859,-0.859,-0.859,-0.859,-0.859,-0.859,-0.859,-0.859,-0.859,-0.8584,-0.8573,-0.8568,-0.8448,-0.8253,-0.8122,-0.813,-0.8108,-0.8108,-0.8108,-0.8108,-0.8144,-0.8209,-0.8209,-0.8209,-0.8204,-0.8204,-0.8209,-0.8145,-0.8204,-0.8198,-0.8198,-0.8209,-0.8214,-0.8225,-0.8225,-0.8253,-0.8269,-0.8183,-0.8242,-0.8225,-0.8236,-0.8231,-0.8236,-0.8194,-0.8183,-0.8253,-0.8183,-0.8274,-0.8242,-0.8269,-0.835,-0.8432,-0.8541,-0.8573,-0.8612,-0.8612,-0.8623,-0.8817,-0.9125,-0.9143,-0.9347,-0.9757,-1.0101,-1.0306,-1.0631,-1.0629,-1.0649,-1.0761,-1.1243,-1.2226,-1.325,-1.4297,-1.5223,-1.6086,-1.6445,-1.6754,-1.6926,-1.699,-1.6958,-1.6936,-1.6807,-1.6807,-1.6613,-1.6872,-1.6678,-0.859,-0.859,-0.859,-0.859,-0.859,-0.859,-0.859,-0.859,-0.859,-0.859,-0.859,-0.859,-0.859,-0.859,-0.859,-0.859,-0.859,-0.859,-0.859,-0.859,-0.859,-0.859,-0.859,-0.859,-0.859,-0.859,-0.859,-0.859,-0.859,-0.859,-0.859,-0.859,-0.859,-0.859,-0.859,-0.859,-0.859,-0.859,-0.859,-0.859,-0.859,-0.859,-0.8541,-0.8459,-0.835,-0.8247,-0.8171,-0.8171,-0.8171,-0.8171,-0.8151,-0.8236,-0.8236,-0.8236,-0.8236,-0.8236,-0.8236,-0.8236,-0.8236,-0.8236,-0.8236,-0.8242,-0.8312,-0.835,-0.8361,-0.8416,-0.8459,-0.8454,-0.8459,-0.8459,-0.8443,-0.8399,-0.8383,-0.8443,-0.8459,-0.8448,-0.8459,-0.8459,-0.8465,-0.847,-0.8503,-0.8546,-0.8568,-0.859,-0.859,-0.859,-0.859,-0.8784,-0.8984,-0.9117,-0.9256,-0.9861,-1.0127,-1.0319,-1.0651,-1.0717,-1.0711,-1.077,-1.1125,-1.168,-1.2548,-1.369,-1.4632,-1.5623,-1.62,-1.6392,-1.6431,-1.6548,-1.6613,-1.6613,-1.6483,-1.6029,-1.5964,-1.5834,-1.5378,-0.859,-0.859,-0.859,-0.859,-0.859,-0.859,-0.859,-0.859,-0.859,-0.859,-0.859,-0.859,-0.859,-0.859,-0.859,-0.859,-0.859,-0.859,-0.859,-0.859,-0.859,-0.859,-0.859,-0.859,-0.859,-0.859,-0.859,-0.859,-0.859,-0.859,-0.859,-0.859,-0.859,-0.859,-0.859,-0.859,-0.859,-0.859,-0.859,-0.859,-0.859,-0.859,-0.859,-0.8573,-0.8513,-0.8416,-0.8237,-0.8296,-0.8291,-0.8301,-0.8329,-0.835,-0.835,-0.8345,-0.835,-0.835,-0.835,-0.835,-0.835,-0.835,-0.835,-0.835,-0.8421,-0.8475,-0.8481,-0.8546,-0.8579,-0.859,-0.859,-0.859,-0.8573,-0.8513,-0.8503,-0.8573,-0.859,-0.859,-0.859,-0.8584,-0.8579,-0.8573,-0.8573,-0.8584,-0.859,-0.859,-0.859,-0.859,-0.859,-0.8717,-0.8851,-0.8984,-0.905,-0.9588,-0.9721,-0.9854,-1.012,-1.0253,-1.0585,-1.0644,-1.1167,-1.1637,-1.2033,-1.3153,-1.4063,-1.5014,-1.5579,-1.5808,-1.5958,-1.6009,-1.6029,-1.6029,-1.5574,-1.4922,-1.4726,-1.4464,-1.4202,-0.859,-0.859,-0.859,-0.859,-0.859,-0.859,-0.859,-0.859,-0.859,-0.859,-0.859,-0.859,-0.859,-0.859,-0.859,-0.859,-0.859,-0.859,-0.859,-0.859,-0.859,-0.859,-0.859,-0.859,-0.859,-0.859,-0.859,-0.859,-0.859,-0.859,-0.859,-0.859,-0.859,-0.859,-0.859,-0.859,-0.859,-0.859,-0.859,-0.859,-0.859,-0.859,-0.859,-0.859,-0.8579,-0.8524,-0.8421,-0.8416,-0.8416,-0.8426,-0.8513,-0.8579,-0.8557,-0.8557,-0.8573,-0.8557,-0.8573,-0.8579,-0.8573,-0.8562,-0.8546,-0.8552,-0.8573,-0.8568,-0.8568,-0.8579,-0.859,-0.859,-0.859,-0.859,-0.859,-0.8573,-0.8573,-0.859,-0.859,-0.859,-0.859,-0.859,-0.859,-0.859,-0.859,-0.859,-0.859,-0.859,-0.859,-0.859,-0.859,-0.859,-0.8651,-0.8717,-0.8656,-0.8784,-0.9123,-0.9449,-0.9582,-0.9721,-1.0187,-1.0651,-1.1372,-1.1894,-1.2091,-1.2882,-1.3538,-1.4371,-1.4437,-1.4679,-1.4809,-1.4856,-1.4726,-1.4595,-1.4137,-1.394,-1.3678,-1.3481,-1.3416,-0.859,-0.859,-0.859,-0.859,-0.859,-0.859,-0.859,-0.859,-0.859,-0.859,-0.859,-0.859,-0.859,-0.859,-0.859,-0.859,-0.859,-0.859,-0.859,-0.859,-0.859,-0.859,-0.859,-0.859,-0.859,-0.859,-0.859,-0.859,-0.8595,-0.8595,-0.859,-0.859,-0.859,-0.859,-0.859,-0.859,-0.859,-0.859,-0.859,-0.859,-0.859,-0.859,-0.859,-0.859,-0.859,-0.8568,-0.8535,-0.8535,-0.8535,-0.853,-0.8568,-0.859,-0.859,-0.859,-0.859,-0.859,-0.859,-0.859,-0.859,-0.859,-0.859,-0.859,-0.859,-0.859,-0.859,-0.859,-0.859,-0.859,-0.859,-0.859,-0.859,-0.859,-0.859,-0.859,-0.859,-0.859,-0.859,-0.859,-0.859,-0.859,-0.859,-0.859,-0.859,-0.859,-0.859,-0.859,-0.859,-0.859,-0.859,-0.859,-0.8717,-0.8917,-0.905,-0.9117,-0.9322,-0.9522,-0.9788,-1.0187,-1.0843,-1.1372,-1.1769,-1.2091,-1.2816,-1.3202,-1.3276,-1.3407,-1.3613,-1.3613,-1.3481,-1.3416,-1.3218,-1.3021,-1.275,-1.2561,-1.2429,-0.859,-0.859,-0.859,-0.859,-0.859,-0.859,-0.859,-0.859,-0.859,-0.859,-0.859,-0.859,-0.859,-0.859,-0.859,-0.859,-0.859,-0.859,-0.859,-0.859,-0.859,-0.859,-0.859,-0.859,-0.8617,-0.8649,-0.8655,-0.8682,-0.872,-0.872,-0.8725,-0.872,-0.8677,-0.8655,-0.8649,-0.8611,-0.859,-0.859,-0.859,-0.859,-0.859,-0.859,-0.859,-0.859,-0.859,-0.859,-0.859,-0.859,-0.859,-0.859,-0.859,-0.859,-0.859,-0.859,-0.859,-0.859,-0.859,-0.859,-0.859,-0.859,-0.859,-0.859,-0.859,-0.859,-0.859,-0.859,-0.859,-0.859,-0.859,-0.859,-0.859,-0.859,-0.859,-0.859,-0.859,-0.859,-0.859,-0.859,-0.859,-0.859,-0.859,-0.859,-0.859,-0.859,-0.859,-0.859,-0.859,-0.859,-0.859,-0.859,-0.8784,-0.8851,-0.8851,-0.8989,-0.9189,-0.9322,-0.9455,-0.9788,-1.012,-1.0518,-1.0843,-1.1042,-1.1505,-1.1762,-1.1894,-1.2025,-1.2231,-1.2297,-1.2231,-1.2231,-1.2297,-1.1967,-1.1637,-1.1446,-1.1247,-0.859,-0.859,-0.859,-0.859,-0.859,-0.859,-0.859,-0.859,-0.859,-0.859,-0.859,-0.8606,-0.8606,-0.8606,-0.8638,-0.8644,-0.8617,-0.8638,-0.8644,-0.8638,-0.8638,-0.8638,-0.8622,-0.8622,-0.8677,-0.8769,-0.878,-0.8834,-0.8905,-0.8841,-0.8879,-0.891,-0.8823,-0.8769,-0.8742,-0.8649,-0.8606,-0.859,-0.859,-0.859,-0.859,-0.859,-0.859,-0.859,-0.859,-0.859,-0.859,-0.859,-0.859,-0.859,-0.859,-0.859,-0.859,-0.859,-0.859,-0.859,-0.859,-0.859,-0.859,-0.859,-0.859,-0.859,-0.859,-0.859,-0.859,-0.859,-0.859,-0.859,-0.859,-0.859,-0.859,-0.859,-0.859,-0.859,-0.859,-0.859,-0.859,-0.859,-0.859,-0.859,-0.859,-0.859,-0.859,-0.859,-0.859,-0.859,-0.859,-0.859,-0.859,-0.859,-0.859,-0.8651,-0.8717,-0.8784,-0.8989,-0.8989,-0.9123,-0.9256,-0.9588,-0.9854,-0.9921,-1.012,-1.018,-1.0379,-1.0644,-1.0777,-1.0975,-1.1181,-1.1247,-1.1314,-1.1115,-1.0784,-1.0717,-1.0724,-1.0731,-0.859,-0.859,-0.859,-0.859,-0.859,-0.859,-0.859,-0.859,-0.859,-0.8606,-0.8611,-0.8687,-0.872,-0.8731,-0.8812,-0.8787,-0.8771,-0.8845,-0.8787,-0.8856,-0.8787,-0.8796,-0.8736,-0.8725,-0.8785,-0.8889,-0.8905,-0.8852,-0.8879,-0.89,-0.8895,-0.8879,-0.8932,-0.8856,-0.8774,-0.8742,-0.8671,-0.86,-0.859,-0.8595,-0.86,-0.86,-0.859,-0.859,-0.859,-0.859,-0.859,-0.859,-0.859,-0.859,-0.859,-0.859,-0.859,-0.859,-0.859,-0.859,-0.859,-0.859,-0.859,-0.859,-0.859,-0.859,-0.859,-0.859,-0.859,-0.859,-0.859,-0.859,-0.859,-0.859,-0.859,-0.859,-0.859,-0.859,-0.859,-0.859,-0.859,-0.859,-0.859,-0.859,-0.859,-0.859,-0.859,-0.859,-0.859,-0.859,-0.859,-0.859,-0.859,-0.859,-0.859,-0.859,-0.8651,-0.8656,-0.8656,-0.8717,-0.8784,-0.8784,-0.905,-0.9316,-0.9316,-0.9256,-0.9316,-0.9383,-0.9715,-0.9915,-1.0253,-1.0459,-1.0452,-1.0518,-1.0651,-1.0585,-1.0658,-1.0724,-1.0738,-0.859,-0.859,-0.859,-0.859,-0.8595,-0.8644,-0.8666,-0.8677,-0.872,-0.8742,-0.8758,-0.8812,-0.8845,-0.8856,-0.8847,-0.8879,-0.8879,-0.8879,-0.8879,-0.8879,-0.8874,-0.8905,-0.8856,-0.8845,-0.891,-0.9019,-0.896,-0.8987,-0.9095,-0.9101,-0.9101,-0.9095,-0.8981,-0.8895,-0.8856,-0.8845,-0.8785,-0.8698,-0.8709,-0.8742,-0.8742,-0.8742,-0.8742,-0.8725,-0.8698,-0.8649,-0.86,-0.859,-0.859,-0.859,-0.859,-0.859,-0.859,-0.859,-0.859,-0.859,-0.859,-0.859,-0.859,-0.859,-0.859,-0.859,-0.859,-0.859,-0.859,-0.859,-0.859,-0.859,-0.859,-0.859,-0.859,-0.859,-0.859,-0.859,-0.859,-0.859,-0.859,-0.859,-0.859,-0.859,-0.859,-0.859,-0.859,-0.859,-0.859,-0.859,-0.859,-0.859,-0.859,-0.859,-0.8595,-0.8606,-0.8606,-0.8606,-0.8611,-0.8678,-0.8695,-0.8689,-0.8745,-0.894,-0.8934,-0.8801,-0.8784,-0.8917,-0.8984,-0.9183,-0.9588,-0.9927,-1.006,-1.0193,-1.0386,-1.0459,-1.0465,-1.0678,-1.0745,-0.8595,-0.8606,-0.8606,-0.8606,-0.8633,-0.8736,-0.8791,-0.8807,-0.8883,-0.8857,-0.8868,-0.889,-0.89,-0.89,-0.8944,-0.8997,-0.9003,-0.8954,-0.8944,-0.9019,-0.9019,-0.8938,-0.9008,-0.8911,-0.9041,-0.9133,-0.9079,-0.9198,-0.9242,-0.928,-0.9291,-0.9253,-0.9182,-0.9019,-0.8922,-0.89,-0.8905,-0.8829,-0.8867,-0.8836,-0.8905,-0.8905,-0.883,-0.882,-0.8829,-0.8747,-0.8677,-0.8644,-0.8644,-0.8633,-0.86,-0.859,-0.859,-0.859,-0.859,-0.859,-0.859,-0.859,-0.859,-0.859,-0.859,-0.859,-0.859,-0.859,-0.859,-0.859,-0.859,-0.859,-0.859,-0.859,-0.859,-0.859,-0.8606,-0.8617,-0.8617,-0.8611,-0.8606,-0.8595,-0.859,-0.859,-0.859,-0.859,-0.859,-0.859,-0.859,-0.859,-0.859,-0.859,-0.8606,-0.8633,-0.8638,-0.8644,-0.8638,-0.8628,-0.8633,-0.8638,-0.866,-0.8671,-0.8727,-0.8784,-0.8901,-0.8828,-0.8667,-0.8651,-0.8784,-0.8984,-0.9183,-0.9455,-0.9594,-0.9813,-1.0092,-1.0159,-1.0171,-1.057,-1.0697,-0.8644,-0.8731,-0.8731,-0.8731,-0.8747,-0.8861,-0.8916,-0.8916,-0.8874,-0.89,-0.8906,-0.9052,-0.909,-0.9101,-0.9171,-0.9226,-0.9209,-0.9204,-0.9226,-0.9226,-0.9226,-0.9226,-0.9198,-0.9068,-0.916,-0.9237,-0.9264,-0.928,-0.9302,-0.9302,-0.9302,-0.9296,-0.9269,-0.9209,-0.9106,-0.9084,-0.8965,-0.8874,-0.8879,-0.89,-0.8906,-0.8906,-0.89,-0.889,-0.8857,-0.8905,-0.8814,-0.8803,-0.8872,-0.8829,-0.8709,-0.8617,-0.8617,-0.8611,-0.8606,-0.86,-0.8595,-0.8595,-0.859,-0.859,-0.859,-0.859,-0.859,-0.859,-0.859,-0.859,-0.859,-0.859,-0.859,-0.86,-0.8617,-0.8595,-0.8644,-0.8709,-0.8731,-0.8731,-0.872,-0.8649,-0.8617,-0.8595,-0.8595,-0.859,-0.859,-0.859,-0.859,-0.859,-0.8595,-0.859,-0.8628,-0.8682,-0.8709,-0.8731,-0.8731,-0.8742,-0.8764,-0.8758,-0.8758,-0.8764,-0.8747,-0.8698,-0.8822,-0.8856,-0.8695,-0.8606,-0.8656,-0.8784,-0.8984,-0.9073,-0.9291,-0.9576,-0.9747,-0.9857,-1.0048,-1.0359,-1.0711,-0.8108,-0.8301,-0.8369,-0.8512,-0.8803,-0.8911,-0.8965,-0.8981,-0.9095,-0.9117,-0.9128,-0.9188,-0.9209,-0.9215,-0.9275,-0.9302,-0.9302,-0.9302,-0.9302,-0.9296,-0.9296,-0.9302,-0.9296,-0.9253,-0.9253,-0.9302,-0.9302,-0.9302,-0.9302,-0.9302,-0.9302,-0.9302,-0.9302,-0.9231,-0.9166,-0.9182,-0.915,-0.9079,-0.9025,-0.9117,-0.9117,-0.9117,-0.9008,-0.8981,-0.8965,-0.8949,-0.8879,-0.8879,-0.8879,-0.8852,-0.876,-0.8758,-0.8758,-0.8753,-0.8731,-0.8682,-0.8671,-0.8638,-0.8611,-0.859,-0.859,-0.859,-0.859,-0.859,-0.859,-0.859,-0.8622,-0.8655,-0.8682,-0.8693,-0.8747,-0.8764,-0.8802,-0.8829,-0.8856,-0.8856,-0.8845,-0.8796,-0.8725,-0.8693,-0.8682,-0.8682,-0.8671,-0.8649,-0.8606,-0.8611,-0.8693,-0.8693,-0.8725,-0.8774,-0.8834,-0.8856,-0.8856,-0.8867,-0.883,-0.883,-0.8809,-0.8878,-0.8867,-0.8802,-0.8821,-0.8777,-0.8727,-0.8628,-0.8595,-0.8656,-0.879,-0.8884,-0.9007,-0.9182,-0.9369,-0.957,-0.9779,-1.0146,-1.048,-0.7488,-0.7766,-0.785,-0.8278,-0.8788,-0.9035,-0.916,-0.9177,-0.9264,-0.9275,-0.9302,-0.9302,-0.9285,-0.9302,-0.9296,-0.9302,-0.9302,-0.9302,-0.9302,-0.9302,-0.9302,-0.9302,-0.9296,-0.9296,-0.9291,-0.9302,-0.9302,-0.9302,-0.9302,-0.9302,-0.9302,-0.9302,-0.9302,-0.9258,-0.9209,-0.9242,-0.9247,-0.9177,-0.9226,-0.9269,-0.9275,-0.9275,-0.9231,-0.9177,-0.916,-0.9122,-0.9057,-0.9035,-0.9019,-0.9003,-0.8933,-0.8933,-0.8927,-0.8884,-0.8847,-0.8802,-0.8796,-0.8764,-0.8704,-0.8671,-0.8666,-0.8638,-0.8649,-0.8655,-0.866,-0.8677,-0.872,-0.8764,-0.8802,-0.8834,-0.8863,-0.8847,-0.8868,-0.89,-0.8911,-0.8911,-0.8911,-0.8917,-0.8948,-0.8823,-0.8796,-0.8796,-0.8774,-0.8747,-0.8687,-0.8655,-0.8742,-0.8802,-0.8834,-0.8883,-0.8948,-0.8976,-0.8981,-0.8981,-0.8938,-0.8949,-0.8927,-0.8944,-0.8933,-0.8932,-0.8867,-0.8867,-0.8823,-0.8649,-0.86,-0.8684,-0.8733,-0.8799,-0.8916,-0.8875,-0.9079,-0.9301,-0.9584,-0.9859,-1.0177,-0.7557,-0.7427,-0.8072,-0.8459,-0.8616,-0.9077,-0.9269,-0.928,-0.9291,-0.9302,-0.9302,-0.9302,-0.9302,-0.9302,-0.9302,-0.9302,-0.9302,-0.9302,-0.9302,-0.9302,-0.9302,-0.9302,-0.9302,-0.9302,-0.9302,-0.9302,-0.9302,-0.9302,-0.9302,-0.9302,-0.9302,-0.9302,-0.9302,-0.928,-0.9275,-0.9296,-0.9296,-0.9258,-0.9285,-0.9302,-0.9302,-0.9302,-0.9296,-0.9258,-0.9258,-0.9242,-0.9242,-0.9237,-0.9247,-0.9242,-0.9242,-0.9237,-0.9193,-0.9063,-0.897,-0.8863,-0.8921,-0.8899,-0.8856,-0.8867,-0.8883,-0.8825,-0.8798,-0.8803,-0.8872,-0.8809,-0.8872,-0.8836,-0.8857,-0.8868,-0.8879,-0.8917,-0.9014,-0.8998,-0.9035,-0.903,-0.9046,-0.9144,-0.9133,-0.8981,-0.8943,-0.8921,-0.8894,-0.8867,-0.8823,-0.8812,-0.8872,-0.8916,-0.8938,-0.9008,-0.909,-0.9101,-0.9106,-0.9106,-0.9041,-0.9046,-0.9052,-0.916,-0.915,-0.9019,-0.9052,-0.9073,-0.8997,-0.8791,-0.8709,-0.8736,-0.8791,-0.8851,-0.8894,-0.8927,-0.9084,-0.9171,-0.9422,-0.9669,-0.9864,-0.7144,-0.722,-0.7764,-0.8284,-0.8652,-0.9131,-0.9302,-0.9302,-0.9302,-0.9302,-0.9302,-0.9302,-0.9302,-0.9302,-0.9302,-0.9302,-0.9302,-0.9302,-0.9302,-0.9302,-0.9302,-0.9302,-0.9302,-0.9302,-0.9302,-0.9302,-0.9302,-0.9302,-0.9302,-0.9302,-0.9302,-0.9302,-0.9302,-0.9302,-0.9302,-0.9302,-0.9302,-0.9302,-0.9302,-0.9302,-0.9302,-0.9302,-0.9302,-0.9302,-0.9302,-0.9302,-0.9302,-0.9302,-0.9302,-0.9296,-0.9302,-0.9302,-0.9269,-0.9209,-0.9101,-0.8987,-0.8976,-0.8944,-0.89,-0.8879,-0.8874,-0.8879,-0.8884,-0.8879,-0.8879,-0.8879,-0.8986,-0.9041,-0.9117,-0.9062,-0.9073,-0.9128,-0.9166,-0.9198,-0.922,-0.9215,-0.9231,-0.9275,-0.9215,-0.9122,-0.9084,-0.9052,-0.903,-0.8997,-0.889,-0.8906,-0.8944,-0.896,-0.8971,-0.9111,-0.9198,-0.9198,-0.9198,-0.9198,-0.9193,-0.9198,-0.9204,-0.9247,-0.9264,-0.9204,-0.9166,-0.9155,-0.9046,-0.8809,-0.8851,-0.8883,-0.8905,-0.8959,-0.8933,-0.8987,-0.9133,-0.9275,-0.9297,-0.9402,-0.9646,-0.662,-0.6889,-0.7412,-0.7928,-0.8507,-0.9013,-0.9157,-0.9163,-0.9302,-0.9302,-0.9302,-0.9302,-0.9302,-0.9302,-0.9302,-0.9302,-0.9302,-0.9302,-0.9302,-0.9302,-0.9302,-0.9302,-0.9302,-0.9302,-0.9302,-0.9302,-0.9302,-0.9302,-0.9302,-0.9302,-0.9302,-0.9302,-0.9302,-0.9302,-0.9302,-0.9302,-0.9302,-0.9302,-0.9302,-0.9302,-0.9302,-0.9302,-0.9302,-0.9302,-0.9302,-0.9302,-0.9302,-0.9302,-0.9302,-0.9302,-0.9302,-0.9302,-0.9302,-0.9302,-0.9258,-0.9188,-0.9171,-0.9041,-0.9063,-0.9035,-0.9063,-0.9063,-0.9035,-0.903,-0.9035,-0.9068,-0.9079,-0.9166,-0.9231,-0.928,-0.9264,-0.9291,-0.9291,-0.9291,-0.9291,-0.9302,-0.9291,-0.9296,-0.9296,-0.9237,-0.9204,-0.9177,-0.915,-0.9144,-0.9111,-0.9106,-0.9144,-0.9155,-0.9171,-0.9209,-0.9269,-0.928,-0.928,-0.928,-0.9275,-0.9269,-0.9269,-0.9275,-0.9285,-0.9253,-0.9215,-0.9188,-0.9079,-0.9014,-0.9035,-0.9063,-0.9068,-0.9073,-0.9133,-0.9193,-0.9258,-0.9285,-0.9275,-0.9352,-0.9441,-0.6729,-0.6452,-0.7242,-0.7638,-0.7856,-0.8507,-0.8801,-0.8796,-0.9085,-0.9302,-0.923,-0.9302,-0.9302,-0.9302,-0.9302,-0.9302,-0.9302,-0.9302,-0.9302,-0.9302,-0.9318,-0.9323,-0.9313,-0.9302,-0.9345,-0.9356,-0.934,-0.9302,-0.9329,-0.9329,-0.9313,-0.9318,-0.9323,-0.9313,-0.9356,-0.9362,-0.9302,-0.9307,-0.9307,-0.9302,-0.9302,-0.9302,-0.9302,-0.9302,-0.9302,-0.9302,-0.9302,-0.9302,-0.9302,-0.9302,-0.9302,-0.9302,-0.9302,-0.9302,-0.9302,-0.9285,-0.928,-0.9275,-0.9242,-0.922,-0.922,-0.9215,-0.9226,-0.9253,-0.9226,-0.922,-0.9231,-0.9275,-0.9302,-0.9302,-0.9302,-0.9302,-0.9302,-0.9302,-0.9302,-0.9302,-0.9302,-0.9302,-0.9302,-0.9302,-0.9253,-0.9264,-0.9258,-0.9264,-0.9269,-0.9269,-0.9269,-0.9269,-0.9275,-0.9296,-0.9302,-0.9302,-0.9302,-0.9302,-0.9302,-0.9302,-0.9302,-0.9302,-0.9296,-0.9291,-0.9264,-0.9242,-0.9264,-0.9215,-0.9226,-0.9193,-0.916,-0.9182,-0.9258,-0.9285,-0.9291,-0.9296,-0.9302,-0.9302,-0.9302,-0.6894,-0.6793,-0.7331,-0.7566,-0.7638,-0.815,-0.8367,-0.8367,-0.8512,-0.8729,-0.8946,-0.8941,-0.909,-0.9235,-0.9302,-0.9302,-0.9302,-0.9313,-0.9302,-0.934,-0.9372,-0.9405,-0.9432,-0.9476,-0.9508,-0.9492,-0.9514,-0.953,-0.9481,-0.9378,-0.9329,-0.9405,-0.9416,-0.9459,-0.9476,-0.9508,-0.947,-0.9416,-0.9345,-0.9307,-0.9302,-0.9302,-0.9302,-0.9302,-0.9302,-0.9302,-0.9302,-0.9302,-0.9302,-0.9302,-0.9302,-0.9302,-0.9302,-0.9302,-0.9302,-0.9302,-0.9302,-0.9302,-0.9296,-0.9302,-0.9302,-0.9302,-0.9302,-0.9291,-0.9302,-0.9302,-0.9302,-0.9302,-0.9302,-0.9302,-0.9302,-0.9302,-0.9302,-0.9302,-0.9302,-0.9302,-0.9302,-0.9302,-0.9302,-0.9302,-0.9302,-0.9302,-0.9302,-0.9296,-0.9291,-0.9285,-0.9285,-0.9285,-0.9291,-0.9296,-0.9302,-0.9302,-0.9302,-0.9302,-0.9302,-0.9302,-0.9302,-0.9302,-0.9302,-0.9296,-0.9302,-0.9296,-0.9302,-0.9302,-0.9275,-0.9247,-0.9231,-0.9247,-0.9285,-0.9296,-0.9302,-0.9302,-0.9302,-0.9302,-0.9302,-0.6696,-0.7063,-0.7349,-0.7421,-0.7494,-0.786,-0.8005,-0.8005,-0.8078,-0.8367,-0.8657,-0.8801,-0.9029,-0.9273,-0.9362,-0.9383,-0.9405,-0.9394,-0.9394,-0.9432,-0.9476,-0.9525,-0.9552,-0.9622,-0.9725,-0.9671,-0.9633,-0.9639,-0.9595,-0.9525,-0.9465,-0.953,-0.9536,-0.9574,-0.9633,-0.9644,-0.9601,-0.9536,-0.9459,-0.9405,-0.9367,-0.9356,-0.9334,-0.9318,-0.9302,-0.9302,-0.9302,-0.9302,-0.9302,-0.9302,-0.9302,-0.9302,-0.9302,-0.9302,-0.9302,-0.9302,-0.9302,-0.9302,-0.9302,-0.9302,-0.9302,-0.9302,-0.9302,-0.9302,-0.9302,-0.9302,-0.9302,-0.9302,-0.9302,-0.9302,-0.9302,-0.9302,-0.9302,-0.9302,-0.9302,-0.9302,-0.9302,-0.9302,-0.9302,-0.9302,-0.9302,-0.9302,-0.9302,-0.9302,-0.9302,-0.9302,-0.9302,-0.9302,-0.9302,-0.9302,-0.9302,-0.9302,-0.9302,-0.9302,-0.9302,-0.9302,-0.9302,-0.9302,-0.9302,-0.9302,-0.9302,-0.9302,-0.9302,-0.9302,-0.9302,-0.9291,-0.9264,-0.9285,-0.9302,-0.9302,-0.9302,-0.9302,-0.9302,-0.9302,-0.9302,-0.597,-0.699,-0.699,-0.7063,-0.7063,-0.7498,-0.7638,-0.7638,-0.7933,-0.8222,-0.8657,-0.9018,-0.9216,-0.9432,-0.9443,-0.9497,-0.9622,-0.9639,-0.9606,-0.9612,-0.965,-0.9655,-0.9671,-0.9688,-0.9699,-0.9699,-0.972,-0.9715,-0.9682,-0.9693,-0.965,-0.9661,-0.9661,-0.9666,-0.9688,-0.9709,-0.9693,-0.965,-0.9606,-0.9552,-0.9492,-0.9454,-0.9416,-0.9334,-0.9307,-0.9302,-0.9302,-0.9302,-0.9302,-0.9302,-0.9302,-0.9302,-0.9302,-0.9302,-0.9302,-0.9302,-0.9302,-0.9302,-0.9302,-0.9302,-0.9302,-0.9302,-0.9302,-0.9302,-0.9302,-0.9302,-0.9302,-0.9302,-0.9302,-0.9302,-0.9302,-0.9302,-0.9302,-0.9302,-0.9302,-0.9302,-0.9302,-0.9302,-0.9302,-0.9302,-0.9302,-0.9302,-0.9302,-0.9302,-0.9302,-0.9302,-0.9302,-0.9302,-0.9302,-0.9302,-0.9302,-0.9302,-0.9302,-0.9302,-0.9302,-0.9302,-0.9302,-0.9302,-0.9302,-0.9302,-0.9302,-0.9302,-0.9302,-0.9302,-0.9302,-0.9302,-0.9302,-0.9302,-0.9302,-0.9302,-0.9302,-0.9302,-0.9302,-0.9302,-0.9302,-0.4805,-0.5898,-0.5898,-0.6333,-0.699,-0.7135,-0.7204,-0.728,-0.7353,-0.7788,-0.8367,-0.8729,-0.9112,-0.93,-0.9383,-0.9443,-0.9546,-0.9552,-0.9612,-0.9682,-0.9726,-0.9764,-0.9791,-0.984,-0.9889,-0.9873,-0.9878,-0.9889,-0.9894,-0.9862,-0.9883,-0.9873,-0.9807,-0.984,-0.9845,-0.9807,-0.978,-0.9753,-0.9709,-0.9639,-0.9606,-0.9519,-0.9465,-0.9427,-0.9323,-0.9307,-0.9302,-0.9302,-0.9302,-0.9302,-0.9302,-0.9302,-0.9302,-0.9302,-0.9302,-0.9302,-0.9302,-0.9302,-0.9302,-0.9302,-0.9302,-0.9302,-0.9302,-0.9302,-0.9302,-0.9302,-0.9302,-0.9302,-0.9302,-0.9302,-0.9302,-0.9302,-0.9302,-0.9302,-0.9302,-0.9302,-0.9302,-0.9302,-0.9302,-0.9302,-0.9302,-0.9302,-0.9302,-0.9302,-0.9302,-0.9302,-0.9302,-0.9302,-0.9302,-0.9302,-0.9302,-0.9302,-0.9302,-0.9302,-0.9302,-0.9302,-0.9302,-0.9302,-0.9302,-0.9302,-0.9302,-0.9302,-0.9302,-0.9302,-0.9302,-0.9302,-0.9302,-0.9302,-0.9302,-0.9302,-0.9302,-0.9302,-0.9302,-0.9307,-0.9323,-0.3641,-0.466,-0.5023,-0.5898,-0.6918,-0.699,-0.699,-0.699,-0.699,-0.7425,-0.8155,-0.8542,-0.9019,-0.9337,-0.9465,-0.9552,-0.9666,-0.9693,-0.972,-0.9786,-0.9862,-0.9889,-0.9921,-0.9954,-0.9987,-1.0019,-1.0019,-1.0008,-0.9998,-1.0014,-0.9998,-0.997,-0.9943,-0.996,-0.9965,-0.9943,-0.9889,-0.9867,-0.9829,-0.9742,-0.972,-0.965,-0.9568,-0.9536,-0.9432,-0.9378,-0.9356,-0.934,-0.9302,-0.9302,-0.9302,-0.9302,-0.9302,-0.9302,-0.9302,-0.9302,-0.9302,-0.9302,-0.9302,-0.9302,-0.9302,-0.9302,-0.9302,-0.9302,-0.9302,-0.9302,-0.9302,-0.9302,-0.9302,-0.9302,-0.9302,-0.9302,-0.9302,-0.9302,-0.9302,-0.9302,-0.9302,-0.9302,-0.9302,-0.9302,-0.9302,-0.9302,-0.9302,-0.9302,-0.9302,-0.9302,-0.9302,-0.9302,-0.9302,-0.9302,-0.9302,-0.9302,-0.9302,-0.9302,-0.9302,-0.9302,-0.9302,-0.9302,-0.9302,-0.9302,-0.9302,-0.9302,-0.9302,-0.9302,-0.9302,-0.9302,-0.9307,-0.9313,-0.9307,-0.9302,-0.9313,-0.9329,-0.9329,-0.934,-0.9378,-0.2404,-0.3641,-0.466,-0.5749,-0.67,-0.699,-0.699,-0.699,-0.6998,-0.7438,-0.8111,-0.8626,-0.9171,-0.9553,-0.9682,-0.9769,-0.9873,-0.9921,-0.9949,-0.996,-0.9965,-0.9998,-1.0003,-1.0014,-1.0019,-1.0019,-1.0019,-1.0019,-1.0019,-1.0019,-1.0019,-0.9942,-0.992,-0.992,-1.0019,-1.0019,-1.0014,-1.0008,-0.9992,-0.9921,-0.9851,-0.9802,-0.9731,-0.9655,-0.9546,-0.9487,-0.9432,-0.9378,-0.934,-0.9307,-0.9302,-0.9302,-0.9302,-0.9302,-0.9302,-0.9302,-0.9302,-0.9302,-0.9302,-0.9302,-0.9302,-0.9302,-0.9302,-0.9302,-0.9302,-0.9302,-0.9302,-0.9302,-0.9302,-0.9302,-0.9302,-0.9302,-0.9302,-0.9302,-0.9302,-0.9302,-0.9302,-0.9302,-0.9302,-0.9302,-0.9302,-0.9302,-0.9302,-0.9302,-0.9302,-0.9302,-0.9302,-0.9302,-0.9302,-0.9302,-0.9302,-0.9302,-0.9302,-0.9302,-0.9302,-0.9302,-0.9302,-0.9302,-0.9302,-0.9302,-0.9302,-0.9302,-0.9302,-0.9307,-0.9334,-0.9362,-0.934,-0.9318,-0.9367,-0.9421,-0.9372,-0.9367,-0.9362,-0.9389,-0.9454,-0.1239,-0.2331,-0.2695,-0.3569,-0.4805,-0.6406,-0.699,-0.7003,-0.7121,-0.7521,-0.82,-0.8582,-0.9025,-0.9532,-0.9726,-0.9813,-0.9894,-0.9905,-0.9839,-1.0019,-1.0019,-1.0019,-1.0019,-1.0019,-1.0019,-1.0019,-1.0019,-1.0019,-1.0019,-1.003,-1.0025,-0.9942,-0.9724,-0.9791,-0.9942,-1.0019,-1.0019,-1.0019,-1.0014,-0.9992,-0.9949,-0.9883,-0.9747,-0.9775,-0.9666,-0.9579,-0.9514,-0.9449,-0.9383,-0.9323,-0.9318,-0.9302,-0.9302,-0.9302,-0.9302,-0.9302,-0.9302,-0.9302,-0.9302,-0.9302,-0.9302,-0.9302,-0.9302,-0.9302,-0.9302,-0.9302,-0.9302,-0.9302,-0.9302,-0.9302,-0.9302,-0.9302,-0.9302,-0.9302,-0.9302,-0.9302,-0.9302,-0.9302,-0.9302,-0.9302,-0.9302,-0.9302,-0.9302,-0.9302,-0.9302,-0.9302,-0.9302,-0.9302,-0.9302,-0.9302,-0.9302,-0.9302,-0.9302,-0.9302,-0.9302,-0.9302,-0.9302,-0.9302,-0.9302,-0.9302,-0.9302,-0.9313,-0.9323,-0.9334,-0.9383,-0.9427,-0.9438,-0.9459,-0.9525,-0.9552,-0.9536,-0.9514,-0.9514,-0.9546,-0.959,-0.0438,-0.1166,-0.1531,-0.2119,-0.3148,-0.4959,-0.5984,-0.6462,-0.6759,-0.7393,-0.8006,-0.8318,-0.8748,-0.9364,-0.9704,-0.9818,-0.99,-0.9905,-0.9844,-1.0019,-1.0019,-1.0019,-1.0019,-1.0019,-1.0019,-1.0019,-0.9942,-0.9942,-0.9791,-0.999,-0.9882,-0.9588,-0.9359,-0.9203,-0.9354,-0.9354,-0.963,-0.963,-0.963,-0.9708,-0.9759,-0.98,-0.9757,-0.9796,-0.9791,-0.9693,-0.9612,-0.9536,-0.9454,-0.9383,-0.9334,-0.9307,-0.9302,-0.9302,-0.9302,-0.9302,-0.9302,-0.9302,-0.9302,-0.9302,-0.9302,-0.9302,-0.9302,-0.9302,-0.9302,-0.9302,-0.9302,-0.9302,-0.9302,-0.9302,-0.9302,-0.9302,-0.9302,-0.9302,-0.9302,-0.9302,-0.9302,-0.9302,-0.9302,-0.9302,-0.9302,-0.9302,-0.9307,-0.9302,-0.9302,-0.9302,-0.9302,-0.9313,-0.9323,-0.9318,-0.9323,-0.9323,-0.9323,-0.9323,-0.9318,-0.9302,-0.9302,-0.9302,-0.9318,-0.934,-0.9334,-0.9345,-0.9351,-0.9383,-0.9476,-0.9546,-0.9574,-0.9617,-0.9677,-0.9731,-0.9764,-0.9731,-0.9688,-0.9699,-0.9726,0.0,0.0,-0.1167,-0.1617,-0.1852,-0.309,-0.427,-0.5428,-0.6244,-0.6958,-0.7796,-0.7968,-0.8396,-0.9177,-0.9722,-0.9915,-0.9998,-1.0003,-0.9931,-0.9936,-0.9864,-0.9864,-0.9864,-0.9791,-0.9708,-0.9864,-0.9791,-0.9568,-0.9417,-0.9489,-0.9432,-0.9138,-0.885,-0.8678,-0.8674,-0.866,-0.9012,-0.9163,-0.9168,-0.9402,-0.962,-0.962,-0.9682,-0.98,-0.9894,-0.9829,-0.9742,-0.9644,-0.9541,-0.9454,-0.9383,-0.9334,-0.9307,-0.9302,-0.9302,-0.9302,-0.9302,-0.9302,-0.9302,-0.9302,-0.9302,-0.9302,-0.9302,-0.9302,-0.9302,-0.9302,-0.9302,-0.9302,-0.9302,-0.9302,-0.9302,-0.9302,-0.9302,-0.9302,-0.9302,-0.9302,-0.9302,-0.9302,-0.9302,-0.9302,-0.9302,-0.9307,-0.9313,-0.9313,-0.9367,-0.9372,-0.9389,-0.9416,-0.9416,-0.9362,-0.9367,-0.9362,-0.9362,-0.9356,-0.9351,-0.9389,-0.9405,-0.9443,-0.9405,-0.9416,-0.94,-0.9416,-0.9459,-0.9525,-0.9606,-0.9677,-0.9731,-0.978,-0.9824,-0.9873,-0.99,-0.9878,-0.9813,-0.9824,-0.9851,0.0,0.0,-0.037,-0.0521,-0.0678,-0.1816,-0.3478,-0.5277,-0.5486,-0.6125,-0.7511,-0.7602,-0.8097,-0.8891,-0.9387,-0.9708,-0.9864,-0.9942,-0.9786,-0.9708,-0.9553,-0.9397,-0.9246,-0.9246,-0.9168,-0.9168,-0.9173,-0.9042,-0.8628,-0.8847,-0.8772,-0.8459,-0.8378,-0.8277,-0.8111,-0.8011,-0.8393,-0.8696,-0.87,-0.909,-0.9402,-0.9402,-0.9558,-0.9765,-0.9904,-0.9844,-0.9753,-0.9699,-0.9661,-0.9508,-0.9465,-0.941,-0.9302,-0.9302,-0.9302,-0.9302,-0.9302,-0.9302,-0.9302,-0.9302,-0.9302,-0.9302,-0.9302,-0.9302,-0.9302,-0.9302,-0.9302,-0.9302,-0.9302,-0.9302,-0.9302,-0.9302,-0.9302,-0.9302,-0.9302,-0.9302,-0.9302,-0.9302,-0.9302,-0.9307,-0.9307,-0.934,-0.934,-0.941,-0.9459,-0.9465,-0.9481,-0.9514,-0.9514,-0.9465,-0.9438,-0.9443,-0.9465,-0.9476,-0.9525,-0.9568,-0.9574,-0.9574,-0.953,-0.9514,-0.9546,-0.9574,-0.9601,-0.9661,-0.9742,-0.9829,-0.9921,-0.9943,-0.9927,-0.9954,-0.9981,-0.996,-0.9949,-0.9938,-0.9938,0.0,0.0,0.0,0.0,0.0,-0.0849,-0.2549,-0.4458,-0.4719,-0.5661,-0.7142,-0.7267,-0.7686,-0.8301,-0.8852,-0.9246,-0.948,-0.948,-0.9324,-0.9246,-0.9168,-0.909,-0.8856,-0.8778,-0.8856,-0.8778,-0.8705,-0.8724,-0.8238,-0.8014,-0.7935,-0.8033,-0.7997,-0.788,-0.7723,-0.7636,-0.7842,-0.8072,-0.8306,-0.8618,-0.8934,-0.9012,-0.9168,-0.9553,-0.963,-0.9738,-0.968,-0.9725,-0.9677,-0.9628,-0.9606,-0.9503,-0.9389,-0.934,-0.9307,-0.9302,-0.9302,-0.9302,-0.9302,-0.9302,-0.9302,-0.9302,-0.9302,-0.9302,-0.9302,-0.9302,-0.9302,-0.9302,-0.9302,-0.9302,-0.9302,-0.9302,-0.9302,-0.9302,-0.9302,-0.9302,-0.9302,-0.9302,-0.9307,-0.9313,-0.934,-0.9372,-0.9427,-0.9503,-0.9557,-0.9568,-0.9584,-0.9601,-0.9606,-0.9584,-0.9563,-0.9563,-0.9595,-0.9628,-0.9677,-0.9699,-0.9677,-0.9655,-0.9628,-0.9628,-0.9677,-0.972,-0.9748,-0.9802,-0.9867,-0.9938,-0.9987,-1.0003,-0.9998,-1.0019,-1.0019,-0.9998,-0.9987,-0.9992,-0.9992,0.0,0.0,0.0,0.0,0.0,0.0,-0.141,-0.3529,-0.4073,-0.5254,-0.6662,-0.69,-0.7217,-0.7759,-0.8388,-0.8778,-0.8934,-0.9012,-0.8934,-0.8778,-0.8778,-0.87,-0.8544,-0.8622,-0.8466,-0.8622,-0.8554,-0.8255,-0.802,-0.774,-0.7572,-0.769,-0.7611,-0.7483,-0.7228,-0.7401,-0.7537,-0.7562,-0.7776,-0.7994,-0.8466,-0.8466,-0.8388,-0.8856,-0.9168,-0.9309,-0.9444,-0.9542,-0.9769,-0.9726,-0.9737,-0.9622,-0.9481,-0.9394,-0.9345,-0.9302,-0.9302,-0.9302,-0.9302,-0.9302,-0.9302,-0.9302,-0.9302,-0.9302,-0.9302,-0.9302,-0.9302,-0.9302,-0.9302,-0.9302,-0.9302,-0.9302,-0.9302,-0.9302,-0.9302,-0.9302,-0.9302,-0.9329,-0.9372,-0.9394,-0.9449,-0.9487,-0.9525,-0.9601,-0.9677,-0.9682,-0.972,-0.9737,-0.9731,-0.972,-0.9693,-0.9693,-0.9742,-0.9775,-0.9775,-0.9786,-0.9753,-0.9726,-0.972,-0.9742,-0.9802,-0.9845,-0.9889,-0.9921,-0.9949,-0.9976,-1.0014,-1.0019,-1.0019,-1.0019,-1.0019,-1.0019,-1.0019,-1.0019,-1.0019,0.0,0.0,0.0,0.0,0.0,0.0,-0.0863,-0.2353,-0.3139,-0.4706,-0.6587,-0.6904,-0.706,-0.7447,-0.7998,-0.8466,-0.87,-0.8622,-0.8544,-0.8388,-0.831,-0.8154,-0.7916,-0.7994,-0.7916,-0.7838,-0.7768,-0.7715,-0.7449,-0.7235,-0.7164,-0.7206,-0.7275,-0.7204,-0.7016,-0.7342,-0.7405,-0.7271,-0.7475,-0.7764,-0.8154,-0.8315,-0.8393,-0.8622,-0.8934,-0.8934,-0.9075,-0.9299,-0.9377,-0.9392,-0.9671,-0.9613,-0.9503,-0.9465,-0.9394,-0.9329,-0.9318,-0.9318,-0.9302,-0.9302,-0.9302,-0.9302,-0.9302,-0.9302,-0.9302,-0.9302,-0.9302,-0.9302,-0.9302,-0.9302,-0.9302,-0.9302,-0.9302,-0.9302,-0.9307,-0.9307,-0.9307,-0.9372,-0.9432,-0.9497,-0.9563,-0.9612,-0.9644,-0.9704,-0.9769,-0.984,-0.9911,-0.9938,-0.9921,-0.9905,-0.9835,-0.984,-0.9905,-0.9932,-0.9905,-0.9883,-0.9856,-0.9878,-0.9889,-0.9911,-0.9921,-0.9938,-0.9954,-0.9981,-1.0014,-1.0019,-1.0019,-1.0019,-1.0019,-1.0019,-1.0019,-1.0019,-1.0019,-1.0019,-1.0019,0.0,0.0,0.0,0.0,0.0,0.0,-0.0706,-0.1962,-0.2982,-0.4393,-0.604,-0.6591,-0.69,-0.7135,-0.7607,-0.7998,-0.8232,-0.8232,-0.8076,-0.792,-0.792,-0.7764,-0.7603,-0.7525,-0.7603,-0.7525,-0.7455,-0.7413,-0.7088,-0.6952,-0.7027,-0.6897,-0.702,-0.7088,-0.7035,-0.722,-0.7271,-0.7279,-0.7397,-0.7612,-0.7924,-0.7924,-0.7998,-0.8232,-0.8388,-0.8466,-0.87,-0.8934,-0.9133,-0.9295,-0.9637,-0.9726,-0.9666,-0.9606,-0.9508,-0.9427,-0.9389,-0.9362,-0.9329,-0.9313,-0.9318,-0.9318,-0.9313,-0.9313,-0.9302,-0.9302,-0.9302,-0.9302,-0.9302,-0.9302,-0.9302,-0.9302,-0.9302,-0.9302,-0.9318,-0.9323,-0.94,-0.9497,-0.9541,-0.9584,-0.9655,-0.9731,-0.9775,-0.9845,-0.9905,-0.9921,-1.0003,-1.0014,-1.0019,-1.0019,-0.997,-0.9949,-0.9992,-1.0008,-0.9981,-0.997,-0.9976,-1.0003,-1.0019,-0.9998,-0.997,-0.9992,-1.0019,-1.0019,-1.0019,-1.0019,-1.0019,-1.0019,-1.0019,-1.0019,-1.0019,-1.0019,-1.0019,-1.0019,-1.0019,0.0,0.0,0.0,0.0,0.0,0.0,-0.0628,-0.1726,-0.298,-0.3844,-0.4628,-0.5962,-0.6353,-0.6744,-0.7056,-0.7291,-0.7525,-0.7759,-0.7603,-0.7525,-0.7525,-0.7525,-0.7525,-0.7525,-0.7525,-0.7525,-0.7529,-0.7334,-0.7152,-0.7016,-0.6897,-0.6637,-0.6647,-0.6714,-0.6989,-0.7107,-0.7243,-0.7291,-0.7413,-0.7467,-0.7459,-0.7451,-0.7525,-0.7681,-0.7842,-0.8076,-0.8232,-0.8544,-0.8934,-0.9216,-0.9459,-0.9703,-0.972,-0.972,-0.9628,-0.9546,-0.9508,-0.9449,-0.9383,-0.9383,-0.9367,-0.9345,-0.934,-0.9345,-0.9345,-0.9334,-0.9334,-0.9313,-0.9313,-0.9313,-0.9313,-0.9307,-0.9307,-0.9351,-0.9367,-0.9394,-0.9508,-0.9617,-0.9655,-0.9693,-0.9764,-0.984,-0.99,-0.997,-0.9998,-1.0014,-1.0019,-1.0019,-1.0019,-1.0019,-0.9998,-0.9987,-1.0003,-1.0019,-1.0019,-1.0019,-1.0019,-1.0019,-1.0019,-1.0019,-1.0019,-1.0019,-1.0019,-1.0019,-1.0019,-1.0019,-1.0019,-1.0019,-1.0019,-1.0019,-1.0019,-1.0019,-1.0019,-1.0019,-1.0019,0.0,0.0,0.0,0.0,0.0,0.0,-0.0157,0.0,-0.1726,-0.2197,-0.2748,-0.4471,-0.5805,-0.6744,-0.69,-0.7135,-0.7525,-0.7525,-0.7525,-0.7525,-0.7525,-0.7525,-0.7525,-0.7525,-0.7525,-0.7525,-0.7525,-0.7463,-0.7216,-0.7092,-0.7115,-0.7225,-0.6971,-0.6993,-0.7114,-0.7213,-0.7282,-0.7255,-0.7295,-0.7264,-0.7212,-0.7271,-0.7451,-0.7525,-0.7603,-0.7603,-0.7759,-0.808,-0.8315,-0.8618,-0.9061,-0.947,-0.9648,-0.9747,-0.9672,-0.9666,-0.9633,-0.9563,-0.9508,-0.9514,-0.9508,-0.9465,-0.9476,-0.9514,-0.9497,-0.9454,-0.9427,-0.9356,-0.9345,-0.934,-0.9334,-0.9329,-0.9334,-0.9454,-0.9514,-0.9563,-0.9644,-0.9731,-0.9796,-0.984,-0.9889,-0.9938,-0.997,-1.0008,-1.0008,-1.0019,-1.0019,-1.0019,-1.0019,-1.0019,-1.0019,-1.0019,-1.0019,-1.0019,-1.0019,-1.0019,-1.0019,-1.0019,-1.0019,-1.0019,-1.0019,-1.0019,-1.0019,-1.0019,-1.0019,-1.0019,-1.0019,-1.0019,-1.0019,-1.0019,-1.0019,-1.0019,-1.0019,-1.0019,-1.0019]}]]